<?xml version="1.0" encoding="UTF-8" standalone="no" ?>
<gpx xmlns="http://www.topografix.com/GPX/1/1" xmlns:xsi="http://www.w3.org/2001/XMLSchema-instance" xsi:schemaLocation="http://www.topografix.com/GPX/1/1 http://www.topografix.com/GPX/1/1/gpx.xsd" version="1.1" creator="VisuGPX - https://www.visugpx.com">
  <metadata>
    <name>sapois haut du tôt</name>
  </metadata>
  <trk>
    <name><![CDATA[sapois haut du tôt_1]]></name>
    <trkseg>
      <trkpt lat="48.01056" lon="6.76349">
        <ele>576.6</ele>
        <time>2010-01-01T00:00:00Z</time>
      </trkpt>
      <trkpt lat="48.01058" lon="6.76342">
        <ele>576</ele>
        <time>2010-01-01T00:00:00Z</time>
      </trkpt>
      <trkpt lat="48.01054" lon="6.76339">
        <ele>576.1</ele>
        <time>2010-01-01T00:00:00Z</time>
      </trkpt>
      <trkpt lat="48.01044" lon="6.7633">
        <ele>567.7</ele>
        <time>2010-01-01T00:00:00Z</time>
      </trkpt>
      <trkpt lat="48.01037" lon="6.76322">
        <ele>567.5</ele>
        <time>2010-01-01T00:00:00Z</time>
      </trkpt>
      <trkpt lat="48.01031" lon="6.76314">
        <ele>567.2</ele>
        <time>2010-01-01T00:00:00Z</time>
      </trkpt>
      <trkpt lat="48.0103" lon="6.7631">
        <ele>566.9</ele>
        <time>2010-01-01T00:00:00Z</time>
      </trkpt>
      <trkpt lat="48.01029" lon="6.76303">
        <ele>566.5</ele>
        <time>2010-01-01T00:00:00Z</time>
      </trkpt>
      <trkpt lat="48.01029" lon="6.76297">
        <ele>566</ele>
        <time>2010-01-01T00:00:00Z</time>
      </trkpt>
      <trkpt lat="48.01031" lon="6.7629">
        <ele>565.4</ele>
        <time>2010-01-01T00:00:00Z</time>
      </trkpt>
      <trkpt lat="48.01032" lon="6.76276">
        <ele>564.4</ele>
        <time>2010-01-01T00:00:00Z</time>
      </trkpt>
      <trkpt lat="48.01032" lon="6.76263">
        <ele>563.6</ele>
        <time>2010-01-01T00:00:00Z</time>
      </trkpt>
      <trkpt lat="48.0103" lon="6.76251">
        <ele>563.1</ele>
        <time>2010-01-01T00:00:00Z</time>
      </trkpt>
      <trkpt lat="48.01027" lon="6.76241">
        <ele>556.7</ele>
        <time>2010-01-01T00:00:00Z</time>
      </trkpt>
      <trkpt lat="48.01022" lon="6.76232">
        <ele>556.5</ele>
        <time>2010-01-01T00:00:00Z</time>
      </trkpt>
      <trkpt lat="48.01015" lon="6.76225">
        <ele>556.3</ele>
        <time>2010-01-01T00:00:00Z</time>
      </trkpt>
      <trkpt lat="48.0101" lon="6.76221">
        <ele>556.1</ele>
        <time>2010-01-01T00:00:00Z</time>
      </trkpt>
      <trkpt lat="48.01001" lon="6.7622">
        <ele>556.1</ele>
        <time>2010-01-01T00:00:00Z</time>
      </trkpt>
      <trkpt lat="48.00997" lon="6.7622">
        <ele>557.8</ele>
        <time>2010-01-01T00:00:00Z</time>
      </trkpt>
      <trkpt lat="48.00997" lon="6.76216">
        <ele>557.5</ele>
        <time>2010-01-01T00:00:00Z</time>
      </trkpt>
      <trkpt lat="48.00998" lon="6.76213">
        <ele>557.3</ele>
        <time>2010-01-01T00:00:00Z</time>
      </trkpt>
      <trkpt lat="48.00999" lon="6.7621">
        <ele>557.1</ele>
        <time>2010-01-01T00:00:00Z</time>
      </trkpt>
      <trkpt lat="48.01008" lon="6.76204">
        <ele>554.9</ele>
        <time>2010-01-01T00:00:00Z</time>
      </trkpt>
      <trkpt lat="48.01023" lon="6.7619">
        <ele>554</ele>
        <time>2010-01-01T00:00:00Z</time>
      </trkpt>
      <trkpt lat="48.01035" lon="6.76181">
        <ele>553.5</ele>
        <time>2010-01-01T00:00:00Z</time>
      </trkpt>
      <trkpt lat="48.0105" lon="6.76169">
        <ele>552.6</ele>
        <time>2010-01-01T00:00:00Z</time>
      </trkpt>
      <trkpt lat="48.01066" lon="6.76156">
        <ele>546.6</ele>
        <time>2010-01-01T00:00:00Z</time>
      </trkpt>
      <trkpt lat="48.01077" lon="6.76149">
        <ele>546.3</ele>
        <time>2010-01-01T00:00:00Z</time>
      </trkpt>
      <trkpt lat="48.01086" lon="6.76145">
        <ele>543.5</ele>
        <time>2010-01-01T00:00:00Z</time>
      </trkpt>
      <trkpt lat="48.01096" lon="6.76144">
        <ele>543</ele>
        <time>2010-01-01T00:00:00Z</time>
      </trkpt>
      <trkpt lat="48.01103" lon="6.76142">
        <ele>542.4</ele>
        <time>2010-01-01T00:00:00Z</time>
      </trkpt>
      <trkpt lat="48.01107" lon="6.7614">
        <ele>542</ele>
        <time>2010-01-01T00:00:00Z</time>
      </trkpt>
      <trkpt lat="48.01112" lon="6.76141">
        <ele>541.8</ele>
        <time>2010-01-01T00:00:00Z</time>
      </trkpt>
      <trkpt lat="48.0112" lon="6.76142">
        <ele>541.5</ele>
        <time>2010-01-01T00:00:00Z</time>
      </trkpt>
      <trkpt lat="48.01125" lon="6.76143">
        <ele>541.3</ele>
        <time>2010-01-01T00:00:00Z</time>
      </trkpt>
      <trkpt lat="48.0113" lon="6.76145">
        <ele>541.2</ele>
        <time>2010-01-01T00:00:00Z</time>
      </trkpt>
      <trkpt lat="48.01137" lon="6.76148">
        <ele>541</ele>
        <time>2010-01-01T00:00:00Z</time>
      </trkpt>
      <trkpt lat="48.01145" lon="6.76157">
        <ele>541</ele>
        <time>2010-01-01T00:00:00Z</time>
      </trkpt>
      <trkpt lat="48.01152" lon="6.76167">
        <ele>545.2</ele>
        <time>2010-01-01T00:00:00Z</time>
      </trkpt>
      <trkpt lat="48.01163" lon="6.76176">
        <ele>544.3</ele>
        <time>2010-01-01T00:00:00Z</time>
      </trkpt>
      <trkpt lat="48.01174" lon="6.76189">
        <ele>543</ele>
        <time>2010-01-01T00:00:00Z</time>
      </trkpt>
      <trkpt lat="48.01184" lon="6.76199">
        <ele>543.7</ele>
        <time>2010-01-01T00:00:00Z</time>
      </trkpt>
      <trkpt lat="48.01194" lon="6.76208">
        <ele>544.2</ele>
        <time>2010-01-01T00:00:00Z</time>
      </trkpt>
      <trkpt lat="48.01204" lon="6.76217">
        <ele>544.5</ele>
        <time>2010-01-01T00:00:00Z</time>
      </trkpt>
      <trkpt lat="48.01217" lon="6.76226">
        <ele>544.6</ele>
        <time>2010-01-01T00:00:00Z</time>
      </trkpt>
      <trkpt lat="48.01232" lon="6.76231">
        <ele>544.6</ele>
        <time>2010-01-01T00:00:00Z</time>
      </trkpt>
      <trkpt lat="48.01261" lon="6.76253">
        <ele>542.8</ele>
        <time>2010-01-01T00:00:00Z</time>
      </trkpt>
      <trkpt lat="48.01329" lon="6.76513">
        <ele>554.3</ele>
        <time>2010-01-01T00:00:00Z</time>
      </trkpt>
      <trkpt lat="48.01363" lon="6.76524">
        <ele>542.2</ele>
        <time>2010-01-01T00:00:00Z</time>
      </trkpt>
      <trkpt lat="48.01392" lon="6.76523">
        <ele>537.4</ele>
        <time>2010-01-01T00:00:00Z</time>
      </trkpt>
      <trkpt lat="48.01399" lon="6.76533">
        <ele>538</ele>
        <time>2010-01-01T00:00:00Z</time>
      </trkpt>
      <trkpt lat="48.01408" lon="6.76545">
        <ele>539.2</ele>
        <time>2010-01-01T00:00:00Z</time>
      </trkpt>
      <trkpt lat="48.01416" lon="6.76554">
        <ele>540</ele>
        <time>2010-01-01T00:00:00Z</time>
      </trkpt>
      <trkpt lat="48.01425" lon="6.7656">
        <ele>529.3</ele>
        <time>2010-01-01T00:00:00Z</time>
      </trkpt>
      <trkpt lat="48.01437" lon="6.76567">
        <ele>528.7</ele>
        <time>2010-01-01T00:00:00Z</time>
      </trkpt>
      <trkpt lat="48.01456" lon="6.76575">
        <ele>525.2</ele>
        <time>2010-01-01T00:00:00Z</time>
      </trkpt>
      <trkpt lat="48.01469" lon="6.7658">
        <ele>523</ele>
        <time>2010-01-01T00:00:00Z</time>
      </trkpt>
      <trkpt lat="48.01481" lon="6.76583">
        <ele>521.3</ele>
        <time>2010-01-01T00:00:00Z</time>
      </trkpt>
      <trkpt lat="48.0149" lon="6.76584">
        <ele>525.6</ele>
        <time>2010-01-01T00:00:00Z</time>
      </trkpt>
      <trkpt lat="48.01498" lon="6.76586">
        <ele>521.5</ele>
        <time>2010-01-01T00:00:00Z</time>
      </trkpt>
      <trkpt lat="48.01507" lon="6.7659">
        <ele>519.8</ele>
        <time>2010-01-01T00:00:00Z</time>
      </trkpt>
      <trkpt lat="48.01516" lon="6.76597">
        <ele>520.3</ele>
        <time>2010-01-01T00:00:00Z</time>
      </trkpt>
      <trkpt lat="48.01526" lon="6.76608">
        <ele>520.8</ele>
        <time>2010-01-01T00:00:00Z</time>
      </trkpt>
      <trkpt lat="48.01537" lon="6.76622">
        <ele>521.2</ele>
        <time>2010-01-01T00:00:00Z</time>
      </trkpt>
      <trkpt lat="48.01546" lon="6.76634">
        <ele>521.2</ele>
        <time>2010-01-01T00:00:00Z</time>
      </trkpt>
      <trkpt lat="48.01561" lon="6.76655">
        <ele>520.3</ele>
        <time>2010-01-01T00:00:00Z</time>
      </trkpt>
      <trkpt lat="48.01575" lon="6.76679">
        <ele>523.5</ele>
        <time>2010-01-01T00:00:00Z</time>
      </trkpt>
      <trkpt lat="48.01588" lon="6.76704">
        <ele>517.1</ele>
        <time>2010-01-01T00:00:00Z</time>
      </trkpt>
      <trkpt lat="48.01605" lon="6.76732">
        <ele>518</ele>
        <time>2010-01-01T00:00:00Z</time>
      </trkpt>
      <trkpt lat="48.01612" lon="6.76746">
        <ele>518</ele>
        <time>2010-01-01T00:00:00Z</time>
      </trkpt>
      <trkpt lat="48.01619" lon="6.76763">
        <ele>520.2</ele>
        <time>2010-01-01T00:00:00Z</time>
      </trkpt>
      <trkpt lat="48.01626" lon="6.76784">
        <ele>520.1</ele>
        <time>2010-01-01T00:00:00Z</time>
      </trkpt>
      <trkpt lat="48.01631" lon="6.76795">
        <ele>519.9</ele>
        <time>2010-01-01T00:00:00Z</time>
      </trkpt>
      <trkpt lat="48.01635" lon="6.76801">
        <ele>519.6</ele>
        <time>2010-01-01T00:00:00Z</time>
      </trkpt>
      <trkpt lat="48.01641" lon="6.76809">
        <ele>518.9</ele>
        <time>2010-01-01T00:00:00Z</time>
      </trkpt>
      <trkpt lat="48.0165" lon="6.7682">
        <ele>517.5</ele>
        <time>2010-01-01T00:00:00Z</time>
      </trkpt>
      <trkpt lat="48.01657" lon="6.76835">
        <ele>517.1</ele>
        <time>2010-01-01T00:00:00Z</time>
      </trkpt>
      <trkpt lat="48.01676" lon="6.76887">
        <ele>514.1</ele>
        <time>2010-01-01T00:00:00Z</time>
      </trkpt>
      <trkpt lat="48.01682" lon="6.76905">
        <ele>515</ele>
        <time>2010-01-01T00:00:00Z</time>
      </trkpt>
      <trkpt lat="48.01688" lon="6.76922">
        <ele>518.1</ele>
        <time>2010-01-01T00:00:00Z</time>
      </trkpt>
      <trkpt lat="48.0169" lon="6.76935">
        <ele>518.4</ele>
        <time>2010-01-01T00:00:00Z</time>
      </trkpt>
      <trkpt lat="48.01693" lon="6.76939">
        <ele>518.5</ele>
        <time>2010-01-01T00:00:00Z</time>
      </trkpt>
      <trkpt lat="48.01697" lon="6.76941">
        <ele>518.4</ele>
        <time>2010-01-01T00:00:00Z</time>
      </trkpt>
      <trkpt lat="48.01701" lon="6.76941">
        <ele>518.1</ele>
        <time>2010-01-01T00:00:00Z</time>
      </trkpt>
      <trkpt lat="48.01708" lon="6.76943">
        <ele>517.8</ele>
        <time>2010-01-01T00:00:00Z</time>
      </trkpt>
      <trkpt lat="48.01713" lon="6.76947">
        <ele>517.7</ele>
        <time>2010-01-01T00:00:00Z</time>
      </trkpt>
      <trkpt lat="48.01721" lon="6.76957">
        <ele>517.6</ele>
        <time>2010-01-01T00:00:00Z</time>
      </trkpt>
      <trkpt lat="48.01731" lon="6.76971">
        <ele>517.3</ele>
        <time>2010-01-01T00:00:00Z</time>
      </trkpt>
      <trkpt lat="48.01742" lon="6.76984">
        <ele>516.3</ele>
        <time>2010-01-01T00:00:00Z</time>
      </trkpt>
      <trkpt lat="48.01755" lon="6.76999">
        <ele>514</ele>
        <time>2010-01-01T00:00:00Z</time>
      </trkpt>
      <trkpt lat="48.01771" lon="6.77017">
        <ele>514.8</ele>
        <time>2010-01-01T00:00:00Z</time>
      </trkpt>
      <trkpt lat="48.01786" lon="6.77033">
        <ele>515</ele>
        <time>2010-01-01T00:00:00Z</time>
      </trkpt>
      <trkpt lat="48.01797" lon="6.77043">
        <ele>514.9</ele>
        <time>2010-01-01T00:00:00Z</time>
      </trkpt>
      <trkpt lat="48.01806" lon="6.77048">
        <ele>514.7</ele>
        <time>2010-01-01T00:00:00Z</time>
      </trkpt>
      <trkpt lat="48.01813" lon="6.77051">
        <ele>514.5</ele>
        <time>2010-01-01T00:00:00Z</time>
      </trkpt>
      <trkpt lat="48.0182" lon="6.77053">
        <ele>514.3</ele>
        <time>2010-01-01T00:00:00Z</time>
      </trkpt>
      <trkpt lat="48.01827" lon="6.77056">
        <ele>514</ele>
        <time>2010-01-01T00:00:00Z</time>
      </trkpt>
      <trkpt lat="48.01837" lon="6.77061">
        <ele>515.1</ele>
        <time>2010-01-01T00:00:00Z</time>
      </trkpt>
      <trkpt lat="48.01847" lon="6.77064">
        <ele>515.3</ele>
        <time>2010-01-01T00:00:00Z</time>
      </trkpt>
      <trkpt lat="48.01851" lon="6.77064">
        <ele>515.6</ele>
        <time>2010-01-01T00:00:00Z</time>
      </trkpt>
      <trkpt lat="48.01855" lon="6.77064">
        <ele>515.8</ele>
        <time>2010-01-01T00:00:00Z</time>
      </trkpt>
      <trkpt lat="48.01859" lon="6.77061">
        <ele>516.2</ele>
        <time>2010-01-01T00:00:00Z</time>
      </trkpt>
      <trkpt lat="48.01863" lon="6.77057">
        <ele>516.6</ele>
        <time>2010-01-01T00:00:00Z</time>
      </trkpt>
      <trkpt lat="48.01868" lon="6.77049">
        <ele>517.1</ele>
        <time>2010-01-01T00:00:00Z</time>
      </trkpt>
      <trkpt lat="48.01872" lon="6.77037">
        <ele>517.7</ele>
        <time>2010-01-01T00:00:00Z</time>
      </trkpt>
      <trkpt lat="48.01873" lon="6.77028">
        <ele>518</ele>
        <time>2010-01-01T00:00:00Z</time>
      </trkpt>
      <trkpt lat="48.01873" lon="6.7702">
        <ele>518.2</ele>
        <time>2010-01-01T00:00:00Z</time>
      </trkpt>
      <trkpt lat="48.01875" lon="6.76997">
        <ele>523.3</ele>
        <time>2010-01-01T00:00:00Z</time>
      </trkpt>
      <trkpt lat="48.01845" lon="6.76926">
        <ele>521.9</ele>
        <time>2010-01-01T00:00:00Z</time>
      </trkpt>
      <trkpt lat="48.01807" lon="6.76834">
        <ele>516.9</ele>
        <time>2010-01-01T00:00:00Z</time>
      </trkpt>
      <trkpt lat="48.01784" lon="6.76777">
        <ele>515.5</ele>
        <time>2010-01-01T00:00:00Z</time>
      </trkpt>
      <trkpt lat="48.01775" lon="6.7675">
        <ele>514.2</ele>
        <time>2010-01-01T00:00:00Z</time>
      </trkpt>
      <trkpt lat="48.0177" lon="6.76732">
        <ele>515</ele>
        <time>2010-01-01T00:00:00Z</time>
      </trkpt>
      <trkpt lat="48.01768" lon="6.76714">
        <ele>515.6</ele>
        <time>2010-01-01T00:00:00Z</time>
      </trkpt>
      <trkpt lat="48.01764" lon="6.76678">
        <ele>514.4</ele>
        <time>2010-01-01T00:00:00Z</time>
      </trkpt>
      <trkpt lat="48.01762" lon="6.76655">
        <ele>514.3</ele>
        <time>2010-01-01T00:00:00Z</time>
      </trkpt>
      <trkpt lat="48.0176" lon="6.76622">
        <ele>515.2</ele>
        <time>2010-01-01T00:00:00Z</time>
      </trkpt>
      <trkpt lat="48.01755" lon="6.76566">
        <ele>514.7</ele>
        <time>2010-01-01T00:00:00Z</time>
      </trkpt>
      <trkpt lat="48.01753" lon="6.76544">
        <ele>517.6</ele>
        <time>2010-01-01T00:00:00Z</time>
      </trkpt>
      <trkpt lat="48.0175" lon="6.76522">
        <ele>510</ele>
        <time>2010-01-01T00:00:00Z</time>
      </trkpt>
      <trkpt lat="48.01753" lon="6.76521">
        <ele>517.7</ele>
        <time>2010-01-01T00:00:00Z</time>
      </trkpt>
      <trkpt lat="48.01754" lon="6.76518">
        <ele>517.6</ele>
        <time>2010-01-01T00:00:00Z</time>
      </trkpt>
      <trkpt lat="48.01755" lon="6.76516">
        <ele>517.5</ele>
        <time>2010-01-01T00:00:00Z</time>
      </trkpt>
      <trkpt lat="48.01755" lon="6.76512">
        <ele>517</ele>
        <time>2010-01-01T00:00:00Z</time>
      </trkpt>
      <trkpt lat="48.01755" lon="6.76505">
        <ele>515.9</ele>
        <time>2010-01-01T00:00:00Z</time>
      </trkpt>
      <trkpt lat="48.01754" lon="6.76498">
        <ele>516.8</ele>
        <time>2010-01-01T00:00:00Z</time>
      </trkpt>
      <trkpt lat="48.01753" lon="6.76493">
        <ele>518.4</ele>
        <time>2010-01-01T00:00:00Z</time>
      </trkpt>
      <trkpt lat="48.01753" lon="6.76486">
        <ele>521.1</ele>
        <time>2010-01-01T00:00:00Z</time>
      </trkpt>
      <trkpt lat="48.01758" lon="6.76485">
        <ele>522.1</ele>
        <time>2010-01-01T00:00:00Z</time>
      </trkpt>
      <trkpt lat="48.01765" lon="6.76487">
        <ele>523.2</ele>
        <time>2010-01-01T00:00:00Z</time>
      </trkpt>
      <trkpt lat="48.01773" lon="6.76491">
        <ele>524.7</ele>
        <time>2010-01-01T00:00:00Z</time>
      </trkpt>
      <trkpt lat="48.01785" lon="6.76497">
        <ele>527.2</ele>
        <time>2010-01-01T00:00:00Z</time>
      </trkpt>
      <trkpt lat="48.01795" lon="6.76504">
        <ele>523.8</ele>
        <time>2010-01-01T00:00:00Z</time>
      </trkpt>
      <trkpt lat="48.01802" lon="6.76511">
        <ele>525</ele>
        <time>2010-01-01T00:00:00Z</time>
      </trkpt>
      <trkpt lat="48.01809" lon="6.7652">
        <ele>525.7</ele>
        <time>2010-01-01T00:00:00Z</time>
      </trkpt>
      <trkpt lat="48.01815" lon="6.76527">
        <ele>525.9</ele>
        <time>2010-01-01T00:00:00Z</time>
      </trkpt>
      <trkpt lat="48.01821" lon="6.76538">
        <ele>525.4</ele>
        <time>2010-01-01T00:00:00Z</time>
      </trkpt>
      <trkpt lat="48.01828" lon="6.76552">
        <ele>525.1</ele>
        <time>2010-01-01T00:00:00Z</time>
      </trkpt>
      <trkpt lat="48.01835" lon="6.76567">
        <ele>531.9</ele>
        <time>2010-01-01T00:00:00Z</time>
      </trkpt>
      <trkpt lat="48.01843" lon="6.76572">
        <ele>531.7</ele>
        <time>2010-01-01T00:00:00Z</time>
      </trkpt>
      <trkpt lat="48.0185" lon="6.76575">
        <ele>532.3</ele>
        <time>2010-01-01T00:00:00Z</time>
      </trkpt>
      <trkpt lat="48.01862" lon="6.76579">
        <ele>533.6</ele>
        <time>2010-01-01T00:00:00Z</time>
      </trkpt>
      <trkpt lat="48.01879" lon="6.76585">
        <ele>531.7</ele>
        <time>2010-01-01T00:00:00Z</time>
      </trkpt>
      <trkpt lat="48.01886" lon="6.76588">
        <ele>532.3</ele>
        <time>2010-01-01T00:00:00Z</time>
      </trkpt>
      <trkpt lat="48.01894" lon="6.76593">
        <ele>533</ele>
        <time>2010-01-01T00:00:00Z</time>
      </trkpt>
      <trkpt lat="48.01907" lon="6.76599">
        <ele>533.8</ele>
        <time>2010-01-01T00:00:00Z</time>
      </trkpt>
      <trkpt lat="48.01917" lon="6.76604">
        <ele>534.8</ele>
        <time>2010-01-01T00:00:00Z</time>
      </trkpt>
      <trkpt lat="48.01922" lon="6.76609">
        <ele>534.4</ele>
        <time>2010-01-01T00:00:00Z</time>
      </trkpt>
      <trkpt lat="48.01927" lon="6.76624">
        <ele>533.8</ele>
        <time>2010-01-01T00:00:00Z</time>
      </trkpt>
      <trkpt lat="48.01931" lon="6.76645">
        <ele>533.5</ele>
        <time>2010-01-01T00:00:00Z</time>
      </trkpt>
      <trkpt lat="48.01937" lon="6.76664">
        <ele>533.4</ele>
        <time>2010-01-01T00:00:00Z</time>
      </trkpt>
      <trkpt lat="48.0194" lon="6.76676">
        <ele>534.8</ele>
        <time>2010-01-01T00:00:00Z</time>
      </trkpt>
      <trkpt lat="48.01945" lon="6.76683">
        <ele>535.1</ele>
        <time>2010-01-01T00:00:00Z</time>
      </trkpt>
      <trkpt lat="48.01952" lon="6.76689">
        <ele>535.4</ele>
        <time>2010-01-01T00:00:00Z</time>
      </trkpt>
      <trkpt lat="48.01962" lon="6.76692">
        <ele>535.7</ele>
        <time>2010-01-01T00:00:00Z</time>
      </trkpt>
      <trkpt lat="48.01978" lon="6.76693">
        <ele>535.9</ele>
        <time>2010-01-01T00:00:00Z</time>
      </trkpt>
      <trkpt lat="48.01987" lon="6.76693">
        <ele>536</ele>
        <time>2010-01-01T00:00:00Z</time>
      </trkpt>
      <trkpt lat="48.01993" lon="6.76693">
        <ele>536</ele>
        <time>2010-01-01T00:00:00Z</time>
      </trkpt>
      <trkpt lat="48.01999" lon="6.76697">
        <ele>536.2</ele>
        <time>2010-01-01T00:00:00Z</time>
      </trkpt>
      <trkpt lat="48.02003" lon="6.76704">
        <ele>535.1</ele>
        <time>2010-01-01T00:00:00Z</time>
      </trkpt>
      <trkpt lat="48.02037" lon="6.76748">
        <ele>535.6</ele>
        <time>2010-01-01T00:00:00Z</time>
      </trkpt>
      <trkpt lat="48.02019" lon="6.76778">
        <ele>543.3</ele>
        <time>2010-01-01T00:00:00Z</time>
      </trkpt>
      <trkpt lat="48.02037" lon="6.76748">
        <ele>535.6</ele>
        <time>2010-01-01T00:00:00Z</time>
      </trkpt>
      <trkpt lat="48.02054" lon="6.7677">
        <ele>541.7</ele>
        <time>2010-01-01T00:00:00Z</time>
      </trkpt>
      <trkpt lat="48.02098" lon="6.76904">
        <ele>547.6</ele>
        <time>2010-01-01T00:00:00Z</time>
      </trkpt>
      <trkpt lat="48.02115" lon="6.76966">
        <ele>552.5</ele>
        <time>2010-01-01T00:00:00Z</time>
      </trkpt>
      <trkpt lat="48.02127" lon="6.7703">
        <ele>557.2</ele>
        <time>2010-01-01T00:00:00Z</time>
      </trkpt>
      <trkpt lat="48.02129" lon="6.7707">
        <ele>557.9</ele>
        <time>2010-01-01T00:00:00Z</time>
      </trkpt>
      <trkpt lat="48.02126" lon="6.77148">
        <ele>559</ele>
        <time>2010-01-01T00:00:00Z</time>
      </trkpt>
      <trkpt lat="48.02146" lon="6.77201">
        <ele>557.7</ele>
        <time>2010-01-01T00:00:00Z</time>
      </trkpt>
      <trkpt lat="48.02148" lon="6.77201">
        <ele>557.8</ele>
        <time>2010-01-01T00:00:00Z</time>
      </trkpt>
      <trkpt lat="48.02151" lon="6.77204">
        <ele>557.8</ele>
        <time>2010-01-01T00:00:00Z</time>
      </trkpt>
      <trkpt lat="48.02163" lon="6.77221">
        <ele>557.7</ele>
        <time>2010-01-01T00:00:00Z</time>
      </trkpt>
      <trkpt lat="48.0218" lon="6.77252">
        <ele>558.7</ele>
        <time>2010-01-01T00:00:00Z</time>
      </trkpt>
      <trkpt lat="48.02191" lon="6.77272">
        <ele>558.3</ele>
        <time>2010-01-01T00:00:00Z</time>
      </trkpt>
      <trkpt lat="48.02199" lon="6.77284">
        <ele>558.1</ele>
        <time>2010-01-01T00:00:00Z</time>
      </trkpt>
      <trkpt lat="48.02208" lon="6.77295">
        <ele>558.1</ele>
        <time>2010-01-01T00:00:00Z</time>
      </trkpt>
      <trkpt lat="48.02217" lon="6.77304">
        <ele>558.3</ele>
        <time>2010-01-01T00:00:00Z</time>
      </trkpt>
      <trkpt lat="48.02223" lon="6.77312">
        <ele>558.5</ele>
        <time>2010-01-01T00:00:00Z</time>
      </trkpt>
      <trkpt lat="48.02228" lon="6.7732">
        <ele>558.8</ele>
        <time>2010-01-01T00:00:00Z</time>
      </trkpt>
      <trkpt lat="48.02229" lon="6.77324">
        <ele>558.9</ele>
        <time>2010-01-01T00:00:00Z</time>
      </trkpt>
      <trkpt lat="48.02231" lon="6.7733">
        <ele>559.1</ele>
        <time>2010-01-01T00:00:00Z</time>
      </trkpt>
      <trkpt lat="48.02234" lon="6.77334">
        <ele>556.1</ele>
        <time>2010-01-01T00:00:00Z</time>
      </trkpt>
      <trkpt lat="48.02242" lon="6.77344">
        <ele>556.7</ele>
        <time>2010-01-01T00:00:00Z</time>
      </trkpt>
      <trkpt lat="48.02249" lon="6.77357">
        <ele>555</ele>
        <time>2010-01-01T00:00:00Z</time>
      </trkpt>
      <trkpt lat="48.02255" lon="6.77367">
        <ele>560.7</ele>
        <time>2010-01-01T00:00:00Z</time>
      </trkpt>
      <trkpt lat="48.02263" lon="6.77382">
        <ele>560.4</ele>
        <time>2010-01-01T00:00:00Z</time>
      </trkpt>
      <trkpt lat="48.02267" lon="6.77387">
        <ele>560.3</ele>
        <time>2010-01-01T00:00:00Z</time>
      </trkpt>
      <trkpt lat="48.02271" lon="6.77388">
        <ele>560.5</ele>
        <time>2010-01-01T00:00:00Z</time>
      </trkpt>
      <trkpt lat="48.02272" lon="6.77379">
        <ele>560.8</ele>
        <time>2010-01-01T00:00:00Z</time>
      </trkpt>
      <trkpt lat="48.02272" lon="6.77374">
        <ele>560.9</ele>
        <time>2010-01-01T00:00:00Z</time>
      </trkpt>
      <trkpt lat="48.02274" lon="6.77364">
        <ele>561.1</ele>
        <time>2010-01-01T00:00:00Z</time>
      </trkpt>
      <trkpt lat="48.02275" lon="6.77359">
        <ele>561.2</ele>
        <time>2010-01-01T00:00:00Z</time>
      </trkpt>
      <trkpt lat="48.02278" lon="6.77353">
        <ele>561.2</ele>
        <time>2010-01-01T00:00:00Z</time>
      </trkpt>
      <trkpt lat="48.02281" lon="6.77349">
        <ele>561.2</ele>
        <time>2010-01-01T00:00:00Z</time>
      </trkpt>
      <trkpt lat="48.02286" lon="6.77344">
        <ele>561.3</ele>
        <time>2010-01-01T00:00:00Z</time>
      </trkpt>
      <trkpt lat="48.02291" lon="6.77341">
        <ele>561.3</ele>
        <time>2010-01-01T00:00:00Z</time>
      </trkpt>
      <trkpt lat="48.02295" lon="6.7734">
        <ele>561.3</ele>
        <time>2010-01-01T00:00:00Z</time>
      </trkpt>
      <trkpt lat="48.02299" lon="6.7734">
        <ele>561.3</ele>
        <time>2010-01-01T00:00:00Z</time>
      </trkpt>
      <trkpt lat="48.023" lon="6.77337">
        <ele>561.3</ele>
        <time>2010-01-01T00:00:00Z</time>
      </trkpt>
      <trkpt lat="48.02303" lon="6.77336">
        <ele>561.3</ele>
        <time>2010-01-01T00:00:00Z</time>
      </trkpt>
      <trkpt lat="48.02308" lon="6.77334">
        <ele>561.2</ele>
        <time>2010-01-01T00:00:00Z</time>
      </trkpt>
      <trkpt lat="48.02316" lon="6.77334">
        <ele>561</ele>
        <time>2010-01-01T00:00:00Z</time>
      </trkpt>
      <trkpt lat="48.02328" lon="6.77335">
        <ele>560.5</ele>
        <time>2010-01-01T00:00:00Z</time>
      </trkpt>
      <trkpt lat="48.02339" lon="6.77339">
        <ele>559.2</ele>
        <time>2010-01-01T00:00:00Z</time>
      </trkpt>
      <trkpt lat="48.02353" lon="6.77345">
        <ele>557.9</ele>
        <time>2010-01-01T00:00:00Z</time>
      </trkpt>
      <trkpt lat="48.02369" lon="6.77351">
        <ele>556.3</ele>
        <time>2010-01-01T00:00:00Z</time>
      </trkpt>
      <trkpt lat="48.02381" lon="6.77356">
        <ele>555.1</ele>
        <time>2010-01-01T00:00:00Z</time>
      </trkpt>
      <trkpt lat="48.02391" lon="6.77361">
        <ele>554.2</ele>
        <time>2010-01-01T00:00:00Z</time>
      </trkpt>
      <trkpt lat="48.02401" lon="6.77367">
        <ele>553.8</ele>
        <time>2010-01-01T00:00:00Z</time>
      </trkpt>
      <trkpt lat="48.02411" lon="6.77375">
        <ele>554</ele>
        <time>2010-01-01T00:00:00Z</time>
      </trkpt>
      <trkpt lat="48.02424" lon="6.7739">
        <ele>542.9</ele>
        <time>2010-01-01T00:00:00Z</time>
      </trkpt>
      <trkpt lat="48.02437" lon="6.77405">
        <ele>543.2</ele>
        <time>2010-01-01T00:00:00Z</time>
      </trkpt>
      <trkpt lat="48.02449" lon="6.77414">
        <ele>540.6</ele>
        <time>2010-01-01T00:00:00Z</time>
      </trkpt>
      <trkpt lat="48.02464" lon="6.77425">
        <ele>545.3</ele>
        <time>2010-01-01T00:00:00Z</time>
      </trkpt>
      <trkpt lat="48.02476" lon="6.77437">
        <ele>543.6</ele>
        <time>2010-01-01T00:00:00Z</time>
      </trkpt>
      <trkpt lat="48.02486" lon="6.77448">
        <ele>543.7</ele>
        <time>2010-01-01T00:00:00Z</time>
      </trkpt>
      <trkpt lat="48.02498" lon="6.77461">
        <ele>544.6</ele>
        <time>2010-01-01T00:00:00Z</time>
      </trkpt>
      <trkpt lat="48.0251" lon="6.77476">
        <ele>532.6</ele>
        <time>2010-01-01T00:00:00Z</time>
      </trkpt>
      <trkpt lat="48.02516" lon="6.77484">
        <ele>533.3</ele>
        <time>2010-01-01T00:00:00Z</time>
      </trkpt>
      <trkpt lat="48.02523" lon="6.77494">
        <ele>533</ele>
        <time>2010-01-01T00:00:00Z</time>
      </trkpt>
      <trkpt lat="48.02528" lon="6.77502">
        <ele>539.5</ele>
        <time>2010-01-01T00:00:00Z</time>
      </trkpt>
      <trkpt lat="48.02547" lon="6.77525">
        <ele>537.6</ele>
        <time>2010-01-01T00:00:00Z</time>
      </trkpt>
      <trkpt lat="48.02542" lon="6.77531">
        <ele>538.8</ele>
        <time>2010-01-01T00:00:00Z</time>
      </trkpt>
      <trkpt lat="48.02546" lon="6.77537">
        <ele>538.7</ele>
        <time>2010-01-01T00:00:00Z</time>
      </trkpt>
      <trkpt lat="48.02552" lon="6.7755">
        <ele>538.7</ele>
        <time>2010-01-01T00:00:00Z</time>
      </trkpt>
      <trkpt lat="48.0256" lon="6.7756">
        <ele>537.6</ele>
        <time>2010-01-01T00:00:00Z</time>
      </trkpt>
      <trkpt lat="48.02565" lon="6.77562">
        <ele>536.8</ele>
        <time>2010-01-01T00:00:00Z</time>
      </trkpt>
      <trkpt lat="48.02569" lon="6.77562">
        <ele>536.1</ele>
        <time>2010-01-01T00:00:00Z</time>
      </trkpt>
      <trkpt lat="48.02571" lon="6.7756">
        <ele>536</ele>
        <time>2010-01-01T00:00:00Z</time>
      </trkpt>
      <trkpt lat="48.02576" lon="6.77553">
        <ele>535.6</ele>
        <time>2010-01-01T00:00:00Z</time>
      </trkpt>
      <trkpt lat="48.02577" lon="6.77548">
        <ele>535.4</ele>
        <time>2010-01-01T00:00:00Z</time>
      </trkpt>
      <trkpt lat="48.02577" lon="6.77544">
        <ele>535.3</ele>
        <time>2010-01-01T00:00:00Z</time>
      </trkpt>
      <trkpt lat="48.02576" lon="6.7754">
        <ele>535.1</ele>
        <time>2010-01-01T00:00:00Z</time>
      </trkpt>
      <trkpt lat="48.0257" lon="6.77509">
        <ele>530.7</ele>
        <time>2010-01-01T00:00:00Z</time>
      </trkpt>
      <trkpt lat="48.02565" lon="6.7748">
        <ele>525.7</ele>
        <time>2010-01-01T00:00:00Z</time>
      </trkpt>
      <trkpt lat="48.02563" lon="6.77468">
        <ele>525.6</ele>
        <time>2010-01-01T00:00:00Z</time>
      </trkpt>
      <trkpt lat="48.02561" lon="6.77457">
        <ele>525</ele>
        <time>2010-01-01T00:00:00Z</time>
      </trkpt>
      <trkpt lat="48.02559" lon="6.77442">
        <ele>523.9</ele>
        <time>2010-01-01T00:00:00Z</time>
      </trkpt>
      <trkpt lat="48.02555" lon="6.77422">
        <ele>522.8</ele>
        <time>2010-01-01T00:00:00Z</time>
      </trkpt>
      <trkpt lat="48.02554" lon="6.7741">
        <ele>516.6</ele>
        <time>2010-01-01T00:00:00Z</time>
      </trkpt>
      <trkpt lat="48.02554" lon="6.77399">
        <ele>516.4</ele>
        <time>2010-01-01T00:00:00Z</time>
      </trkpt>
      <trkpt lat="48.02553" lon="6.7738">
        <ele>515.7</ele>
        <time>2010-01-01T00:00:00Z</time>
      </trkpt>
      <trkpt lat="48.02553" lon="6.77366">
        <ele>514.7</ele>
        <time>2010-01-01T00:00:00Z</time>
      </trkpt>
      <trkpt lat="48.02553" lon="6.77358">
        <ele>514.1</ele>
        <time>2010-01-01T00:00:00Z</time>
      </trkpt>
      <trkpt lat="48.02552" lon="6.7735">
        <ele>513.6</ele>
        <time>2010-01-01T00:00:00Z</time>
      </trkpt>
      <trkpt lat="48.02551" lon="6.77343">
        <ele>513.4</ele>
        <time>2010-01-01T00:00:00Z</time>
      </trkpt>
      <trkpt lat="48.02548" lon="6.77332">
        <ele>508.1</ele>
        <time>2010-01-01T00:00:00Z</time>
      </trkpt>
      <trkpt lat="48.02546" lon="6.77325">
        <ele>508.3</ele>
        <time>2010-01-01T00:00:00Z</time>
      </trkpt>
      <trkpt lat="48.02545" lon="6.77321">
        <ele>508.4</ele>
        <time>2010-01-01T00:00:00Z</time>
      </trkpt>
      <trkpt lat="48.02538" lon="6.773">
        <ele>508.4</ele>
        <time>2010-01-01T00:00:00Z</time>
      </trkpt>
      <trkpt lat="48.02532" lon="6.77277">
        <ele>507.8</ele>
        <time>2010-01-01T00:00:00Z</time>
      </trkpt>
      <trkpt lat="48.02528" lon="6.77266">
        <ele>507.9</ele>
        <time>2010-01-01T00:00:00Z</time>
      </trkpt>
      <trkpt lat="48.0254" lon="6.77289">
        <ele>507.5</ele>
        <time>2010-01-01T00:00:00Z</time>
      </trkpt>
      <trkpt lat="48.02545" lon="6.77306">
        <ele>507.8</ele>
        <time>2010-01-01T00:00:00Z</time>
      </trkpt>
      <trkpt lat="48.02548" lon="6.77316">
        <ele>507.8</ele>
        <time>2010-01-01T00:00:00Z</time>
      </trkpt>
      <trkpt lat="48.02552" lon="6.77326">
        <ele>507.4</ele>
        <time>2010-01-01T00:00:00Z</time>
      </trkpt>
      <trkpt lat="48.02557" lon="6.77333">
        <ele>506.7</ele>
        <time>2010-01-01T00:00:00Z</time>
      </trkpt>
      <trkpt lat="48.0257" lon="6.77361">
        <ele>512.3</ele>
        <time>2010-01-01T00:00:00Z</time>
      </trkpt>
      <trkpt lat="48.02586" lon="6.77391">
        <ele>508.5</ele>
        <time>2010-01-01T00:00:00Z</time>
      </trkpt>
      <trkpt lat="48.02602" lon="6.77421">
        <ele>513.3</ele>
        <time>2010-01-01T00:00:00Z</time>
      </trkpt>
      <trkpt lat="48.02617" lon="6.77446">
        <ele>513</ele>
        <time>2010-01-01T00:00:00Z</time>
      </trkpt>
      <trkpt lat="48.0263" lon="6.77467">
        <ele>513</ele>
        <time>2010-01-01T00:00:00Z</time>
      </trkpt>
      <trkpt lat="48.02649" lon="6.77488">
        <ele>512</ele>
        <time>2010-01-01T00:00:00Z</time>
      </trkpt>
      <trkpt lat="48.0266" lon="6.77505">
        <ele>512.8</ele>
        <time>2010-01-01T00:00:00Z</time>
      </trkpt>
      <trkpt lat="48.02665" lon="6.77514">
        <ele>514</ele>
        <time>2010-01-01T00:00:00Z</time>
      </trkpt>
      <trkpt lat="48.02674" lon="6.77531">
        <ele>510.8</ele>
        <time>2010-01-01T00:00:00Z</time>
      </trkpt>
      <trkpt lat="48.0268" lon="6.77547">
        <ele>511.3</ele>
        <time>2010-01-01T00:00:00Z</time>
      </trkpt>
      <trkpt lat="48.02686" lon="6.77561">
        <ele>511.7</ele>
        <time>2010-01-01T00:00:00Z</time>
      </trkpt>
      <trkpt lat="48.0269" lon="6.77572">
        <ele>511.9</ele>
        <time>2010-01-01T00:00:00Z</time>
      </trkpt>
      <trkpt lat="48.02691" lon="6.77573">
        <ele>511.8</ele>
        <time>2010-01-01T00:00:00Z</time>
      </trkpt>
      <trkpt lat="48.02697" lon="6.77574">
        <ele>511.3</ele>
        <time>2010-01-01T00:00:00Z</time>
      </trkpt>
      <trkpt lat="48.02702" lon="6.77578">
        <ele>510.9</ele>
        <time>2010-01-01T00:00:00Z</time>
      </trkpt>
      <trkpt lat="48.02706" lon="6.77584">
        <ele>512.6</ele>
        <time>2010-01-01T00:00:00Z</time>
      </trkpt>
      <trkpt lat="48.02712" lon="6.77599">
        <ele>512.3</ele>
        <time>2010-01-01T00:00:00Z</time>
      </trkpt>
      <trkpt lat="48.02718" lon="6.77611">
        <ele>512.2</ele>
        <time>2010-01-01T00:00:00Z</time>
      </trkpt>
      <trkpt lat="48.02724" lon="6.77622">
        <ele>512.2</ele>
        <time>2010-01-01T00:00:00Z</time>
      </trkpt>
      <trkpt lat="48.02731" lon="6.77634">
        <ele>512.1</ele>
        <time>2010-01-01T00:00:00Z</time>
      </trkpt>
      <trkpt lat="48.02739" lon="6.77644">
        <ele>511.6</ele>
        <time>2010-01-01T00:00:00Z</time>
      </trkpt>
      <trkpt lat="48.02747" lon="6.77654">
        <ele>510.7</ele>
        <time>2010-01-01T00:00:00Z</time>
      </trkpt>
      <trkpt lat="48.02756" lon="6.77665">
        <ele>509.7</ele>
        <time>2010-01-01T00:00:00Z</time>
      </trkpt>
      <trkpt lat="48.02764" lon="6.77676">
        <ele>511.4</ele>
        <time>2010-01-01T00:00:00Z</time>
      </trkpt>
      <trkpt lat="48.02772" lon="6.77686">
        <ele>512.4</ele>
        <time>2010-01-01T00:00:00Z</time>
      </trkpt>
      <trkpt lat="48.0278" lon="6.77696">
        <ele>513.1</ele>
        <time>2010-01-01T00:00:00Z</time>
      </trkpt>
      <trkpt lat="48.02787" lon="6.77705">
        <ele>513.5</ele>
        <time>2010-01-01T00:00:00Z</time>
      </trkpt>
      <trkpt lat="48.0279" lon="6.77713">
        <ele>513.8</ele>
        <time>2010-01-01T00:00:00Z</time>
      </trkpt>
      <trkpt lat="48.02793" lon="6.77721">
        <ele>514</ele>
        <time>2010-01-01T00:00:00Z</time>
      </trkpt>
      <trkpt lat="48.02797" lon="6.77722">
        <ele>514.1</ele>
        <time>2010-01-01T00:00:00Z</time>
      </trkpt>
      <trkpt lat="48.02802" lon="6.77722">
        <ele>514.3</ele>
        <time>2010-01-01T00:00:00Z</time>
      </trkpt>
      <trkpt lat="48.02806" lon="6.7772">
        <ele>514.4</ele>
        <time>2010-01-01T00:00:00Z</time>
      </trkpt>
      <trkpt lat="48.02811" lon="6.77717">
        <ele>514.5</ele>
        <time>2010-01-01T00:00:00Z</time>
      </trkpt>
      <trkpt lat="48.02814" lon="6.77719">
        <ele>514.6</ele>
        <time>2010-01-01T00:00:00Z</time>
      </trkpt>
      <trkpt lat="48.02813" lon="6.77735">
        <ele>515</ele>
        <time>2010-01-01T00:00:00Z</time>
      </trkpt>
      <trkpt lat="48.02812" lon="6.77746">
        <ele>515.1</ele>
        <time>2010-01-01T00:00:00Z</time>
      </trkpt>
      <trkpt lat="48.02813" lon="6.77754">
        <ele>516.9</ele>
        <time>2010-01-01T00:00:00Z</time>
      </trkpt>
      <trkpt lat="48.02814" lon="6.77763">
        <ele>517</ele>
        <time>2010-01-01T00:00:00Z</time>
      </trkpt>
      <trkpt lat="48.02817" lon="6.7777">
        <ele>517</ele>
        <time>2010-01-01T00:00:00Z</time>
      </trkpt>
      <trkpt lat="48.02824" lon="6.77783">
        <ele>517.1</ele>
        <time>2010-01-01T00:00:00Z</time>
      </trkpt>
      <trkpt lat="48.02839" lon="6.77806">
        <ele>524.2</ele>
        <time>2010-01-01T00:00:00Z</time>
      </trkpt>
      <trkpt lat="48.02844" lon="6.7781">
        <ele>524.2</ele>
        <time>2010-01-01T00:00:00Z</time>
      </trkpt>
      <trkpt lat="48.02848" lon="6.7781">
        <ele>524.8</ele>
        <time>2010-01-01T00:00:00Z</time>
      </trkpt>
      <trkpt lat="48.02851" lon="6.77809">
        <ele>525.3</ele>
        <time>2010-01-01T00:00:00Z</time>
      </trkpt>
      <trkpt lat="48.02853" lon="6.77806">
        <ele>525.9</ele>
        <time>2010-01-01T00:00:00Z</time>
      </trkpt>
      <trkpt lat="48.02857" lon="6.77793">
        <ele>527</ele>
        <time>2010-01-01T00:00:00Z</time>
      </trkpt>
      <trkpt lat="48.02859" lon="6.77784">
        <ele>527.3</ele>
        <time>2010-01-01T00:00:00Z</time>
      </trkpt>
      <trkpt lat="48.02862" lon="6.77769">
        <ele>527.4</ele>
        <time>2010-01-01T00:00:00Z</time>
      </trkpt>
      <trkpt lat="48.02866" lon="6.77758">
        <ele>528</ele>
        <time>2010-01-01T00:00:00Z</time>
      </trkpt>
      <trkpt lat="48.0287" lon="6.7775">
        <ele>530.2</ele>
        <time>2010-01-01T00:00:00Z</time>
      </trkpt>
      <trkpt lat="48.02873" lon="6.77744">
        <ele>531</ele>
        <time>2010-01-01T00:00:00Z</time>
      </trkpt>
      <trkpt lat="48.02877" lon="6.77762">
        <ele>530.6</ele>
        <time>2010-01-01T00:00:00Z</time>
      </trkpt>
      <trkpt lat="48.02881" lon="6.77784">
        <ele>530.9</ele>
        <time>2010-01-01T00:00:00Z</time>
      </trkpt>
      <trkpt lat="48.02885" lon="6.77808">
        <ele>531.3</ele>
        <time>2010-01-01T00:00:00Z</time>
      </trkpt>
      <trkpt lat="48.02892" lon="6.77847">
        <ele>532.2</ele>
        <time>2010-01-01T00:00:00Z</time>
      </trkpt>
      <trkpt lat="48.029" lon="6.77885">
        <ele>532.1</ele>
        <time>2010-01-01T00:00:00Z</time>
      </trkpt>
      <trkpt lat="48.02907" lon="6.77915">
        <ele>535.8</ele>
        <time>2010-01-01T00:00:00Z</time>
      </trkpt>
      <trkpt lat="48.02913" lon="6.77942">
        <ele>534.5</ele>
        <time>2010-01-01T00:00:00Z</time>
      </trkpt>
      <trkpt lat="48.0292" lon="6.77968">
        <ele>546.5</ele>
        <time>2010-01-01T00:00:00Z</time>
      </trkpt>
      <trkpt lat="48.02923" lon="6.77987">
        <ele>543.8</ele>
        <time>2010-01-01T00:00:00Z</time>
      </trkpt>
      <trkpt lat="48.02927" lon="6.78014">
        <ele>543.9</ele>
        <time>2010-01-01T00:00:00Z</time>
      </trkpt>
      <trkpt lat="48.02932" lon="6.78048">
        <ele>546.3</ele>
        <time>2010-01-01T00:00:00Z</time>
      </trkpt>
      <trkpt lat="48.02937" lon="6.78077">
        <ele>544.8</ele>
        <time>2010-01-01T00:00:00Z</time>
      </trkpt>
      <trkpt lat="48.02943" lon="6.781">
        <ele>545.5</ele>
        <time>2010-01-01T00:00:00Z</time>
      </trkpt>
      <trkpt lat="48.02949" lon="6.78122">
        <ele>546.8</ele>
        <time>2010-01-01T00:00:00Z</time>
      </trkpt>
      <trkpt lat="48.02953" lon="6.78116">
        <ele>547.3</ele>
        <time>2010-01-01T00:00:00Z</time>
      </trkpt>
      <trkpt lat="48.02955" lon="6.78106">
        <ele>547.7</ele>
        <time>2010-01-01T00:00:00Z</time>
      </trkpt>
      <trkpt lat="48.02957" lon="6.78077">
        <ele>549.4</ele>
        <time>2010-01-01T00:00:00Z</time>
      </trkpt>
      <trkpt lat="48.02958" lon="6.78063">
        <ele>549.7</ele>
        <time>2010-01-01T00:00:00Z</time>
      </trkpt>
      <trkpt lat="48.0296" lon="6.78058">
        <ele>550.1</ele>
        <time>2010-01-01T00:00:00Z</time>
      </trkpt>
      <trkpt lat="48.02961" lon="6.78056">
        <ele>550.3</ele>
        <time>2010-01-01T00:00:00Z</time>
      </trkpt>
      <trkpt lat="48.02963" lon="6.78054">
        <ele>550.6</ele>
        <time>2010-01-01T00:00:00Z</time>
      </trkpt>
      <trkpt lat="48.02968" lon="6.78052">
        <ele>551.4</ele>
        <time>2010-01-01T00:00:00Z</time>
      </trkpt>
      <trkpt lat="48.02973" lon="6.78054">
        <ele>552.1</ele>
        <time>2010-01-01T00:00:00Z</time>
      </trkpt>
      <trkpt lat="48.02979" lon="6.78062">
        <ele>553.3</ele>
        <time>2010-01-01T00:00:00Z</time>
      </trkpt>
      <trkpt lat="48.02995" lon="6.78084">
        <ele>558.6</ele>
        <time>2010-01-01T00:00:00Z</time>
      </trkpt>
      <trkpt lat="48.03006" lon="6.781">
        <ele>568.3</ele>
        <time>2010-01-01T00:00:00Z</time>
      </trkpt>
      <trkpt lat="48.03017" lon="6.78123">
        <ele>571.8</ele>
        <time>2010-01-01T00:00:00Z</time>
      </trkpt>
      <trkpt lat="48.03025" lon="6.78139">
        <ele>572.3</ele>
        <time>2010-01-01T00:00:00Z</time>
      </trkpt>
      <trkpt lat="48.03034" lon="6.78156">
        <ele>573.4</ele>
        <time>2010-01-01T00:00:00Z</time>
      </trkpt>
      <trkpt lat="48.03039" lon="6.78167">
        <ele>572</ele>
        <time>2010-01-01T00:00:00Z</time>
      </trkpt>
      <trkpt lat="48.0304" lon="6.78173">
        <ele>572.2</ele>
        <time>2010-01-01T00:00:00Z</time>
      </trkpt>
      <trkpt lat="48.03043" lon="6.78169">
        <ele>573.1</ele>
        <time>2010-01-01T00:00:00Z</time>
      </trkpt>
      <trkpt lat="48.03045" lon="6.78162">
        <ele>576.4</ele>
        <time>2010-01-01T00:00:00Z</time>
      </trkpt>
      <trkpt lat="48.03047" lon="6.78156">
        <ele>577</ele>
        <time>2010-01-01T00:00:00Z</time>
      </trkpt>
      <trkpt lat="48.03048" lon="6.78148">
        <ele>577.2</ele>
        <time>2010-01-01T00:00:00Z</time>
      </trkpt>
      <trkpt lat="48.03049" lon="6.78134">
        <ele>577.5</ele>
        <time>2010-01-01T00:00:00Z</time>
      </trkpt>
      <trkpt lat="48.03052" lon="6.78095">
        <ele>580</ele>
        <time>2010-01-01T00:00:00Z</time>
      </trkpt>
      <trkpt lat="48.03054" lon="6.78076">
        <ele>583.4</ele>
        <time>2010-01-01T00:00:00Z</time>
      </trkpt>
      <trkpt lat="48.03055" lon="6.78059">
        <ele>583.1</ele>
        <time>2010-01-01T00:00:00Z</time>
      </trkpt>
      <trkpt lat="48.03055" lon="6.78049">
        <ele>582.9</ele>
        <time>2010-01-01T00:00:00Z</time>
      </trkpt>
      <trkpt lat="48.03054" lon="6.78044">
        <ele>582.8</ele>
        <time>2010-01-01T00:00:00Z</time>
      </trkpt>
      <trkpt lat="48.03054" lon="6.78035">
        <ele>583</ele>
        <time>2010-01-01T00:00:00Z</time>
      </trkpt>
      <trkpt lat="48.03054" lon="6.78026">
        <ele>583.6</ele>
        <time>2010-01-01T00:00:00Z</time>
      </trkpt>
      <trkpt lat="48.03055" lon="6.78017">
        <ele>584.5</ele>
        <time>2010-01-01T00:00:00Z</time>
      </trkpt>
      <trkpt lat="48.03058" lon="6.78009">
        <ele>586.1</ele>
        <time>2010-01-01T00:00:00Z</time>
      </trkpt>
      <trkpt lat="48.03062" lon="6.77998">
        <ele>589.3</ele>
        <time>2010-01-01T00:00:00Z</time>
      </trkpt>
      <trkpt lat="48.03066" lon="6.77973">
        <ele>588.1</ele>
        <time>2010-01-01T00:00:00Z</time>
      </trkpt>
      <trkpt lat="48.0307" lon="6.77947">
        <ele>588.7</ele>
        <time>2010-01-01T00:00:00Z</time>
      </trkpt>
      <trkpt lat="48.03066" lon="6.77973">
        <ele>588.1</ele>
        <time>2010-01-01T00:00:00Z</time>
      </trkpt>
      <trkpt lat="48.03062" lon="6.77998">
        <ele>589.3</ele>
        <time>2010-01-01T00:00:00Z</time>
      </trkpt>
      <trkpt lat="48.03058" lon="6.78009">
        <ele>586.1</ele>
        <time>2010-01-01T00:00:00Z</time>
      </trkpt>
      <trkpt lat="48.03055" lon="6.78017">
        <ele>584.5</ele>
        <time>2010-01-01T00:00:00Z</time>
      </trkpt>
      <trkpt lat="48.03054" lon="6.78026">
        <ele>583.6</ele>
        <time>2010-01-01T00:00:00Z</time>
      </trkpt>
      <trkpt lat="48.03054" lon="6.78035">
        <ele>583</ele>
        <time>2010-01-01T00:00:00Z</time>
      </trkpt>
      <trkpt lat="48.03054" lon="6.78044">
        <ele>582.8</ele>
        <time>2010-01-01T00:00:00Z</time>
      </trkpt>
      <trkpt lat="48.03055" lon="6.78049">
        <ele>582.9</ele>
        <time>2010-01-01T00:00:00Z</time>
      </trkpt>
      <trkpt lat="48.03055" lon="6.78059">
        <ele>583.1</ele>
        <time>2010-01-01T00:00:00Z</time>
      </trkpt>
      <trkpt lat="48.03054" lon="6.78076">
        <ele>583.4</ele>
        <time>2010-01-01T00:00:00Z</time>
      </trkpt>
      <trkpt lat="48.03052" lon="6.78095">
        <ele>580</ele>
        <time>2010-01-01T00:00:00Z</time>
      </trkpt>
      <trkpt lat="48.03049" lon="6.78134">
        <ele>577.5</ele>
        <time>2010-01-01T00:00:00Z</time>
      </trkpt>
      <trkpt lat="48.03048" lon="6.78148">
        <ele>577.2</ele>
        <time>2010-01-01T00:00:00Z</time>
      </trkpt>
      <trkpt lat="48.03047" lon="6.78156">
        <ele>577</ele>
        <time>2010-01-01T00:00:00Z</time>
      </trkpt>
      <trkpt lat="48.03045" lon="6.78162">
        <ele>576.4</ele>
        <time>2010-01-01T00:00:00Z</time>
      </trkpt>
      <trkpt lat="48.03043" lon="6.78169">
        <ele>573.1</ele>
        <time>2010-01-01T00:00:00Z</time>
      </trkpt>
      <trkpt lat="48.0304" lon="6.78173">
        <ele>572.2</ele>
        <time>2010-01-01T00:00:00Z</time>
      </trkpt>
      <trkpt lat="48.03039" lon="6.78167">
        <ele>572</ele>
        <time>2010-01-01T00:00:00Z</time>
      </trkpt>
      <trkpt lat="48.03034" lon="6.78156">
        <ele>573.4</ele>
        <time>2010-01-01T00:00:00Z</time>
      </trkpt>
      <trkpt lat="48.03025" lon="6.78139">
        <ele>572.3</ele>
        <time>2010-01-01T00:00:00Z</time>
      </trkpt>
      <trkpt lat="48.03017" lon="6.78123">
        <ele>571.8</ele>
        <time>2010-01-01T00:00:00Z</time>
      </trkpt>
      <trkpt lat="48.03006" lon="6.781">
        <ele>568.3</ele>
        <time>2010-01-01T00:00:00Z</time>
      </trkpt>
      <trkpt lat="48.02995" lon="6.78084">
        <ele>558.6</ele>
        <time>2010-01-01T00:00:00Z</time>
      </trkpt>
      <trkpt lat="48.02979" lon="6.78062">
        <ele>553.3</ele>
        <time>2010-01-01T00:00:00Z</time>
      </trkpt>
      <trkpt lat="48.02973" lon="6.78054">
        <ele>552.1</ele>
        <time>2010-01-01T00:00:00Z</time>
      </trkpt>
      <trkpt lat="48.02968" lon="6.78052">
        <ele>551.4</ele>
        <time>2010-01-01T00:00:00Z</time>
      </trkpt>
      <trkpt lat="48.02963" lon="6.78054">
        <ele>550.6</ele>
        <time>2010-01-01T00:00:00Z</time>
      </trkpt>
      <trkpt lat="48.02961" lon="6.78056">
        <ele>550.3</ele>
        <time>2010-01-01T00:00:00Z</time>
      </trkpt>
      <trkpt lat="48.0296" lon="6.78058">
        <ele>550.1</ele>
        <time>2010-01-01T00:00:00Z</time>
      </trkpt>
      <trkpt lat="48.02958" lon="6.78063">
        <ele>549.7</ele>
        <time>2010-01-01T00:00:00Z</time>
      </trkpt>
      <trkpt lat="48.02957" lon="6.78077">
        <ele>549.4</ele>
        <time>2010-01-01T00:00:00Z</time>
      </trkpt>
      <trkpt lat="48.02955" lon="6.78106">
        <ele>547.7</ele>
        <time>2010-01-01T00:00:00Z</time>
      </trkpt>
      <trkpt lat="48.02953" lon="6.78116">
        <ele>547.3</ele>
        <time>2010-01-01T00:00:00Z</time>
      </trkpt>
      <trkpt lat="48.02949" lon="6.78122">
        <ele>546.8</ele>
        <time>2010-01-01T00:00:00Z</time>
      </trkpt>
      <trkpt lat="48.02943" lon="6.781">
        <ele>545.5</ele>
        <time>2010-01-01T00:00:00Z</time>
      </trkpt>
      <trkpt lat="48.02937" lon="6.78077">
        <ele>544.8</ele>
        <time>2010-01-01T00:00:00Z</time>
      </trkpt>
      <trkpt lat="48.02932" lon="6.78048">
        <ele>546.3</ele>
        <time>2010-01-01T00:00:00Z</time>
      </trkpt>
      <trkpt lat="48.02927" lon="6.78014">
        <ele>543.9</ele>
        <time>2010-01-01T00:00:00Z</time>
      </trkpt>
      <trkpt lat="48.02923" lon="6.77987">
        <ele>543.8</ele>
        <time>2010-01-01T00:00:00Z</time>
      </trkpt>
      <trkpt lat="48.0292" lon="6.77968">
        <ele>546.5</ele>
        <time>2010-01-01T00:00:00Z</time>
      </trkpt>
      <trkpt lat="48.02913" lon="6.77942">
        <ele>534.5</ele>
        <time>2010-01-01T00:00:00Z</time>
      </trkpt>
      <trkpt lat="48.02907" lon="6.77915">
        <ele>535.8</ele>
        <time>2010-01-01T00:00:00Z</time>
      </trkpt>
      <trkpt lat="48.02902" lon="6.77892">
        <ele>532.7</ele>
        <time>2010-01-01T00:00:00Z</time>
      </trkpt>
      <trkpt lat="48.02902" lon="6.77892">
        <ele>532.7</ele>
        <time>2010-01-01T00:00:00Z</time>
      </trkpt>
      <trkpt lat="48.02907" lon="6.77915">
        <ele>535.8</ele>
        <time>2010-01-01T00:00:00Z</time>
      </trkpt>
      <trkpt lat="48.02913" lon="6.77942">
        <ele>534.5</ele>
        <time>2010-01-01T00:00:00Z</time>
      </trkpt>
      <trkpt lat="48.0292" lon="6.77968">
        <ele>546.5</ele>
        <time>2010-01-01T00:00:00Z</time>
      </trkpt>
      <trkpt lat="48.02923" lon="6.77987">
        <ele>543.8</ele>
        <time>2010-01-01T00:00:00Z</time>
      </trkpt>
      <trkpt lat="48.02927" lon="6.78014">
        <ele>543.9</ele>
        <time>2010-01-01T00:00:00Z</time>
      </trkpt>
      <trkpt lat="48.02932" lon="6.78048">
        <ele>546.3</ele>
        <time>2010-01-01T00:00:00Z</time>
      </trkpt>
      <trkpt lat="48.02937" lon="6.78077">
        <ele>544.8</ele>
        <time>2010-01-01T00:00:00Z</time>
      </trkpt>
      <trkpt lat="48.02943" lon="6.781">
        <ele>545.5</ele>
        <time>2010-01-01T00:00:00Z</time>
      </trkpt>
      <trkpt lat="48.02949" lon="6.78122">
        <ele>546.8</ele>
        <time>2010-01-01T00:00:00Z</time>
      </trkpt>
      <trkpt lat="48.02953" lon="6.78116">
        <ele>547.3</ele>
        <time>2010-01-01T00:00:00Z</time>
      </trkpt>
      <trkpt lat="48.02955" lon="6.78106">
        <ele>547.7</ele>
        <time>2010-01-01T00:00:00Z</time>
      </trkpt>
      <trkpt lat="48.02957" lon="6.78077">
        <ele>549.4</ele>
        <time>2010-01-01T00:00:00Z</time>
      </trkpt>
      <trkpt lat="48.02958" lon="6.78063">
        <ele>549.7</ele>
        <time>2010-01-01T00:00:00Z</time>
      </trkpt>
      <trkpt lat="48.0296" lon="6.78058">
        <ele>550.1</ele>
        <time>2010-01-01T00:00:00Z</time>
      </trkpt>
      <trkpt lat="48.02961" lon="6.78056">
        <ele>550.3</ele>
        <time>2010-01-01T00:00:00Z</time>
      </trkpt>
      <trkpt lat="48.02963" lon="6.78054">
        <ele>550.6</ele>
        <time>2010-01-01T00:00:00Z</time>
      </trkpt>
      <trkpt lat="48.02968" lon="6.78052">
        <ele>551.4</ele>
        <time>2010-01-01T00:00:00Z</time>
      </trkpt>
      <trkpt lat="48.02973" lon="6.78054">
        <ele>552.1</ele>
        <time>2010-01-01T00:00:00Z</time>
      </trkpt>
      <trkpt lat="48.02979" lon="6.78062">
        <ele>553.3</ele>
        <time>2010-01-01T00:00:00Z</time>
      </trkpt>
      <trkpt lat="48.02995" lon="6.78084">
        <ele>558.6</ele>
        <time>2010-01-01T00:00:00Z</time>
      </trkpt>
      <trkpt lat="48.03006" lon="6.781">
        <ele>568.3</ele>
        <time>2010-01-01T00:00:00Z</time>
      </trkpt>
      <trkpt lat="48.03017" lon="6.78123">
        <ele>571.8</ele>
        <time>2010-01-01T00:00:00Z</time>
      </trkpt>
      <trkpt lat="48.03025" lon="6.78139">
        <ele>572.3</ele>
        <time>2010-01-01T00:00:00Z</time>
      </trkpt>
      <trkpt lat="48.03034" lon="6.78156">
        <ele>573.4</ele>
        <time>2010-01-01T00:00:00Z</time>
      </trkpt>
      <trkpt lat="48.03039" lon="6.78167">
        <ele>572</ele>
        <time>2010-01-01T00:00:00Z</time>
      </trkpt>
      <trkpt lat="48.0304" lon="6.78173">
        <ele>572.2</ele>
        <time>2010-01-01T00:00:00Z</time>
      </trkpt>
      <trkpt lat="48.03043" lon="6.78169">
        <ele>573.1</ele>
        <time>2010-01-01T00:00:00Z</time>
      </trkpt>
      <trkpt lat="48.03045" lon="6.78162">
        <ele>576.4</ele>
        <time>2010-01-01T00:00:00Z</time>
      </trkpt>
      <trkpt lat="48.03047" lon="6.78156">
        <ele>577</ele>
        <time>2010-01-01T00:00:00Z</time>
      </trkpt>
      <trkpt lat="48.03048" lon="6.78148">
        <ele>577.2</ele>
        <time>2010-01-01T00:00:00Z</time>
      </trkpt>
      <trkpt lat="48.03049" lon="6.78134">
        <ele>577.5</ele>
        <time>2010-01-01T00:00:00Z</time>
      </trkpt>
      <trkpt lat="48.03052" lon="6.78095">
        <ele>580</ele>
        <time>2010-01-01T00:00:00Z</time>
      </trkpt>
      <trkpt lat="48.03054" lon="6.78076">
        <ele>583.4</ele>
        <time>2010-01-01T00:00:00Z</time>
      </trkpt>
      <trkpt lat="48.03055" lon="6.78059">
        <ele>583.1</ele>
        <time>2010-01-01T00:00:00Z</time>
      </trkpt>
      <trkpt lat="48.03055" lon="6.78049">
        <ele>582.9</ele>
        <time>2010-01-01T00:00:00Z</time>
      </trkpt>
      <trkpt lat="48.03054" lon="6.78044">
        <ele>582.8</ele>
        <time>2010-01-01T00:00:00Z</time>
      </trkpt>
      <trkpt lat="48.03054" lon="6.78035">
        <ele>583</ele>
        <time>2010-01-01T00:00:00Z</time>
      </trkpt>
      <trkpt lat="48.03054" lon="6.78026">
        <ele>583.6</ele>
        <time>2010-01-01T00:00:00Z</time>
      </trkpt>
      <trkpt lat="48.03055" lon="6.78017">
        <ele>584.5</ele>
        <time>2010-01-01T00:00:00Z</time>
      </trkpt>
      <trkpt lat="48.03058" lon="6.78009">
        <ele>586.1</ele>
        <time>2010-01-01T00:00:00Z</time>
      </trkpt>
      <trkpt lat="48.03062" lon="6.77998">
        <ele>589.3</ele>
        <time>2010-01-01T00:00:00Z</time>
      </trkpt>
      <trkpt lat="48.03066" lon="6.77973">
        <ele>588.1</ele>
        <time>2010-01-01T00:00:00Z</time>
      </trkpt>
      <trkpt lat="48.0307" lon="6.77945">
        <ele>588.9</ele>
        <time>2010-01-01T00:00:00Z</time>
      </trkpt>
      <trkpt lat="48.03074" lon="6.77926">
        <ele>593.5</ele>
        <time>2010-01-01T00:00:00Z</time>
      </trkpt>
      <trkpt lat="48.0308" lon="6.77892">
        <ele>592.2</ele>
        <time>2010-01-01T00:00:00Z</time>
      </trkpt>
      <trkpt lat="48.03085" lon="6.7787">
        <ele>614.8</ele>
        <time>2010-01-01T00:00:00Z</time>
      </trkpt>
      <trkpt lat="48.03089" lon="6.77838">
        <ele>608</ele>
        <time>2010-01-01T00:00:00Z</time>
      </trkpt>
      <trkpt lat="48.03094" lon="6.77818">
        <ele>612.1</ele>
        <time>2010-01-01T00:00:00Z</time>
      </trkpt>
      <trkpt lat="48.03099" lon="6.77802">
        <ele>615.3</ele>
        <time>2010-01-01T00:00:00Z</time>
      </trkpt>
      <trkpt lat="48.03098" lon="6.77812">
        <ele>614.1</ele>
        <time>2010-01-01T00:00:00Z</time>
      </trkpt>
      <trkpt lat="48.03098" lon="6.77823">
        <ele>612.3</ele>
        <time>2010-01-01T00:00:00Z</time>
      </trkpt>
      <trkpt lat="48.03098" lon="6.77835">
        <ele>611.9</ele>
        <time>2010-01-01T00:00:00Z</time>
      </trkpt>
      <trkpt lat="48.03099" lon="6.77851">
        <ele>614.7</ele>
        <time>2010-01-01T00:00:00Z</time>
      </trkpt>
      <trkpt lat="48.03103" lon="6.77871">
        <ele>617.4</ele>
        <time>2010-01-01T00:00:00Z</time>
      </trkpt>
      <trkpt lat="48.03113" lon="6.77915">
        <ele>617.8</ele>
        <time>2010-01-01T00:00:00Z</time>
      </trkpt>
      <trkpt lat="48.03121" lon="6.77955">
        <ele>620.5</ele>
        <time>2010-01-01T00:00:00Z</time>
      </trkpt>
      <trkpt lat="48.03129" lon="6.78001">
        <ele>620.6</ele>
        <time>2010-01-01T00:00:00Z</time>
      </trkpt>
      <trkpt lat="48.03137" lon="6.78038">
        <ele>621.2</ele>
        <time>2010-01-01T00:00:00Z</time>
      </trkpt>
      <trkpt lat="48.03141" lon="6.78063">
        <ele>622.3</ele>
        <time>2010-01-01T00:00:00Z</time>
      </trkpt>
      <trkpt lat="48.03143" lon="6.78072">
        <ele>623.5</ele>
        <time>2010-01-01T00:00:00Z</time>
      </trkpt>
      <trkpt lat="48.03144" lon="6.78078">
        <ele>624.3</ele>
        <time>2010-01-01T00:00:00Z</time>
      </trkpt>
      <trkpt lat="48.03148" lon="6.78084">
        <ele>622.6</ele>
        <time>2010-01-01T00:00:00Z</time>
      </trkpt>
      <trkpt lat="48.03148" lon="6.78089">
        <ele>622.1</ele>
        <time>2010-01-01T00:00:00Z</time>
      </trkpt>
      <trkpt lat="48.0315" lon="6.78098">
        <ele>621.2</ele>
        <time>2010-01-01T00:00:00Z</time>
      </trkpt>
      <trkpt lat="48.03153" lon="6.78108">
        <ele>619.5</ele>
        <time>2010-01-01T00:00:00Z</time>
      </trkpt>
      <trkpt lat="48.03157" lon="6.78118">
        <ele>618.2</ele>
        <time>2010-01-01T00:00:00Z</time>
      </trkpt>
      <trkpt lat="48.03164" lon="6.78124">
        <ele>618.1</ele>
        <time>2010-01-01T00:00:00Z</time>
      </trkpt>
      <trkpt lat="48.03171" lon="6.78133">
        <ele>640.5</ele>
        <time>2010-01-01T00:00:00Z</time>
      </trkpt>
      <trkpt lat="48.03176" lon="6.7814">
        <ele>639.6</ele>
        <time>2010-01-01T00:00:00Z</time>
      </trkpt>
      <trkpt lat="48.03179" lon="6.78148">
        <ele>638</ele>
        <time>2010-01-01T00:00:00Z</time>
      </trkpt>
      <trkpt lat="48.03186" lon="6.78149">
        <ele>639.9</ele>
        <time>2010-01-01T00:00:00Z</time>
      </trkpt>
      <trkpt lat="48.03191" lon="6.78151">
        <ele>641.2</ele>
        <time>2010-01-01T00:00:00Z</time>
      </trkpt>
      <trkpt lat="48.03195" lon="6.78155">
        <ele>642.1</ele>
        <time>2010-01-01T00:00:00Z</time>
      </trkpt>
      <trkpt lat="48.03197" lon="6.7816">
        <ele>642.3</ele>
        <time>2010-01-01T00:00:00Z</time>
      </trkpt>
      <trkpt lat="48.03199" lon="6.78168">
        <ele>637.7</ele>
        <time>2010-01-01T00:00:00Z</time>
      </trkpt>
      <trkpt lat="48.032" lon="6.78176">
        <ele>638.1</ele>
        <time>2010-01-01T00:00:00Z</time>
      </trkpt>
      <trkpt lat="48.03198" lon="6.78184">
        <ele>637.6</ele>
        <time>2010-01-01T00:00:00Z</time>
      </trkpt>
      <trkpt lat="48.03196" lon="6.7819">
        <ele>637.2</ele>
        <time>2010-01-01T00:00:00Z</time>
      </trkpt>
      <trkpt lat="48.03195" lon="6.78195">
        <ele>637.1</ele>
        <time>2010-01-01T00:00:00Z</time>
      </trkpt>
      <trkpt lat="48.03194" lon="6.78205">
        <ele>636.9</ele>
        <time>2010-01-01T00:00:00Z</time>
      </trkpt>
      <trkpt lat="48.03194" lon="6.78213">
        <ele>636.6</ele>
        <time>2010-01-01T00:00:00Z</time>
      </trkpt>
      <trkpt lat="48.03196" lon="6.78223">
        <ele>636.4</ele>
        <time>2010-01-01T00:00:00Z</time>
      </trkpt>
      <trkpt lat="48.03198" lon="6.78235">
        <ele>636.1</ele>
        <time>2010-01-01T00:00:00Z</time>
      </trkpt>
      <trkpt lat="48.03203" lon="6.78255">
        <ele>634.9</ele>
        <time>2010-01-01T00:00:00Z</time>
      </trkpt>
      <trkpt lat="48.03221" lon="6.7831">
        <ele>639.5</ele>
        <time>2010-01-01T00:00:00Z</time>
      </trkpt>
      <trkpt lat="48.03238" lon="6.7837">
        <ele>637</ele>
        <time>2010-01-01T00:00:00Z</time>
      </trkpt>
      <trkpt lat="48.03258" lon="6.78428">
        <ele>654.3</ele>
        <time>2010-01-01T00:00:00Z</time>
      </trkpt>
      <trkpt lat="48.03263" lon="6.78437">
        <ele>656.9</ele>
        <time>2010-01-01T00:00:00Z</time>
      </trkpt>
      <trkpt lat="48.03269" lon="6.78448">
        <ele>658.6</ele>
        <time>2010-01-01T00:00:00Z</time>
      </trkpt>
      <trkpt lat="48.03274" lon="6.78458">
        <ele>659.3</ele>
        <time>2010-01-01T00:00:00Z</time>
      </trkpt>
      <trkpt lat="48.03276" lon="6.78467">
        <ele>659</ele>
        <time>2010-01-01T00:00:00Z</time>
      </trkpt>
      <trkpt lat="48.03279" lon="6.78478">
        <ele>658.5</ele>
        <time>2010-01-01T00:00:00Z</time>
      </trkpt>
      <trkpt lat="48.03287" lon="6.78499">
        <ele>660.1</ele>
        <time>2010-01-01T00:00:00Z</time>
      </trkpt>
      <trkpt lat="48.03299" lon="6.78529">
        <ele>656.1</ele>
        <time>2010-01-01T00:00:00Z</time>
      </trkpt>
      <trkpt lat="48.03307" lon="6.78545">
        <ele>656.7</ele>
        <time>2010-01-01T00:00:00Z</time>
      </trkpt>
      <trkpt lat="48.03315" lon="6.78568">
        <ele>658.8</ele>
        <time>2010-01-01T00:00:00Z</time>
      </trkpt>
      <trkpt lat="48.03328" lon="6.78594">
        <ele>657.9</ele>
        <time>2010-01-01T00:00:00Z</time>
      </trkpt>
      <trkpt lat="48.0334" lon="6.7862">
        <ele>673</ele>
        <time>2010-01-01T00:00:00Z</time>
      </trkpt>
      <trkpt lat="48.03359" lon="6.78653">
        <ele>671.2</ele>
        <time>2010-01-01T00:00:00Z</time>
      </trkpt>
      <trkpt lat="48.0338" lon="6.78692">
        <ele>664</ele>
        <time>2010-01-01T00:00:00Z</time>
      </trkpt>
      <trkpt lat="48.03394" lon="6.78718">
        <ele>663.7</ele>
        <time>2010-01-01T00:00:00Z</time>
      </trkpt>
      <trkpt lat="48.03414" lon="6.78747">
        <ele>667.8</ele>
        <time>2010-01-01T00:00:00Z</time>
      </trkpt>
      <trkpt lat="48.03431" lon="6.7877">
        <ele>672.2</ele>
        <time>2010-01-01T00:00:00Z</time>
      </trkpt>
      <trkpt lat="48.03432" lon="6.78771">
        <ele>672.3</ele>
        <time>2010-01-01T00:00:00Z</time>
      </trkpt>
      <trkpt lat="48.03432" lon="6.78771">
        <ele>672.3</ele>
        <time>2010-01-01T00:00:00Z</time>
      </trkpt>
      <trkpt lat="48.03443" lon="6.78783">
        <ele>673.1</ele>
        <time>2010-01-01T00:00:00Z</time>
      </trkpt>
      <trkpt lat="48.03454" lon="6.78789">
        <ele>674.1</ele>
        <time>2010-01-01T00:00:00Z</time>
      </trkpt>
      <trkpt lat="48.03468" lon="6.78795">
        <ele>675.6</ele>
        <time>2010-01-01T00:00:00Z</time>
      </trkpt>
      <trkpt lat="48.03484" lon="6.788">
        <ele>676.9</ele>
        <time>2010-01-01T00:00:00Z</time>
      </trkpt>
      <trkpt lat="48.03495" lon="6.78803">
        <ele>677.4</ele>
        <time>2010-01-01T00:00:00Z</time>
      </trkpt>
      <trkpt lat="48.03504" lon="6.78806">
        <ele>693</ele>
        <time>2010-01-01T00:00:00Z</time>
      </trkpt>
      <trkpt lat="48.03501" lon="6.78795">
        <ele>695.5</ele>
        <time>2010-01-01T00:00:00Z</time>
      </trkpt>
      <trkpt lat="48.03499" lon="6.78789">
        <ele>679.7</ele>
        <time>2010-01-01T00:00:00Z</time>
      </trkpt>
      <trkpt lat="48.03494" lon="6.78782">
        <ele>680.9</ele>
        <time>2010-01-01T00:00:00Z</time>
      </trkpt>
      <trkpt lat="48.03483" lon="6.78773">
        <ele>681.5</ele>
        <time>2010-01-01T00:00:00Z</time>
      </trkpt>
      <trkpt lat="48.03471" lon="6.78765">
        <ele>680</ele>
        <time>2010-01-01T00:00:00Z</time>
      </trkpt>
      <trkpt lat="48.03464" lon="6.78757">
        <ele>678.9</ele>
        <time>2010-01-01T00:00:00Z</time>
      </trkpt>
      <trkpt lat="48.03457" lon="6.78747">
        <ele>688.5</ele>
        <time>2010-01-01T00:00:00Z</time>
      </trkpt>
      <trkpt lat="48.03453" lon="6.78739">
        <ele>688</ele>
        <time>2010-01-01T00:00:00Z</time>
      </trkpt>
      <trkpt lat="48.03447" lon="6.78725">
        <ele>688.1</ele>
        <time>2010-01-01T00:00:00Z</time>
      </trkpt>
      <trkpt lat="48.03442" lon="6.78711">
        <ele>689</ele>
        <time>2010-01-01T00:00:00Z</time>
      </trkpt>
      <trkpt lat="48.03436" lon="6.78693">
        <ele>689.8</ele>
        <time>2010-01-01T00:00:00Z</time>
      </trkpt>
      <trkpt lat="48.03426" lon="6.78664">
        <ele>693.5</ele>
        <time>2010-01-01T00:00:00Z</time>
      </trkpt>
      <trkpt lat="48.03417" lon="6.78636">
        <ele>702.6</ele>
        <time>2010-01-01T00:00:00Z</time>
      </trkpt>
      <trkpt lat="48.03409" lon="6.78609">
        <ele>687</ele>
        <time>2010-01-01T00:00:00Z</time>
      </trkpt>
      <trkpt lat="48.03402" lon="6.78587">
        <ele>691.6</ele>
        <time>2010-01-01T00:00:00Z</time>
      </trkpt>
      <trkpt lat="48.03396" lon="6.78558">
        <ele>695.7</ele>
        <time>2010-01-01T00:00:00Z</time>
      </trkpt>
      <trkpt lat="48.0339" lon="6.78526">
        <ele>697.2</ele>
        <time>2010-01-01T00:00:00Z</time>
      </trkpt>
      <trkpt lat="48.03389" lon="6.78517">
        <ele>698.2</ele>
        <time>2010-01-01T00:00:00Z</time>
      </trkpt>
      <trkpt lat="48.03389" lon="6.78508">
        <ele>699.2</ele>
        <time>2010-01-01T00:00:00Z</time>
      </trkpt>
      <trkpt lat="48.03388" lon="6.78499">
        <ele>704.1</ele>
        <time>2010-01-01T00:00:00Z</time>
      </trkpt>
      <trkpt lat="48.03389" lon="6.78491">
        <ele>704.2</ele>
        <time>2010-01-01T00:00:00Z</time>
      </trkpt>
      <trkpt lat="48.03391" lon="6.78483">
        <ele>704.4</ele>
        <time>2010-01-01T00:00:00Z</time>
      </trkpt>
      <trkpt lat="48.03394" lon="6.78476">
        <ele>704.6</ele>
        <time>2010-01-01T00:00:00Z</time>
      </trkpt>
      <trkpt lat="48.03399" lon="6.7847">
        <ele>705.2</ele>
        <time>2010-01-01T00:00:00Z</time>
      </trkpt>
      <trkpt lat="48.03408" lon="6.7846">
        <ele>706.2</ele>
        <time>2010-01-01T00:00:00Z</time>
      </trkpt>
      <trkpt lat="48.03416" lon="6.78451">
        <ele>707.3</ele>
        <time>2010-01-01T00:00:00Z</time>
      </trkpt>
      <trkpt lat="48.03422" lon="6.78443">
        <ele>727</ele>
        <time>2010-01-01T00:00:00Z</time>
      </trkpt>
      <trkpt lat="48.03426" lon="6.78435">
        <ele>726.3</ele>
        <time>2010-01-01T00:00:00Z</time>
      </trkpt>
      <trkpt lat="48.0343" lon="6.7842">
        <ele>724.9</ele>
        <time>2010-01-01T00:00:00Z</time>
      </trkpt>
      <trkpt lat="48.03436" lon="6.78395">
        <ele>729.6</ele>
        <time>2010-01-01T00:00:00Z</time>
      </trkpt>
      <trkpt lat="48.03447" lon="6.78352">
        <ele>732.2</ele>
        <time>2010-01-01T00:00:00Z</time>
      </trkpt>
      <trkpt lat="48.03456" lon="6.7832">
        <ele>734.3</ele>
        <time>2010-01-01T00:00:00Z</time>
      </trkpt>
      <trkpt lat="48.03464" lon="6.78294">
        <ele>735.7</ele>
        <time>2010-01-01T00:00:00Z</time>
      </trkpt>
      <trkpt lat="48.03472" lon="6.78272">
        <ele>737.2</ele>
        <time>2010-01-01T00:00:00Z</time>
      </trkpt>
      <trkpt lat="48.03478" lon="6.78256">
        <ele>739.2</ele>
        <time>2010-01-01T00:00:00Z</time>
      </trkpt>
      <trkpt lat="48.03483" lon="6.78245">
        <ele>739.9</ele>
        <time>2010-01-01T00:00:00Z</time>
      </trkpt>
      <trkpt lat="48.0349" lon="6.78236">
        <ele>740.4</ele>
        <time>2010-01-01T00:00:00Z</time>
      </trkpt>
      <trkpt lat="48.03496" lon="6.78227">
        <ele>739.6</ele>
        <time>2010-01-01T00:00:00Z</time>
      </trkpt>
      <trkpt lat="48.03501" lon="6.78219">
        <ele>754.6</ele>
        <time>2010-01-01T00:00:00Z</time>
      </trkpt>
      <trkpt lat="48.03506" lon="6.78206">
        <ele>755.2</ele>
        <time>2010-01-01T00:00:00Z</time>
      </trkpt>
      <trkpt lat="48.03512" lon="6.78193">
        <ele>754.8</ele>
        <time>2010-01-01T00:00:00Z</time>
      </trkpt>
      <trkpt lat="48.0352" lon="6.78178">
        <ele>754.6</ele>
        <time>2010-01-01T00:00:00Z</time>
      </trkpt>
      <trkpt lat="48.03531" lon="6.78151">
        <ele>760.6</ele>
        <time>2010-01-01T00:00:00Z</time>
      </trkpt>
      <trkpt lat="48.03532" lon="6.78146">
        <ele>761.3</ele>
        <time>2010-01-01T00:00:00Z</time>
      </trkpt>
      <trkpt lat="48.03533" lon="6.7814">
        <ele>762</ele>
        <time>2010-01-01T00:00:00Z</time>
      </trkpt>
      <trkpt lat="48.03534" lon="6.78136">
        <ele>762.5</ele>
        <time>2010-01-01T00:00:00Z</time>
      </trkpt>
      <trkpt lat="48.03533" lon="6.78131">
        <ele>762.7</ele>
        <time>2010-01-01T00:00:00Z</time>
      </trkpt>
      <trkpt lat="48.03529" lon="6.78122">
        <ele>762.6</ele>
        <time>2010-01-01T00:00:00Z</time>
      </trkpt>
      <trkpt lat="48.03526" lon="6.78116">
        <ele>762.4</ele>
        <time>2010-01-01T00:00:00Z</time>
      </trkpt>
      <trkpt lat="48.03521" lon="6.7811">
        <ele>761.9</ele>
        <time>2010-01-01T00:00:00Z</time>
      </trkpt>
      <trkpt lat="48.03515" lon="6.78103">
        <ele>761</ele>
        <time>2010-01-01T00:00:00Z</time>
      </trkpt>
      <trkpt lat="48.03507" lon="6.78094">
        <ele>759.2</ele>
        <time>2010-01-01T00:00:00Z</time>
      </trkpt>
      <trkpt lat="48.03502" lon="6.78088">
        <ele>757.5</ele>
        <time>2010-01-01T00:00:00Z</time>
      </trkpt>
      <trkpt lat="48.03499" lon="6.78081">
        <ele>755.5</ele>
        <time>2010-01-01T00:00:00Z</time>
      </trkpt>
      <trkpt lat="48.03498" lon="6.78072">
        <ele>754.4</ele>
        <time>2010-01-01T00:00:00Z</time>
      </trkpt>
      <trkpt lat="48.03497" lon="6.78062">
        <ele>754.1</ele>
        <time>2010-01-01T00:00:00Z</time>
      </trkpt>
      <trkpt lat="48.03495" lon="6.78052">
        <ele>754.3</ele>
        <time>2010-01-01T00:00:00Z</time>
      </trkpt>
      <trkpt lat="48.03491" lon="6.78041">
        <ele>755.1</ele>
        <time>2010-01-01T00:00:00Z</time>
      </trkpt>
      <trkpt lat="48.03488" lon="6.78029">
        <ele>756.7</ele>
        <time>2010-01-01T00:00:00Z</time>
      </trkpt>
      <trkpt lat="48.03483" lon="6.78023">
        <ele>757</ele>
        <time>2010-01-01T00:00:00Z</time>
      </trkpt>
      <trkpt lat="48.0348" lon="6.78016">
        <ele>757.7</ele>
        <time>2010-01-01T00:00:00Z</time>
      </trkpt>
      <trkpt lat="48.03479" lon="6.78008">
        <ele>758.6</ele>
        <time>2010-01-01T00:00:00Z</time>
      </trkpt>
      <trkpt lat="48.03479" lon="6.78003">
        <ele>759.1</ele>
        <time>2010-01-01T00:00:00Z</time>
      </trkpt>
      <trkpt lat="48.03479" lon="6.77993">
        <ele>764.1</ele>
        <time>2010-01-01T00:00:00Z</time>
      </trkpt>
      <trkpt lat="48.03479" lon="6.77985">
        <ele>763.8</ele>
        <time>2010-01-01T00:00:00Z</time>
      </trkpt>
      <trkpt lat="48.03478" lon="6.77975">
        <ele>763.3</ele>
        <time>2010-01-01T00:00:00Z</time>
      </trkpt>
      <trkpt lat="48.03475" lon="6.77966">
        <ele>763</ele>
        <time>2010-01-01T00:00:00Z</time>
      </trkpt>
      <trkpt lat="48.03473" lon="6.77958">
        <ele>762.9</ele>
        <time>2010-01-01T00:00:00Z</time>
      </trkpt>
      <trkpt lat="48.03472" lon="6.7795">
        <ele>763.2</ele>
        <time>2010-01-01T00:00:00Z</time>
      </trkpt>
      <trkpt lat="48.03472" lon="6.77942">
        <ele>763.8</ele>
        <time>2010-01-01T00:00:00Z</time>
      </trkpt>
      <trkpt lat="48.03472" lon="6.77935">
        <ele>764.3</ele>
        <time>2010-01-01T00:00:00Z</time>
      </trkpt>
      <trkpt lat="48.03473" lon="6.77927">
        <ele>765.2</ele>
        <time>2010-01-01T00:00:00Z</time>
      </trkpt>
      <trkpt lat="48.03474" lon="6.77919">
        <ele>765.8</ele>
        <time>2010-01-01T00:00:00Z</time>
      </trkpt>
      <trkpt lat="48.03475" lon="6.77909">
        <ele>768.8</ele>
        <time>2010-01-01T00:00:00Z</time>
      </trkpt>
      <trkpt lat="48.03476" lon="6.77901">
        <ele>768.7</ele>
        <time>2010-01-01T00:00:00Z</time>
      </trkpt>
      <trkpt lat="48.03476" lon="6.7789">
        <ele>768.3</ele>
        <time>2010-01-01T00:00:00Z</time>
      </trkpt>
      <trkpt lat="48.03475" lon="6.77881">
        <ele>768.1</ele>
        <time>2010-01-01T00:00:00Z</time>
      </trkpt>
      <trkpt lat="48.03476" lon="6.77865">
        <ele>769</ele>
        <time>2010-01-01T00:00:00Z</time>
      </trkpt>
      <trkpt lat="48.03478" lon="6.77857">
        <ele>770.1</ele>
        <time>2010-01-01T00:00:00Z</time>
      </trkpt>
      <trkpt lat="48.0348" lon="6.77848">
        <ele>771.6</ele>
        <time>2010-01-01T00:00:00Z</time>
      </trkpt>
      <trkpt lat="48.0348" lon="6.7784">
        <ele>772.6</ele>
        <time>2010-01-01T00:00:00Z</time>
      </trkpt>
      <trkpt lat="48.03484" lon="6.7783">
        <ele>775.5</ele>
        <time>2010-01-01T00:00:00Z</time>
      </trkpt>
      <trkpt lat="48.03488" lon="6.77817">
        <ele>774.9</ele>
        <time>2010-01-01T00:00:00Z</time>
      </trkpt>
      <trkpt lat="48.03493" lon="6.77801">
        <ele>773.7</ele>
        <time>2010-01-01T00:00:00Z</time>
      </trkpt>
      <trkpt lat="48.035" lon="6.77778">
        <ele>775.1</ele>
        <time>2010-01-01T00:00:00Z</time>
      </trkpt>
      <trkpt lat="48.03507" lon="6.77735">
        <ele>792.8</ele>
        <time>2010-01-01T00:00:00Z</time>
      </trkpt>
      <trkpt lat="48.03516" lon="6.77682">
        <ele>795.3</ele>
        <time>2010-01-01T00:00:00Z</time>
      </trkpt>
      <trkpt lat="48.03527" lon="6.77624">
        <ele>801</ele>
        <time>2010-01-01T00:00:00Z</time>
      </trkpt>
      <trkpt lat="48.03532" lon="6.77601">
        <ele>801.7</ele>
        <time>2010-01-01T00:00:00Z</time>
      </trkpt>
      <trkpt lat="48.03535" lon="6.77587">
        <ele>802.4</ele>
        <time>2010-01-01T00:00:00Z</time>
      </trkpt>
      <trkpt lat="48.03537" lon="6.77575">
        <ele>805.5</ele>
        <time>2010-01-01T00:00:00Z</time>
      </trkpt>
      <trkpt lat="48.03538" lon="6.77563">
        <ele>806.2</ele>
        <time>2010-01-01T00:00:00Z</time>
      </trkpt>
      <trkpt lat="48.03539" lon="6.7755">
        <ele>806.9</ele>
        <time>2010-01-01T00:00:00Z</time>
      </trkpt>
      <trkpt lat="48.03539" lon="6.77541">
        <ele>807.2</ele>
        <time>2010-01-01T00:00:00Z</time>
      </trkpt>
      <trkpt lat="48.03539" lon="6.77527">
        <ele>807.5</ele>
        <time>2010-01-01T00:00:00Z</time>
      </trkpt>
      <trkpt lat="48.03539" lon="6.77516">
        <ele>807.7</ele>
        <time>2010-01-01T00:00:00Z</time>
      </trkpt>
      <trkpt lat="48.03539" lon="6.77495">
        <ele>811.8</ele>
        <time>2010-01-01T00:00:00Z</time>
      </trkpt>
      <trkpt lat="48.03539" lon="6.77492">
        <ele>811.9</ele>
        <time>2010-01-01T00:00:00Z</time>
      </trkpt>
      <trkpt lat="48.03539" lon="6.77492">
        <ele>811.9</ele>
        <time>2010-01-01T00:00:00Z</time>
      </trkpt>
      <trkpt lat="48.03537" lon="6.77475">
        <ele>812.2</ele>
        <time>2010-01-01T00:00:00Z</time>
      </trkpt>
      <trkpt lat="48.03536" lon="6.7746">
        <ele>812.8</ele>
        <time>2010-01-01T00:00:00Z</time>
      </trkpt>
      <trkpt lat="48.03534" lon="6.77449">
        <ele>813</ele>
        <time>2010-01-01T00:00:00Z</time>
      </trkpt>
      <trkpt lat="48.03532" lon="6.77431">
        <ele>812.9</ele>
        <time>2010-01-01T00:00:00Z</time>
      </trkpt>
      <trkpt lat="48.03531" lon="6.77417">
        <ele>812.7</ele>
        <time>2010-01-01T00:00:00Z</time>
      </trkpt>
      <trkpt lat="48.0353" lon="6.77405">
        <ele>817.6</ele>
        <time>2010-01-01T00:00:00Z</time>
      </trkpt>
      <trkpt lat="48.0353" lon="6.77395">
        <ele>818.4</ele>
        <time>2010-01-01T00:00:00Z</time>
      </trkpt>
      <trkpt lat="48.03531" lon="6.77385">
        <ele>819.4</ele>
        <time>2010-01-01T00:00:00Z</time>
      </trkpt>
      <trkpt lat="48.0353" lon="6.77376">
        <ele>819.9</ele>
        <time>2010-01-01T00:00:00Z</time>
      </trkpt>
      <trkpt lat="48.0353" lon="6.77363">
        <ele>820.5</ele>
        <time>2010-01-01T00:00:00Z</time>
      </trkpt>
      <trkpt lat="48.03529" lon="6.77356">
        <ele>820.5</ele>
        <time>2010-01-01T00:00:00Z</time>
      </trkpt>
      <trkpt lat="48.03527" lon="6.77342">
        <ele>820.2</ele>
        <time>2010-01-01T00:00:00Z</time>
      </trkpt>
      <trkpt lat="48.03524" lon="6.7733">
        <ele>823.6</ele>
        <time>2010-01-01T00:00:00Z</time>
      </trkpt>
      <trkpt lat="48.03523" lon="6.77318">
        <ele>824.3</ele>
        <time>2010-01-01T00:00:00Z</time>
      </trkpt>
      <trkpt lat="48.03524" lon="6.7731">
        <ele>825.3</ele>
        <time>2010-01-01T00:00:00Z</time>
      </trkpt>
      <trkpt lat="48.03525" lon="6.77301">
        <ele>826.3</ele>
        <time>2010-01-01T00:00:00Z</time>
      </trkpt>
      <trkpt lat="48.03528" lon="6.77307">
        <ele>826.2</ele>
        <time>2010-01-01T00:00:00Z</time>
      </trkpt>
      <trkpt lat="48.03537" lon="6.77323">
        <ele>826.8</ele>
        <time>2010-01-01T00:00:00Z</time>
      </trkpt>
      <trkpt lat="48.03556" lon="6.77354">
        <ele>825.3</ele>
        <time>2010-01-01T00:00:00Z</time>
      </trkpt>
      <trkpt lat="48.03567" lon="6.77369">
        <ele>825.7</ele>
        <time>2010-01-01T00:00:00Z</time>
      </trkpt>
      <trkpt lat="48.03577" lon="6.77381">
        <ele>826.3</ele>
        <time>2010-01-01T00:00:00Z</time>
      </trkpt>
      <trkpt lat="48.03584" lon="6.77387">
        <ele>837.1</ele>
        <time>2010-01-01T00:00:00Z</time>
      </trkpt>
      <trkpt lat="48.03589" lon="6.77393">
        <ele>836.8</ele>
        <time>2010-01-01T00:00:00Z</time>
      </trkpt>
      <trkpt lat="48.03593" lon="6.77404">
        <ele>836.1</ele>
        <time>2010-01-01T00:00:00Z</time>
      </trkpt>
      <trkpt lat="48.03598" lon="6.77417">
        <ele>835.5</ele>
        <time>2010-01-01T00:00:00Z</time>
      </trkpt>
      <trkpt lat="48.03605" lon="6.77441">
        <ele>836.8</ele>
        <time>2010-01-01T00:00:00Z</time>
      </trkpt>
      <trkpt lat="48.03613" lon="6.77465">
        <ele>837.1</ele>
        <time>2010-01-01T00:00:00Z</time>
      </trkpt>
      <trkpt lat="48.03619" lon="6.77492">
        <ele>837.1</ele>
        <time>2010-01-01T00:00:00Z</time>
      </trkpt>
      <trkpt lat="48.03626" lon="6.77521">
        <ele>836.9</ele>
        <time>2010-01-01T00:00:00Z</time>
      </trkpt>
      <trkpt lat="48.03634" lon="6.77546">
        <ele>837.6</ele>
        <time>2010-01-01T00:00:00Z</time>
      </trkpt>
      <trkpt lat="48.03642" lon="6.77561">
        <ele>839</ele>
        <time>2010-01-01T00:00:00Z</time>
      </trkpt>
      <trkpt lat="48.03653" lon="6.77582">
        <ele>842.4</ele>
        <time>2010-01-01T00:00:00Z</time>
      </trkpt>
      <trkpt lat="48.03665" lon="6.77602">
        <ele>840.5</ele>
        <time>2010-01-01T00:00:00Z</time>
      </trkpt>
      <trkpt lat="48.03677" lon="6.77618">
        <ele>848.5</ele>
        <time>2010-01-01T00:00:00Z</time>
      </trkpt>
      <trkpt lat="48.03683" lon="6.77623">
        <ele>848.6</ele>
        <time>2010-01-01T00:00:00Z</time>
      </trkpt>
      <trkpt lat="48.03692" lon="6.77625">
        <ele>848.9</ele>
        <time>2010-01-01T00:00:00Z</time>
      </trkpt>
      <trkpt lat="48.03701" lon="6.77625">
        <ele>849.4</ele>
        <time>2010-01-01T00:00:00Z</time>
      </trkpt>
      <trkpt lat="48.03716" lon="6.77624">
        <ele>850.1</ele>
        <time>2010-01-01T00:00:00Z</time>
      </trkpt>
      <trkpt lat="48.03734" lon="6.77625">
        <ele>850.9</ele>
        <time>2010-01-01T00:00:00Z</time>
      </trkpt>
      <trkpt lat="48.03738" lon="6.77625">
        <ele>851.1</ele>
        <time>2010-01-01T00:00:00Z</time>
      </trkpt>
      <trkpt lat="48.03755" lon="6.77626">
        <ele>855.5</ele>
        <time>2010-01-01T00:00:00Z</time>
      </trkpt>
      <trkpt lat="48.03777" lon="6.77625">
        <ele>855.9</ele>
        <time>2010-01-01T00:00:00Z</time>
      </trkpt>
      <trkpt lat="48.03789" lon="6.77623">
        <ele>856.1</ele>
        <time>2010-01-01T00:00:00Z</time>
      </trkpt>
      <trkpt lat="48.03793" lon="6.77629">
        <ele>856.4</ele>
        <time>2010-01-01T00:00:00Z</time>
      </trkpt>
      <trkpt lat="48.03798" lon="6.77633">
        <ele>856.7</ele>
        <time>2010-01-01T00:00:00Z</time>
      </trkpt>
      <trkpt lat="48.03803" lon="6.77635">
        <ele>856.9</ele>
        <time>2010-01-01T00:00:00Z</time>
      </trkpt>
      <trkpt lat="48.03809" lon="6.77639">
        <ele>857.2</ele>
        <time>2010-01-01T00:00:00Z</time>
      </trkpt>
      <trkpt lat="48.03813" lon="6.77644">
        <ele>857.6</ele>
        <time>2010-01-01T00:00:00Z</time>
      </trkpt>
      <trkpt lat="48.0382" lon="6.77654">
        <ele>858.5</ele>
        <time>2010-01-01T00:00:00Z</time>
      </trkpt>
      <trkpt lat="48.03827" lon="6.77669">
        <ele>860.6</ele>
        <time>2010-01-01T00:00:00Z</time>
      </trkpt>
      <trkpt lat="48.03837" lon="6.77687">
        <ele>863.6</ele>
        <time>2010-01-01T00:00:00Z</time>
      </trkpt>
      <trkpt lat="48.03843" lon="6.77705">
        <ele>864.7</ele>
        <time>2010-01-01T00:00:00Z</time>
      </trkpt>
      <trkpt lat="48.0385" lon="6.77725">
        <ele>865.4</ele>
        <time>2010-01-01T00:00:00Z</time>
      </trkpt>
      <trkpt lat="48.03856" lon="6.77741">
        <ele>865.8</ele>
        <time>2010-01-01T00:00:00Z</time>
      </trkpt>
      <trkpt lat="48.0386" lon="6.77751">
        <ele>868.6</ele>
        <time>2010-01-01T00:00:00Z</time>
      </trkpt>
      <trkpt lat="48.03864" lon="6.77762">
        <ele>869.1</ele>
        <time>2010-01-01T00:00:00Z</time>
      </trkpt>
      <trkpt lat="48.03866" lon="6.7777">
        <ele>869.5</ele>
        <time>2010-01-01T00:00:00Z</time>
      </trkpt>
      <trkpt lat="48.03866" lon="6.7778">
        <ele>869.7</ele>
        <time>2010-01-01T00:00:00Z</time>
      </trkpt>
      <trkpt lat="48.03868" lon="6.77789">
        <ele>870.1</ele>
        <time>2010-01-01T00:00:00Z</time>
      </trkpt>
      <trkpt lat="48.03869" lon="6.77805">
        <ele>870.4</ele>
        <time>2010-01-01T00:00:00Z</time>
      </trkpt>
      <trkpt lat="48.03873" lon="6.77819">
        <ele>870.9</ele>
        <time>2010-01-01T00:00:00Z</time>
      </trkpt>
      <trkpt lat="48.03875" lon="6.77835">
        <ele>873.8</ele>
        <time>2010-01-01T00:00:00Z</time>
      </trkpt>
      <trkpt lat="48.03877" lon="6.77848">
        <ele>874.1</ele>
        <time>2010-01-01T00:00:00Z</time>
      </trkpt>
      <trkpt lat="48.03879" lon="6.77862">
        <ele>874.5</ele>
        <time>2010-01-01T00:00:00Z</time>
      </trkpt>
      <trkpt lat="48.03883" lon="6.77888">
        <ele>875.5</ele>
        <time>2010-01-01T00:00:00Z</time>
      </trkpt>
      <trkpt lat="48.03888" lon="6.77914">
        <ele>877.1</ele>
        <time>2010-01-01T00:00:00Z</time>
      </trkpt>
      <trkpt lat="48.03892" lon="6.77937">
        <ele>879.5</ele>
        <time>2010-01-01T00:00:00Z</time>
      </trkpt>
      <trkpt lat="48.03892" lon="6.77952">
        <ele>879.4</ele>
        <time>2010-01-01T00:00:00Z</time>
      </trkpt>
      <trkpt lat="48.03892" lon="6.77965">
        <ele>879.8</ele>
        <time>2010-01-01T00:00:00Z</time>
      </trkpt>
      <trkpt lat="48.03891" lon="6.77979">
        <ele>880.3</ele>
        <time>2010-01-01T00:00:00Z</time>
      </trkpt>
      <trkpt lat="48.03891" lon="6.7799">
        <ele>880.9</ele>
        <time>2010-01-01T00:00:00Z</time>
      </trkpt>
      <trkpt lat="48.03891" lon="6.77999">
        <ele>881.2</ele>
        <time>2010-01-01T00:00:00Z</time>
      </trkpt>
      <trkpt lat="48.03891" lon="6.78009">
        <ele>883.5</ele>
        <time>2010-01-01T00:00:00Z</time>
      </trkpt>
      <trkpt lat="48.03892" lon="6.78025">
        <ele>883.5</ele>
        <time>2010-01-01T00:00:00Z</time>
      </trkpt>
      <trkpt lat="48.03893" lon="6.78042">
        <ele>884</ele>
        <time>2010-01-01T00:00:00Z</time>
      </trkpt>
      <trkpt lat="48.03895" lon="6.78061">
        <ele>885.5</ele>
        <time>2010-01-01T00:00:00Z</time>
      </trkpt>
      <trkpt lat="48.03898" lon="6.78097">
        <ele>889.6</ele>
        <time>2010-01-01T00:00:00Z</time>
      </trkpt>
      <trkpt lat="48.03899" lon="6.78124">
        <ele>889.2</ele>
        <time>2010-01-01T00:00:00Z</time>
      </trkpt>
      <trkpt lat="48.039" lon="6.78146">
        <ele>891</ele>
        <time>2010-01-01T00:00:00Z</time>
      </trkpt>
      <trkpt lat="48.03899" lon="6.7816">
        <ele>892.5</ele>
        <time>2010-01-01T00:00:00Z</time>
      </trkpt>
      <trkpt lat="48.03899" lon="6.78179">
        <ele>894.2</ele>
        <time>2010-01-01T00:00:00Z</time>
      </trkpt>
      <trkpt lat="48.03899" lon="6.78191">
        <ele>893.5</ele>
        <time>2010-01-01T00:00:00Z</time>
      </trkpt>
      <trkpt lat="48.03897" lon="6.78208">
        <ele>893.2</ele>
        <time>2010-01-01T00:00:00Z</time>
      </trkpt>
      <trkpt lat="48.03894" lon="6.78224">
        <ele>893.8</ele>
        <time>2010-01-01T00:00:00Z</time>
      </trkpt>
      <trkpt lat="48.03893" lon="6.78236">
        <ele>894.7</ele>
        <time>2010-01-01T00:00:00Z</time>
      </trkpt>
      <trkpt lat="48.03893" lon="6.78236">
        <ele>894.7</ele>
        <time>2010-01-01T00:00:00Z</time>
      </trkpt>
      <trkpt lat="48.03894" lon="6.78224">
        <ele>893.8</ele>
        <time>2010-01-01T00:00:00Z</time>
      </trkpt>
      <trkpt lat="48.03897" lon="6.78208">
        <ele>893.2</ele>
        <time>2010-01-01T00:00:00Z</time>
      </trkpt>
      <trkpt lat="48.03899" lon="6.78191">
        <ele>893.5</ele>
        <time>2010-01-01T00:00:00Z</time>
      </trkpt>
      <trkpt lat="48.03903" lon="6.78169">
        <ele>895.6</ele>
        <time>2010-01-01T00:00:00Z</time>
      </trkpt>
      <trkpt lat="48.03907" lon="6.78127">
        <ele>890</ele>
        <time>2010-01-01T00:00:00Z</time>
      </trkpt>
      <trkpt lat="48.0391" lon="6.78096">
        <ele>891.4</ele>
        <time>2010-01-01T00:00:00Z</time>
      </trkpt>
      <trkpt lat="48.03915" lon="6.78061">
        <ele>887.8</ele>
        <time>2010-01-01T00:00:00Z</time>
      </trkpt>
      <trkpt lat="48.03922" lon="6.78032">
        <ele>897.5</ele>
        <time>2010-01-01T00:00:00Z</time>
      </trkpt>
      <trkpt lat="48.03927" lon="6.7801">
        <ele>894.1</ele>
        <time>2010-01-01T00:00:00Z</time>
      </trkpt>
      <trkpt lat="48.03933" lon="6.77988">
        <ele>891.8</ele>
        <time>2010-01-01T00:00:00Z</time>
      </trkpt>
      <trkpt lat="48.03943" lon="6.77963">
        <ele>893.1</ele>
        <time>2010-01-01T00:00:00Z</time>
      </trkpt>
      <trkpt lat="48.03949" lon="6.77947">
        <ele>893.1</ele>
        <time>2010-01-01T00:00:00Z</time>
      </trkpt>
      <trkpt lat="48.03958" lon="6.77917">
        <ele>893.3</ele>
        <time>2010-01-01T00:00:00Z</time>
      </trkpt>
      <trkpt lat="48.03968" lon="6.77886">
        <ele>888.9</ele>
        <time>2010-01-01T00:00:00Z</time>
      </trkpt>
      <trkpt lat="48.03974" lon="6.77871">
        <ele>888.4</ele>
        <time>2010-01-01T00:00:00Z</time>
      </trkpt>
      <trkpt lat="48.03983" lon="6.77856">
        <ele>888.3</ele>
        <time>2010-01-01T00:00:00Z</time>
      </trkpt>
      <trkpt lat="48.03995" lon="6.77838">
        <ele>888.7</ele>
        <time>2010-01-01T00:00:00Z</time>
      </trkpt>
      <trkpt lat="48.04009" lon="6.7782">
        <ele>892</ele>
        <time>2010-01-01T00:00:00Z</time>
      </trkpt>
      <trkpt lat="48.04016" lon="6.77808">
        <ele>893.2</ele>
        <time>2010-01-01T00:00:00Z</time>
      </trkpt>
      <trkpt lat="48.04022" lon="6.77797">
        <ele>893.6</ele>
        <time>2010-01-01T00:00:00Z</time>
      </trkpt>
      <trkpt lat="48.0403" lon="6.77777">
        <ele>893.4</ele>
        <time>2010-01-01T00:00:00Z</time>
      </trkpt>
      <trkpt lat="48.04042" lon="6.77739">
        <ele>889.2</ele>
        <time>2010-01-01T00:00:00Z</time>
      </trkpt>
      <trkpt lat="48.04051" lon="6.77712">
        <ele>889</ele>
        <time>2010-01-01T00:00:00Z</time>
      </trkpt>
      <trkpt lat="48.0406" lon="6.7768">
        <ele>889</ele>
        <time>2010-01-01T00:00:00Z</time>
      </trkpt>
      <trkpt lat="48.04066" lon="6.77649">
        <ele>884.7</ele>
        <time>2010-01-01T00:00:00Z</time>
      </trkpt>
      <trkpt lat="48.04071" lon="6.77616">
        <ele>882.1</ele>
        <time>2010-01-01T00:00:00Z</time>
      </trkpt>
      <trkpt lat="48.04077" lon="6.77587">
        <ele>883</ele>
        <time>2010-01-01T00:00:00Z</time>
      </trkpt>
      <trkpt lat="48.04083" lon="6.7756">
        <ele>878.8</ele>
        <time>2010-01-01T00:00:00Z</time>
      </trkpt>
      <trkpt lat="48.04089" lon="6.77538">
        <ele>886.9</ele>
        <time>2010-01-01T00:00:00Z</time>
      </trkpt>
      <trkpt lat="48.04094" lon="6.77523">
        <ele>886.1</ele>
        <time>2010-01-01T00:00:00Z</time>
      </trkpt>
      <trkpt lat="48.04099" lon="6.77502">
        <ele>884.9</ele>
        <time>2010-01-01T00:00:00Z</time>
      </trkpt>
      <trkpt lat="48.0411" lon="6.77457">
        <ele>881.3</ele>
        <time>2010-01-01T00:00:00Z</time>
      </trkpt>
      <trkpt lat="48.04117" lon="6.77425">
        <ele>880</ele>
        <time>2010-01-01T00:00:00Z</time>
      </trkpt>
      <trkpt lat="48.04121" lon="6.77403">
        <ele>874.2</ele>
        <time>2010-01-01T00:00:00Z</time>
      </trkpt>
      <trkpt lat="48.04125" lon="6.77374">
        <ele>872.9</ele>
        <time>2010-01-01T00:00:00Z</time>
      </trkpt>
      <trkpt lat="48.04127" lon="6.77348">
        <ele>871.6</ele>
        <time>2010-01-01T00:00:00Z</time>
      </trkpt>
      <trkpt lat="48.04127" lon="6.7733">
        <ele>866.4</ele>
        <time>2010-01-01T00:00:00Z</time>
      </trkpt>
      <trkpt lat="48.04125" lon="6.77319">
        <ele>866.2</ele>
        <time>2010-01-01T00:00:00Z</time>
      </trkpt>
      <trkpt lat="48.04123" lon="6.77311">
        <ele>866</ele>
        <time>2010-01-01T00:00:00Z</time>
      </trkpt>
      <trkpt lat="48.04121" lon="6.77304">
        <ele>865.8</ele>
        <time>2010-01-01T00:00:00Z</time>
      </trkpt>
      <trkpt lat="48.04117" lon="6.77307">
        <ele>865.9</ele>
        <time>2010-01-01T00:00:00Z</time>
      </trkpt>
      <trkpt lat="48.04113" lon="6.77309">
        <ele>866</ele>
        <time>2010-01-01T00:00:00Z</time>
      </trkpt>
      <trkpt lat="48.0411" lon="6.77309">
        <ele>866</ele>
        <time>2010-01-01T00:00:00Z</time>
      </trkpt>
      <trkpt lat="48.04109" lon="6.77308">
        <ele>865.9</ele>
        <time>2010-01-01T00:00:00Z</time>
      </trkpt>
      <trkpt lat="48.04112" lon="6.773">
        <ele>865.7</ele>
        <time>2010-01-01T00:00:00Z</time>
      </trkpt>
      <trkpt lat="48.04113" lon="6.77294">
        <ele>865.6</ele>
        <time>2010-01-01T00:00:00Z</time>
      </trkpt>
      <trkpt lat="48.04115" lon="6.77286">
        <ele>865.3</ele>
        <time>2010-01-01T00:00:00Z</time>
      </trkpt>
      <trkpt lat="48.04117" lon="6.77275">
        <ele>865.1</ele>
        <time>2010-01-01T00:00:00Z</time>
      </trkpt>
      <trkpt lat="48.04117" lon="6.77266">
        <ele>864.9</ele>
        <time>2010-01-01T00:00:00Z</time>
      </trkpt>
      <trkpt lat="48.04117" lon="6.77254">
        <ele>864.7</ele>
        <time>2010-01-01T00:00:00Z</time>
      </trkpt>
      <trkpt lat="48.04115" lon="6.77247">
        <ele>862.8</ele>
        <time>2010-01-01T00:00:00Z</time>
      </trkpt>
      <trkpt lat="48.04108" lon="6.77225">
        <ele>862.7</ele>
        <time>2010-01-01T00:00:00Z</time>
      </trkpt>
      <trkpt lat="48.04097" lon="6.77193">
        <ele>862.2</ele>
        <time>2010-01-01T00:00:00Z</time>
      </trkpt>
      <trkpt lat="48.0409" lon="6.77166">
        <ele>861</ele>
        <time>2010-01-01T00:00:00Z</time>
      </trkpt>
      <trkpt lat="48.04085" lon="6.77143">
        <ele>860.7</ele>
        <time>2010-01-01T00:00:00Z</time>
      </trkpt>
      <trkpt lat="48.04084" lon="6.77131">
        <ele>860.4</ele>
        <time>2010-01-01T00:00:00Z</time>
      </trkpt>
      <trkpt lat="48.04084" lon="6.77131">
        <ele>860.4</ele>
        <time>2010-01-01T00:00:00Z</time>
      </trkpt>
      <trkpt lat="48.04084" lon="6.7713">
        <ele>860.4</ele>
        <time>2010-01-01T00:00:00Z</time>
      </trkpt>
      <trkpt lat="48.04084" lon="6.77124">
        <ele>860.2</ele>
        <time>2010-01-01T00:00:00Z</time>
      </trkpt>
      <trkpt lat="48.04078" lon="6.77115">
        <ele>855.9</ele>
        <time>2010-01-01T00:00:00Z</time>
      </trkpt>
      <trkpt lat="48.04076" lon="6.77111">
        <ele>855.8</ele>
        <time>2010-01-01T00:00:00Z</time>
      </trkpt>
      <trkpt lat="48.04075" lon="6.77103">
        <ele>855.8</ele>
        <time>2010-01-01T00:00:00Z</time>
      </trkpt>
      <trkpt lat="48.04074" lon="6.77096">
        <ele>855.9</ele>
        <time>2010-01-01T00:00:00Z</time>
      </trkpt>
      <trkpt lat="48.04074" lon="6.77088">
        <ele>856.1</ele>
        <time>2010-01-01T00:00:00Z</time>
      </trkpt>
      <trkpt lat="48.04074" lon="6.77073">
        <ele>854.4</ele>
        <time>2010-01-01T00:00:00Z</time>
      </trkpt>
      <trkpt lat="48.04072" lon="6.77029">
        <ele>852</ele>
        <time>2010-01-01T00:00:00Z</time>
      </trkpt>
      <trkpt lat="48.04068" lon="6.76988">
        <ele>849.9</ele>
        <time>2010-01-01T00:00:00Z</time>
      </trkpt>
      <trkpt lat="48.04066" lon="6.76978">
        <ele>849.1</ele>
        <time>2010-01-01T00:00:00Z</time>
      </trkpt>
      <trkpt lat="48.04063" lon="6.76971">
        <ele>848.6</ele>
        <time>2010-01-01T00:00:00Z</time>
      </trkpt>
      <trkpt lat="48.04057" lon="6.76965">
        <ele>848.2</ele>
        <time>2010-01-01T00:00:00Z</time>
      </trkpt>
      <trkpt lat="48.04048" lon="6.76955">
        <ele>847.6</ele>
        <time>2010-01-01T00:00:00Z</time>
      </trkpt>
      <trkpt lat="48.04034" lon="6.76942">
        <ele>847</ele>
        <time>2010-01-01T00:00:00Z</time>
      </trkpt>
      <trkpt lat="48.04023" lon="6.7693">
        <ele>846.5</ele>
        <time>2010-01-01T00:00:00Z</time>
      </trkpt>
      <trkpt lat="48.04013" lon="6.76912">
        <ele>844.3</ele>
        <time>2010-01-01T00:00:00Z</time>
      </trkpt>
      <trkpt lat="48.04005" lon="6.769">
        <ele>844</ele>
        <time>2010-01-01T00:00:00Z</time>
      </trkpt>
      <trkpt lat="48.04001" lon="6.7689">
        <ele>843.5</ele>
        <time>2010-01-01T00:00:00Z</time>
      </trkpt>
      <trkpt lat="48.03999" lon="6.76881">
        <ele>838.8</ele>
        <time>2010-01-01T00:00:00Z</time>
      </trkpt>
      <trkpt lat="48.03999" lon="6.76872">
        <ele>838.3</ele>
        <time>2010-01-01T00:00:00Z</time>
      </trkpt>
      <trkpt lat="48.03998" lon="6.76864">
        <ele>838</ele>
        <time>2010-01-01T00:00:00Z</time>
      </trkpt>
      <trkpt lat="48.03998" lon="6.76854">
        <ele>837.9</ele>
        <time>2010-01-01T00:00:00Z</time>
      </trkpt>
      <trkpt lat="48.03997" lon="6.76842">
        <ele>838.2</ele>
        <time>2010-01-01T00:00:00Z</time>
      </trkpt>
      <trkpt lat="48.03995" lon="6.76831">
        <ele>837.2</ele>
        <time>2010-01-01T00:00:00Z</time>
      </trkpt>
      <trkpt lat="48.03993" lon="6.76824">
        <ele>835.7</ele>
        <time>2010-01-01T00:00:00Z</time>
      </trkpt>
      <trkpt lat="48.03993" lon="6.76818">
        <ele>834.7</ele>
        <time>2010-01-01T00:00:00Z</time>
      </trkpt>
      <trkpt lat="48.03993" lon="6.76812">
        <ele>833.9</ele>
        <time>2010-01-01T00:00:00Z</time>
      </trkpt>
      <trkpt lat="48.03995" lon="6.76807">
        <ele>833.4</ele>
        <time>2010-01-01T00:00:00Z</time>
      </trkpt>
      <trkpt lat="48.03995" lon="6.768">
        <ele>832.7</ele>
        <time>2010-01-01T00:00:00Z</time>
      </trkpt>
      <trkpt lat="48.03994" lon="6.7679">
        <ele>832</ele>
        <time>2010-01-01T00:00:00Z</time>
      </trkpt>
      <trkpt lat="48.03993" lon="6.76784">
        <ele>831.7</ele>
        <time>2010-01-01T00:00:00Z</time>
      </trkpt>
      <trkpt lat="48.03992" lon="6.76774">
        <ele>831.4</ele>
        <time>2010-01-01T00:00:00Z</time>
      </trkpt>
      <trkpt lat="48.03992" lon="6.76768">
        <ele>831.3</ele>
        <time>2010-01-01T00:00:00Z</time>
      </trkpt>
      <trkpt lat="48.03991" lon="6.7676">
        <ele>831.3</ele>
        <time>2010-01-01T00:00:00Z</time>
      </trkpt>
      <trkpt lat="48.0399" lon="6.76752">
        <ele>831.4</ele>
        <time>2010-01-01T00:00:00Z</time>
      </trkpt>
      <trkpt lat="48.0399" lon="6.76746">
        <ele>829.5</ele>
        <time>2010-01-01T00:00:00Z</time>
      </trkpt>
      <trkpt lat="48.03993" lon="6.76738">
        <ele>829</ele>
        <time>2010-01-01T00:00:00Z</time>
      </trkpt>
      <trkpt lat="48.03988" lon="6.7673">
        <ele>827.7</ele>
        <time>2010-01-01T00:00:00Z</time>
      </trkpt>
      <trkpt lat="48.03983" lon="6.76722">
        <ele>826.7</ele>
        <time>2010-01-01T00:00:00Z</time>
      </trkpt>
      <trkpt lat="48.03979" lon="6.76715">
        <ele>826.1</ele>
        <time>2010-01-01T00:00:00Z</time>
      </trkpt>
      <trkpt lat="48.03977" lon="6.76706">
        <ele>825.6</ele>
        <time>2010-01-01T00:00:00Z</time>
      </trkpt>
      <trkpt lat="48.03974" lon="6.76694">
        <ele>825.1</ele>
        <time>2010-01-01T00:00:00Z</time>
      </trkpt>
      <trkpt lat="48.03969" lon="6.76684">
        <ele>824.7</ele>
        <time>2010-01-01T00:00:00Z</time>
      </trkpt>
      <trkpt lat="48.03964" lon="6.76674">
        <ele>824.4</ele>
        <time>2010-01-01T00:00:00Z</time>
      </trkpt>
      <trkpt lat="48.03958" lon="6.76668">
        <ele>824</ele>
        <time>2010-01-01T00:00:00Z</time>
      </trkpt>
      <trkpt lat="48.0395" lon="6.7666">
        <ele>819.9</ele>
        <time>2010-01-01T00:00:00Z</time>
      </trkpt>
      <trkpt lat="48.03944" lon="6.76655">
        <ele>819.6</ele>
        <time>2010-01-01T00:00:00Z</time>
      </trkpt>
      <trkpt lat="48.03938" lon="6.76651">
        <ele>819.4</ele>
        <time>2010-01-01T00:00:00Z</time>
      </trkpt>
      <trkpt lat="48.03931" lon="6.76648">
        <ele>819.3</ele>
        <time>2010-01-01T00:00:00Z</time>
      </trkpt>
      <trkpt lat="48.03923" lon="6.76646">
        <ele>819.1</ele>
        <time>2010-01-01T00:00:00Z</time>
      </trkpt>
      <trkpt lat="48.03915" lon="6.76645">
        <ele>815.7</ele>
        <time>2010-01-01T00:00:00Z</time>
      </trkpt>
      <trkpt lat="48.0391" lon="6.76642">
        <ele>815.2</ele>
        <time>2010-01-01T00:00:00Z</time>
      </trkpt>
      <trkpt lat="48.03902" lon="6.76636">
        <ele>814.3</ele>
        <time>2010-01-01T00:00:00Z</time>
      </trkpt>
      <trkpt lat="48.03897" lon="6.76632">
        <ele>813.8</ele>
        <time>2010-01-01T00:00:00Z</time>
      </trkpt>
      <trkpt lat="48.03891" lon="6.76624">
        <ele>813.1</ele>
        <time>2010-01-01T00:00:00Z</time>
      </trkpt>
      <trkpt lat="48.03884" lon="6.76612">
        <ele>812.3</ele>
        <time>2010-01-01T00:00:00Z</time>
      </trkpt>
      <trkpt lat="48.0388" lon="6.76607">
        <ele>812</ele>
        <time>2010-01-01T00:00:00Z</time>
      </trkpt>
      <trkpt lat="48.03878" lon="6.76603">
        <ele>811.8</ele>
        <time>2010-01-01T00:00:00Z</time>
      </trkpt>
      <trkpt lat="48.03871" lon="6.76592">
        <ele>811.1</ele>
        <time>2010-01-01T00:00:00Z</time>
      </trkpt>
      <trkpt lat="48.03861" lon="6.76582">
        <ele>807.4</ele>
        <time>2010-01-01T00:00:00Z</time>
      </trkpt>
      <trkpt lat="48.03857" lon="6.76572">
        <ele>807.2</ele>
        <time>2010-01-01T00:00:00Z</time>
      </trkpt>
      <trkpt lat="48.03855" lon="6.76564">
        <ele>807.2</ele>
        <time>2010-01-01T00:00:00Z</time>
      </trkpt>
      <trkpt lat="48.03855" lon="6.76551">
        <ele>807.1</ele>
        <time>2010-01-01T00:00:00Z</time>
      </trkpt>
      <trkpt lat="48.03854" lon="6.76547">
        <ele>807.1</ele>
        <time>2010-01-01T00:00:00Z</time>
      </trkpt>
      <trkpt lat="48.03852" lon="6.76544">
        <ele>807</ele>
        <time>2010-01-01T00:00:00Z</time>
      </trkpt>
      <trkpt lat="48.03849" lon="6.76543">
        <ele>807</ele>
        <time>2010-01-01T00:00:00Z</time>
      </trkpt>
      <trkpt lat="48.03846" lon="6.76542">
        <ele>806.9</ele>
        <time>2010-01-01T00:00:00Z</time>
      </trkpt>
      <trkpt lat="48.03838" lon="6.76534">
        <ele>806.7</ele>
        <time>2010-01-01T00:00:00Z</time>
      </trkpt>
      <trkpt lat="48.0383" lon="6.76529">
        <ele>807.2</ele>
        <time>2010-01-01T00:00:00Z</time>
      </trkpt>
      <trkpt lat="48.03821" lon="6.76522">
        <ele>807.3</ele>
        <time>2010-01-01T00:00:00Z</time>
      </trkpt>
      <trkpt lat="48.03813" lon="6.76513">
        <ele>807.5</ele>
        <time>2010-01-01T00:00:00Z</time>
      </trkpt>
      <trkpt lat="48.03805" lon="6.76502">
        <ele>808</ele>
        <time>2010-01-01T00:00:00Z</time>
      </trkpt>
      <trkpt lat="48.03797" lon="6.76491">
        <ele>811</ele>
        <time>2010-01-01T00:00:00Z</time>
      </trkpt>
      <trkpt lat="48.03792" lon="6.76482">
        <ele>811.6</ele>
        <time>2010-01-01T00:00:00Z</time>
      </trkpt>
      <trkpt lat="48.03786" lon="6.7647">
        <ele>812.3</ele>
        <time>2010-01-01T00:00:00Z</time>
      </trkpt>
      <trkpt lat="48.03784" lon="6.76464">
        <ele>812.6</ele>
        <time>2010-01-01T00:00:00Z</time>
      </trkpt>
      <trkpt lat="48.03784" lon="6.76457">
        <ele>812.8</ele>
        <time>2010-01-01T00:00:00Z</time>
      </trkpt>
      <trkpt lat="48.03784" lon="6.7645">
        <ele>813</ele>
        <time>2010-01-01T00:00:00Z</time>
      </trkpt>
      <trkpt lat="48.03773" lon="6.76379">
        <ele>814.6</ele>
        <time>2010-01-01T00:00:00Z</time>
      </trkpt>
      <trkpt lat="48.03761" lon="6.76336">
        <ele>815.6</ele>
        <time>2010-01-01T00:00:00Z</time>
      </trkpt>
      <trkpt lat="48.03759" lon="6.76332">
        <ele>814.8</ele>
        <time>2010-01-01T00:00:00Z</time>
      </trkpt>
      <trkpt lat="48.03759" lon="6.76332">
        <ele>814.8</ele>
        <time>2010-01-01T00:00:00Z</time>
      </trkpt>
      <trkpt lat="48.03746" lon="6.76307">
        <ele>821.6</ele>
        <time>2010-01-01T00:00:00Z</time>
      </trkpt>
      <trkpt lat="48.03718" lon="6.7628">
        <ele>823.9</ele>
        <time>2010-01-01T00:00:00Z</time>
      </trkpt>
      <trkpt lat="48.03699" lon="6.76257">
        <ele>826.2</ele>
        <time>2010-01-01T00:00:00Z</time>
      </trkpt>
      <trkpt lat="48.03666" lon="6.76233">
        <ele>834.4</ele>
        <time>2010-01-01T00:00:00Z</time>
      </trkpt>
      <trkpt lat="48.03647" lon="6.76223">
        <ele>835.4</ele>
        <time>2010-01-01T00:00:00Z</time>
      </trkpt>
      <trkpt lat="48.03632" lon="6.76194">
        <ele>835.3</ele>
        <time>2010-01-01T00:00:00Z</time>
      </trkpt>
      <trkpt lat="48.03628" lon="6.76185">
        <ele>835.2</ele>
        <time>2010-01-01T00:00:00Z</time>
      </trkpt>
      <trkpt lat="48.03626" lon="6.76178">
        <ele>835.1</ele>
        <time>2010-01-01T00:00:00Z</time>
      </trkpt>
      <trkpt lat="48.03625" lon="6.76157">
        <ele>831.2</ele>
        <time>2010-01-01T00:00:00Z</time>
      </trkpt>
      <trkpt lat="48.03626" lon="6.76147">
        <ele>830.9</ele>
        <time>2010-01-01T00:00:00Z</time>
      </trkpt>
      <trkpt lat="48.03627" lon="6.76136">
        <ele>830.6</ele>
        <time>2010-01-01T00:00:00Z</time>
      </trkpt>
      <trkpt lat="48.0363" lon="6.76121">
        <ele>830.1</ele>
        <time>2010-01-01T00:00:00Z</time>
      </trkpt>
      <trkpt lat="48.03624" lon="6.76126">
        <ele>830.6</ele>
        <time>2010-01-01T00:00:00Z</time>
      </trkpt>
      <trkpt lat="48.03617" lon="6.76134">
        <ele>831.2</ele>
        <time>2010-01-01T00:00:00Z</time>
      </trkpt>
      <trkpt lat="48.03615" lon="6.76136">
        <ele>831.4</ele>
        <time>2010-01-01T00:00:00Z</time>
      </trkpt>
      <trkpt lat="48.03612" lon="6.76136">
        <ele>831.6</ele>
        <time>2010-01-01T00:00:00Z</time>
      </trkpt>
      <trkpt lat="48.0361" lon="6.76134">
        <ele>831.7</ele>
        <time>2010-01-01T00:00:00Z</time>
      </trkpt>
      <trkpt lat="48.03609" lon="6.76129">
        <ele>831.6</ele>
        <time>2010-01-01T00:00:00Z</time>
      </trkpt>
      <trkpt lat="48.03606" lon="6.76116">
        <ele>831.3</ele>
        <time>2010-01-01T00:00:00Z</time>
      </trkpt>
      <trkpt lat="48.03606" lon="6.76109">
        <ele>831.2</ele>
        <time>2010-01-01T00:00:00Z</time>
      </trkpt>
      <trkpt lat="48.03606" lon="6.76099">
        <ele>831.2</ele>
        <time>2010-01-01T00:00:00Z</time>
      </trkpt>
      <trkpt lat="48.03606" lon="6.76088">
        <ele>831.2</ele>
        <time>2010-01-01T00:00:00Z</time>
      </trkpt>
      <trkpt lat="48.03607" lon="6.76077">
        <ele>829.8</ele>
        <time>2010-01-01T00:00:00Z</time>
      </trkpt>
      <trkpt lat="48.03609" lon="6.76059">
        <ele>829.3</ele>
        <time>2010-01-01T00:00:00Z</time>
      </trkpt>
      <trkpt lat="48.03612" lon="6.76042">
        <ele>828.9</ele>
        <time>2010-01-01T00:00:00Z</time>
      </trkpt>
      <trkpt lat="48.03612" lon="6.76033">
        <ele>828.9</ele>
        <time>2010-01-01T00:00:00Z</time>
      </trkpt>
      <trkpt lat="48.03612" lon="6.76023">
        <ele>828.9</ele>
        <time>2010-01-01T00:00:00Z</time>
      </trkpt>
      <trkpt lat="48.03611" lon="6.76015">
        <ele>829.1</ele>
        <time>2010-01-01T00:00:00Z</time>
      </trkpt>
      <trkpt lat="48.03608" lon="6.76008">
        <ele>829.4</ele>
        <time>2010-01-01T00:00:00Z</time>
      </trkpt>
      <trkpt lat="48.03602" lon="6.75997">
        <ele>830.7</ele>
        <time>2010-01-01T00:00:00Z</time>
      </trkpt>
      <trkpt lat="48.03594" lon="6.75986">
        <ele>831</ele>
        <time>2010-01-01T00:00:00Z</time>
      </trkpt>
      <trkpt lat="48.03589" lon="6.7598">
        <ele>831.1</ele>
        <time>2010-01-01T00:00:00Z</time>
      </trkpt>
      <trkpt lat="48.03583" lon="6.75972">
        <ele>834.1</ele>
        <time>2010-01-01T00:00:00Z</time>
      </trkpt>
      <trkpt lat="48.03577" lon="6.75963">
        <ele>834.5</ele>
        <time>2010-01-01T00:00:00Z</time>
      </trkpt>
      <trkpt lat="48.03573" lon="6.75958">
        <ele>834.7</ele>
        <time>2010-01-01T00:00:00Z</time>
      </trkpt>
      <trkpt lat="48.03569" lon="6.75951">
        <ele>834.9</ele>
        <time>2010-01-01T00:00:00Z</time>
      </trkpt>
      <trkpt lat="48.03562" lon="6.75945">
        <ele>835.1</ele>
        <time>2010-01-01T00:00:00Z</time>
      </trkpt>
      <trkpt lat="48.03557" lon="6.75942">
        <ele>835.2</ele>
        <time>2010-01-01T00:00:00Z</time>
      </trkpt>
      <trkpt lat="48.03563" lon="6.7592">
        <ele>835.6</ele>
        <time>2010-01-01T00:00:00Z</time>
      </trkpt>
      <trkpt lat="48.03582" lon="6.75866">
        <ele>837.8</ele>
        <time>2010-01-01T00:00:00Z</time>
      </trkpt>
      <trkpt lat="48.036" lon="6.75815">
        <ele>838.9</ele>
        <time>2010-01-01T00:00:00Z</time>
      </trkpt>
      <trkpt lat="48.03613" lon="6.75778">
        <ele>840</ele>
        <time>2010-01-01T00:00:00Z</time>
      </trkpt>
      <trkpt lat="48.03618" lon="6.75763">
        <ele>840.3</ele>
        <time>2010-01-01T00:00:00Z</time>
      </trkpt>
      <trkpt lat="48.03621" lon="6.75753">
        <ele>840.4</ele>
        <time>2010-01-01T00:00:00Z</time>
      </trkpt>
      <trkpt lat="48.03626" lon="6.75743">
        <ele>843.6</ele>
        <time>2010-01-01T00:00:00Z</time>
      </trkpt>
      <trkpt lat="48.03633" lon="6.75728">
        <ele>843.9</ele>
        <time>2010-01-01T00:00:00Z</time>
      </trkpt>
      <trkpt lat="48.03642" lon="6.75711">
        <ele>844.4</ele>
        <time>2010-01-01T00:00:00Z</time>
      </trkpt>
      <trkpt lat="48.03656" lon="6.75688">
        <ele>845.4</ele>
        <time>2010-01-01T00:00:00Z</time>
      </trkpt>
      <trkpt lat="48.03668" lon="6.75668">
        <ele>846.7</ele>
        <time>2010-01-01T00:00:00Z</time>
      </trkpt>
      <trkpt lat="48.03675" lon="6.75655">
        <ele>847.1</ele>
        <time>2010-01-01T00:00:00Z</time>
      </trkpt>
      <trkpt lat="48.03682" lon="6.7564">
        <ele>847.3</ele>
        <time>2010-01-01T00:00:00Z</time>
      </trkpt>
      <trkpt lat="48.03689" lon="6.75622">
        <ele>847.6</ele>
        <time>2010-01-01T00:00:00Z</time>
      </trkpt>
      <trkpt lat="48.03698" lon="6.75604">
        <ele>847.9</ele>
        <time>2010-01-01T00:00:00Z</time>
      </trkpt>
      <trkpt lat="48.03707" lon="6.75588">
        <ele>847.9</ele>
        <time>2010-01-01T00:00:00Z</time>
      </trkpt>
      <trkpt lat="48.03716" lon="6.75575">
        <ele>848.6</ele>
        <time>2010-01-01T00:00:00Z</time>
      </trkpt>
      <trkpt lat="48.0372" lon="6.75568">
        <ele>848.5</ele>
        <time>2010-01-01T00:00:00Z</time>
      </trkpt>
      <trkpt lat="48.0372" lon="6.75568">
        <ele>848.5</ele>
        <time>2010-01-01T00:00:00Z</time>
      </trkpt>
      <trkpt lat="48.03725" lon="6.75559">
        <ele>848.4</ele>
        <time>2010-01-01T00:00:00Z</time>
      </trkpt>
      <trkpt lat="48.03734" lon="6.75545">
        <ele>848.4</ele>
        <time>2010-01-01T00:00:00Z</time>
      </trkpt>
      <trkpt lat="48.03743" lon="6.75524">
        <ele>848.3</ele>
        <time>2010-01-01T00:00:00Z</time>
      </trkpt>
      <trkpt lat="48.03753" lon="6.75503">
        <ele>847.5</ele>
        <time>2010-01-01T00:00:00Z</time>
      </trkpt>
      <trkpt lat="48.03761" lon="6.75494">
        <ele>846.2</ele>
        <time>2010-01-01T00:00:00Z</time>
      </trkpt>
      <trkpt lat="48.03767" lon="6.75487">
        <ele>845.4</ele>
        <time>2010-01-01T00:00:00Z</time>
      </trkpt>
      <trkpt lat="48.0377" lon="6.75475">
        <ele>844.7</ele>
        <time>2010-01-01T00:00:00Z</time>
      </trkpt>
      <trkpt lat="48.03771" lon="6.75469">
        <ele>844.4</ele>
        <time>2010-01-01T00:00:00Z</time>
      </trkpt>
      <trkpt lat="48.03773" lon="6.7546">
        <ele>844.1</ele>
        <time>2010-01-01T00:00:00Z</time>
      </trkpt>
      <trkpt lat="48.03774" lon="6.75451">
        <ele>843.9</ele>
        <time>2010-01-01T00:00:00Z</time>
      </trkpt>
      <trkpt lat="48.03775" lon="6.7544">
        <ele>843.7</ele>
        <time>2010-01-01T00:00:00Z</time>
      </trkpt>
      <trkpt lat="48.03775" lon="6.75431">
        <ele>843.7</ele>
        <time>2010-01-01T00:00:00Z</time>
      </trkpt>
      <trkpt lat="48.03774" lon="6.75422">
        <ele>843.8</ele>
        <time>2010-01-01T00:00:00Z</time>
      </trkpt>
      <trkpt lat="48.03772" lon="6.75408">
        <ele>842</ele>
        <time>2010-01-01T00:00:00Z</time>
      </trkpt>
      <trkpt lat="48.0377" lon="6.75402">
        <ele>842</ele>
        <time>2010-01-01T00:00:00Z</time>
      </trkpt>
      <trkpt lat="48.03769" lon="6.75397">
        <ele>841.8</ele>
        <time>2010-01-01T00:00:00Z</time>
      </trkpt>
      <trkpt lat="48.03764" lon="6.75385">
        <ele>841.6</ele>
        <time>2010-01-01T00:00:00Z</time>
      </trkpt>
      <trkpt lat="48.03756" lon="6.75362">
        <ele>842</ele>
        <time>2010-01-01T00:00:00Z</time>
      </trkpt>
      <trkpt lat="48.03742" lon="6.75336">
        <ele>845.9</ele>
        <time>2010-01-01T00:00:00Z</time>
      </trkpt>
      <trkpt lat="48.03727" lon="6.75312">
        <ele>843.6</ele>
        <time>2010-01-01T00:00:00Z</time>
      </trkpt>
      <trkpt lat="48.03714" lon="6.75293">
        <ele>842.9</ele>
        <time>2010-01-01T00:00:00Z</time>
      </trkpt>
      <trkpt lat="48.03707" lon="6.75284">
        <ele>842.6</ele>
        <time>2010-01-01T00:00:00Z</time>
      </trkpt>
      <trkpt lat="48.03701" lon="6.75278">
        <ele>842.4</ele>
        <time>2010-01-01T00:00:00Z</time>
      </trkpt>
      <trkpt lat="48.03693" lon="6.75272">
        <ele>842.1</ele>
        <time>2010-01-01T00:00:00Z</time>
      </trkpt>
      <trkpt lat="48.03692" lon="6.75279">
        <ele>842.2</ele>
        <time>2010-01-01T00:00:00Z</time>
      </trkpt>
      <trkpt lat="48.03689" lon="6.75287">
        <ele>842.4</ele>
        <time>2010-01-01T00:00:00Z</time>
      </trkpt>
      <trkpt lat="48.03685" lon="6.75294">
        <ele>842.5</ele>
        <time>2010-01-01T00:00:00Z</time>
      </trkpt>
      <trkpt lat="48.03677" lon="6.75304">
        <ele>842.6</ele>
        <time>2010-01-01T00:00:00Z</time>
      </trkpt>
      <trkpt lat="48.03675" lon="6.75309">
        <ele>842.7</ele>
        <time>2010-01-01T00:00:00Z</time>
      </trkpt>
      <trkpt lat="48.03674" lon="6.75314">
        <ele>842.8</ele>
        <time>2010-01-01T00:00:00Z</time>
      </trkpt>
      <trkpt lat="48.03674" lon="6.7532">
        <ele>842.9</ele>
        <time>2010-01-01T00:00:00Z</time>
      </trkpt>
      <trkpt lat="48.03672" lon="6.75329">
        <ele>843</ele>
        <time>2010-01-01T00:00:00Z</time>
      </trkpt>
      <trkpt lat="48.03668" lon="6.75342">
        <ele>843.9</ele>
        <time>2010-01-01T00:00:00Z</time>
      </trkpt>
      <trkpt lat="48.03667" lon="6.75352">
        <ele>844.6</ele>
        <time>2010-01-01T00:00:00Z</time>
      </trkpt>
      <trkpt lat="48.03666" lon="6.75364">
        <ele>844.5</ele>
        <time>2010-01-01T00:00:00Z</time>
      </trkpt>
      <trkpt lat="48.03666" lon="6.75376">
        <ele>845.1</ele>
        <time>2010-01-01T00:00:00Z</time>
      </trkpt>
      <trkpt lat="48.03665" lon="6.75399">
        <ele>846.4</ele>
        <time>2010-01-01T00:00:00Z</time>
      </trkpt>
      <trkpt lat="48.03663" lon="6.75411">
        <ele>847.3</ele>
        <time>2010-01-01T00:00:00Z</time>
      </trkpt>
      <trkpt lat="48.0366" lon="6.75422">
        <ele>848.2</ele>
        <time>2010-01-01T00:00:00Z</time>
      </trkpt>
      <trkpt lat="48.03656" lon="6.75434">
        <ele>848.5</ele>
        <time>2010-01-01T00:00:00Z</time>
      </trkpt>
      <trkpt lat="48.0365" lon="6.75445">
        <ele>848.6</ele>
        <time>2010-01-01T00:00:00Z</time>
      </trkpt>
      <trkpt lat="48.03643" lon="6.75456">
        <ele>848.8</ele>
        <time>2010-01-01T00:00:00Z</time>
      </trkpt>
      <trkpt lat="48.03632" lon="6.75468">
        <ele>849</ele>
        <time>2010-01-01T00:00:00Z</time>
      </trkpt>
      <trkpt lat="48.03626" lon="6.75476">
        <ele>849.2</ele>
        <time>2010-01-01T00:00:00Z</time>
      </trkpt>
      <trkpt lat="48.03621" lon="6.75481">
        <ele>849.4</ele>
        <time>2010-01-01T00:00:00Z</time>
      </trkpt>
      <trkpt lat="48.03619" lon="6.75484">
        <ele>849.4</ele>
        <time>2010-01-01T00:00:00Z</time>
      </trkpt>
      <trkpt lat="48.03616" lon="6.75487">
        <ele>849.6</ele>
        <time>2010-01-01T00:00:00Z</time>
      </trkpt>
      <trkpt lat="48.03613" lon="6.75488">
        <ele>849.7</ele>
        <time>2010-01-01T00:00:00Z</time>
      </trkpt>
      <trkpt lat="48.03609" lon="6.75488">
        <ele>849.8</ele>
        <time>2010-01-01T00:00:00Z</time>
      </trkpt>
      <trkpt lat="48.03606" lon="6.75488">
        <ele>850</ele>
        <time>2010-01-01T00:00:00Z</time>
      </trkpt>
      <trkpt lat="48.03604" lon="6.75485">
        <ele>850</ele>
        <time>2010-01-01T00:00:00Z</time>
      </trkpt>
      <trkpt lat="48.03603" lon="6.75482">
        <ele>849.9</ele>
        <time>2010-01-01T00:00:00Z</time>
      </trkpt>
      <trkpt lat="48.03603" lon="6.7548">
        <ele>849.9</ele>
        <time>2010-01-01T00:00:00Z</time>
      </trkpt>
      <trkpt lat="48.03603" lon="6.75476">
        <ele>849.7</ele>
        <time>2010-01-01T00:00:00Z</time>
      </trkpt>
      <trkpt lat="48.03603" lon="6.75468">
        <ele>849.5</ele>
        <time>2010-01-01T00:00:00Z</time>
      </trkpt>
      <trkpt lat="48.03603" lon="6.7546">
        <ele>849.3</ele>
        <time>2010-01-01T00:00:00Z</time>
      </trkpt>
      <trkpt lat="48.03604" lon="6.75448">
        <ele>849</ele>
        <time>2010-01-01T00:00:00Z</time>
      </trkpt>
      <trkpt lat="48.03604" lon="6.75434">
        <ele>848.7</ele>
        <time>2010-01-01T00:00:00Z</time>
      </trkpt>
      <trkpt lat="48.03604" lon="6.75427">
        <ele>848.6</ele>
        <time>2010-01-01T00:00:00Z</time>
      </trkpt>
      <trkpt lat="48.03604" lon="6.75418">
        <ele>848.6</ele>
        <time>2010-01-01T00:00:00Z</time>
      </trkpt>
      <trkpt lat="48.03604" lon="6.75418">
        <ele>848.6</ele>
        <time>2010-01-01T00:00:00Z</time>
      </trkpt>
      <trkpt lat="48.03604" lon="6.75418">
        <ele>848.6</ele>
        <time>2010-01-01T00:00:00Z</time>
      </trkpt>
      <trkpt lat="48.03604" lon="6.75427">
        <ele>848.6</ele>
        <time>2010-01-01T00:00:00Z</time>
      </trkpt>
      <trkpt lat="48.03604" lon="6.75434">
        <ele>848.7</ele>
        <time>2010-01-01T00:00:00Z</time>
      </trkpt>
      <trkpt lat="48.03604" lon="6.75448">
        <ele>849</ele>
        <time>2010-01-01T00:00:00Z</time>
      </trkpt>
      <trkpt lat="48.03603" lon="6.7546">
        <ele>849.3</ele>
        <time>2010-01-01T00:00:00Z</time>
      </trkpt>
      <trkpt lat="48.03603" lon="6.75468">
        <ele>849.5</ele>
        <time>2010-01-01T00:00:00Z</time>
      </trkpt>
      <trkpt lat="48.03603" lon="6.75476">
        <ele>849.7</ele>
        <time>2010-01-01T00:00:00Z</time>
      </trkpt>
      <trkpt lat="48.03603" lon="6.7548">
        <ele>849.9</ele>
        <time>2010-01-01T00:00:00Z</time>
      </trkpt>
      <trkpt lat="48.03603" lon="6.75482">
        <ele>849.9</ele>
        <time>2010-01-01T00:00:00Z</time>
      </trkpt>
      <trkpt lat="48.03604" lon="6.75485">
        <ele>850</ele>
        <time>2010-01-01T00:00:00Z</time>
      </trkpt>
      <trkpt lat="48.03606" lon="6.75488">
        <ele>850</ele>
        <time>2010-01-01T00:00:00Z</time>
      </trkpt>
      <trkpt lat="48.03609" lon="6.75488">
        <ele>849.8</ele>
        <time>2010-01-01T00:00:00Z</time>
      </trkpt>
      <trkpt lat="48.03613" lon="6.75488">
        <ele>849.7</ele>
        <time>2010-01-01T00:00:00Z</time>
      </trkpt>
      <trkpt lat="48.03616" lon="6.75487">
        <ele>849.6</ele>
        <time>2010-01-01T00:00:00Z</time>
      </trkpt>
      <trkpt lat="48.03619" lon="6.75484">
        <ele>849.4</ele>
        <time>2010-01-01T00:00:00Z</time>
      </trkpt>
      <trkpt lat="48.03621" lon="6.75481">
        <ele>849.4</ele>
        <time>2010-01-01T00:00:00Z</time>
      </trkpt>
      <trkpt lat="48.03626" lon="6.75476">
        <ele>849.2</ele>
        <time>2010-01-01T00:00:00Z</time>
      </trkpt>
      <trkpt lat="48.03632" lon="6.75468">
        <ele>849</ele>
        <time>2010-01-01T00:00:00Z</time>
      </trkpt>
      <trkpt lat="48.03643" lon="6.75456">
        <ele>848.8</ele>
        <time>2010-01-01T00:00:00Z</time>
      </trkpt>
      <trkpt lat="48.0365" lon="6.75445">
        <ele>848.6</ele>
        <time>2010-01-01T00:00:00Z</time>
      </trkpt>
      <trkpt lat="48.03656" lon="6.75434">
        <ele>848.5</ele>
        <time>2010-01-01T00:00:00Z</time>
      </trkpt>
      <trkpt lat="48.0366" lon="6.75422">
        <ele>848.2</ele>
        <time>2010-01-01T00:00:00Z</time>
      </trkpt>
      <trkpt lat="48.03663" lon="6.75411">
        <ele>847.3</ele>
        <time>2010-01-01T00:00:00Z</time>
      </trkpt>
      <trkpt lat="48.03665" lon="6.75399">
        <ele>846.4</ele>
        <time>2010-01-01T00:00:00Z</time>
      </trkpt>
      <trkpt lat="48.03666" lon="6.75376">
        <ele>845.1</ele>
        <time>2010-01-01T00:00:00Z</time>
      </trkpt>
      <trkpt lat="48.03666" lon="6.75364">
        <ele>844.5</ele>
        <time>2010-01-01T00:00:00Z</time>
      </trkpt>
      <trkpt lat="48.03667" lon="6.75352">
        <ele>844.6</ele>
        <time>2010-01-01T00:00:00Z</time>
      </trkpt>
      <trkpt lat="48.03668" lon="6.75342">
        <ele>843.9</ele>
        <time>2010-01-01T00:00:00Z</time>
      </trkpt>
      <trkpt lat="48.03672" lon="6.75329">
        <ele>843</ele>
        <time>2010-01-01T00:00:00Z</time>
      </trkpt>
      <trkpt lat="48.03674" lon="6.7532">
        <ele>842.9</ele>
        <time>2010-01-01T00:00:00Z</time>
      </trkpt>
      <trkpt lat="48.03674" lon="6.75314">
        <ele>842.8</ele>
        <time>2010-01-01T00:00:00Z</time>
      </trkpt>
      <trkpt lat="48.03675" lon="6.75309">
        <ele>842.7</ele>
        <time>2010-01-01T00:00:00Z</time>
      </trkpt>
      <trkpt lat="48.03677" lon="6.75304">
        <ele>842.6</ele>
        <time>2010-01-01T00:00:00Z</time>
      </trkpt>
      <trkpt lat="48.03685" lon="6.75294">
        <ele>842.5</ele>
        <time>2010-01-01T00:00:00Z</time>
      </trkpt>
      <trkpt lat="48.03689" lon="6.75287">
        <ele>842.4</ele>
        <time>2010-01-01T00:00:00Z</time>
      </trkpt>
      <trkpt lat="48.03692" lon="6.75279">
        <ele>842.2</ele>
        <time>2010-01-01T00:00:00Z</time>
      </trkpt>
      <trkpt lat="48.03693" lon="6.75272">
        <ele>842.1</ele>
        <time>2010-01-01T00:00:00Z</time>
      </trkpt>
      <trkpt lat="48.03685" lon="6.75264">
        <ele>841.6</ele>
        <time>2010-01-01T00:00:00Z</time>
      </trkpt>
      <trkpt lat="48.03677" lon="6.75255">
        <ele>841</ele>
        <time>2010-01-01T00:00:00Z</time>
      </trkpt>
      <trkpt lat="48.03671" lon="6.75247">
        <ele>839.5</ele>
        <time>2010-01-01T00:00:00Z</time>
      </trkpt>
      <trkpt lat="48.03667" lon="6.7524">
        <ele>839</ele>
        <time>2010-01-01T00:00:00Z</time>
      </trkpt>
      <trkpt lat="48.03664" lon="6.75232">
        <ele>835.8</ele>
        <time>2010-01-01T00:00:00Z</time>
      </trkpt>
      <trkpt lat="48.0366" lon="6.75224">
        <ele>834.6</ele>
        <time>2010-01-01T00:00:00Z</time>
      </trkpt>
      <trkpt lat="48.03653" lon="6.75214">
        <ele>833.4</ele>
        <time>2010-01-01T00:00:00Z</time>
      </trkpt>
      <trkpt lat="48.03645" lon="6.75204">
        <ele>832.5</ele>
        <time>2010-01-01T00:00:00Z</time>
      </trkpt>
      <trkpt lat="48.03637" lon="6.7519">
        <ele>831.6</ele>
        <time>2010-01-01T00:00:00Z</time>
      </trkpt>
      <trkpt lat="48.03629" lon="6.75173">
        <ele>830.7</ele>
        <time>2010-01-01T00:00:00Z</time>
      </trkpt>
      <trkpt lat="48.03623" lon="6.75161">
        <ele>825.1</ele>
        <time>2010-01-01T00:00:00Z</time>
      </trkpt>
      <trkpt lat="48.03605" lon="6.75182">
        <ele>829.1</ele>
        <time>2010-01-01T00:00:00Z</time>
      </trkpt>
      <trkpt lat="48.03593" lon="6.752">
        <ele>829.8</ele>
        <time>2010-01-01T00:00:00Z</time>
      </trkpt>
      <trkpt lat="48.03589" lon="6.75206">
        <ele>830.1</ele>
        <time>2010-01-01T00:00:00Z</time>
      </trkpt>
      <trkpt lat="48.03579" lon="6.7522">
        <ele>821</ele>
        <time>2010-01-01T00:00:00Z</time>
      </trkpt>
      <trkpt lat="48.03562" lon="6.75242">
        <ele>821.5</ele>
        <time>2010-01-01T00:00:00Z</time>
      </trkpt>
      <trkpt lat="48.0355" lon="6.75262">
        <ele>824</ele>
        <time>2010-01-01T00:00:00Z</time>
      </trkpt>
      <trkpt lat="48.03534" lon="6.75282">
        <ele>822.3</ele>
        <time>2010-01-01T00:00:00Z</time>
      </trkpt>
      <trkpt lat="48.03519" lon="6.75301">
        <ele>821.7</ele>
        <time>2010-01-01T00:00:00Z</time>
      </trkpt>
      <trkpt lat="48.03507" lon="6.75318">
        <ele>820.6</ele>
        <time>2010-01-01T00:00:00Z</time>
      </trkpt>
      <trkpt lat="48.03497" lon="6.75336">
        <ele>817</ele>
        <time>2010-01-01T00:00:00Z</time>
      </trkpt>
      <trkpt lat="48.03489" lon="6.75354">
        <ele>814.6</ele>
        <time>2010-01-01T00:00:00Z</time>
      </trkpt>
      <trkpt lat="48.03477" lon="6.75389">
        <ele>815.7</ele>
        <time>2010-01-01T00:00:00Z</time>
      </trkpt>
      <trkpt lat="48.03468" lon="6.75418">
        <ele>823.6</ele>
        <time>2010-01-01T00:00:00Z</time>
      </trkpt>
      <trkpt lat="48.03457" lon="6.75434">
        <ele>822.3</ele>
        <time>2010-01-01T00:00:00Z</time>
      </trkpt>
      <trkpt lat="48.03447" lon="6.7545">
        <ele>822.1</ele>
        <time>2010-01-01T00:00:00Z</time>
      </trkpt>
      <trkpt lat="48.03445" lon="6.75453">
        <ele>822.1</ele>
        <time>2010-01-01T00:00:00Z</time>
      </trkpt>
      <trkpt lat="48.03431" lon="6.7543">
        <ele>816.8</ele>
        <time>2010-01-01T00:00:00Z</time>
      </trkpt>
      <trkpt lat="48.03445" lon="6.75453">
        <ele>822.1</ele>
        <time>2010-01-01T00:00:00Z</time>
      </trkpt>
      <trkpt lat="48.03431" lon="6.75472">
        <ele>822.2</ele>
        <time>2010-01-01T00:00:00Z</time>
      </trkpt>
      <trkpt lat="48.0342" lon="6.75487">
        <ele>821.9</ele>
        <time>2010-01-01T00:00:00Z</time>
      </trkpt>
      <trkpt lat="48.03409" lon="6.75502">
        <ele>819.8</ele>
        <time>2010-01-01T00:00:00Z</time>
      </trkpt>
      <trkpt lat="48.03396" lon="6.75514">
        <ele>818.2</ele>
        <time>2010-01-01T00:00:00Z</time>
      </trkpt>
      <trkpt lat="48.03387" lon="6.75522">
        <ele>817.4</ele>
        <time>2010-01-01T00:00:00Z</time>
      </trkpt>
      <trkpt lat="48.03376" lon="6.7553">
        <ele>816.5</ele>
        <time>2010-01-01T00:00:00Z</time>
      </trkpt>
      <trkpt lat="48.03369" lon="6.75537">
        <ele>816.1</ele>
        <time>2010-01-01T00:00:00Z</time>
      </trkpt>
      <trkpt lat="48.03356" lon="6.75559">
        <ele>815.9</ele>
        <time>2010-01-01T00:00:00Z</time>
      </trkpt>
      <trkpt lat="48.03342" lon="6.75584">
        <ele>816</ele>
        <time>2010-01-01T00:00:00Z</time>
      </trkpt>
      <trkpt lat="48.03335" lon="6.75594">
        <ele>816.5</ele>
        <time>2010-01-01T00:00:00Z</time>
      </trkpt>
      <trkpt lat="48.03329" lon="6.75605">
        <ele>807.4</ele>
        <time>2010-01-01T00:00:00Z</time>
      </trkpt>
      <trkpt lat="48.03324" lon="6.75616">
        <ele>806.3</ele>
        <time>2010-01-01T00:00:00Z</time>
      </trkpt>
      <trkpt lat="48.03319" lon="6.75624">
        <ele>805.8</ele>
        <time>2010-01-01T00:00:00Z</time>
      </trkpt>
      <trkpt lat="48.03317" lon="6.75627">
        <ele>805.7</ele>
        <time>2010-01-01T00:00:00Z</time>
      </trkpt>
      <trkpt lat="48.03315" lon="6.75628">
        <ele>805.5</ele>
        <time>2010-01-01T00:00:00Z</time>
      </trkpt>
      <trkpt lat="48.03314" lon="6.75629">
        <ele>805.4</ele>
        <time>2010-01-01T00:00:00Z</time>
      </trkpt>
      <trkpt lat="48.03311" lon="6.75629">
        <ele>805</ele>
        <time>2010-01-01T00:00:00Z</time>
      </trkpt>
      <trkpt lat="48.03309" lon="6.75627">
        <ele>804.6</ele>
        <time>2010-01-01T00:00:00Z</time>
      </trkpt>
      <trkpt lat="48.03308" lon="6.75624">
        <ele>804.4</ele>
        <time>2010-01-01T00:00:00Z</time>
      </trkpt>
      <trkpt lat="48.03309" lon="6.7562">
        <ele>804.5</ele>
        <time>2010-01-01T00:00:00Z</time>
      </trkpt>
      <trkpt lat="48.03309" lon="6.75614">
        <ele>804.5</ele>
        <time>2010-01-01T00:00:00Z</time>
      </trkpt>
      <trkpt lat="48.03312" lon="6.75592">
        <ele>805.9</ele>
        <time>2010-01-01T00:00:00Z</time>
      </trkpt>
      <trkpt lat="48.03315" lon="6.75571">
        <ele>803.3</ele>
        <time>2010-01-01T00:00:00Z</time>
      </trkpt>
      <trkpt lat="48.03318" lon="6.75554">
        <ele>801.3</ele>
        <time>2010-01-01T00:00:00Z</time>
      </trkpt>
      <trkpt lat="48.03321" lon="6.75546">
        <ele>800.7</ele>
        <time>2010-01-01T00:00:00Z</time>
      </trkpt>
      <trkpt lat="48.0332" lon="6.75536">
        <ele>800</ele>
        <time>2010-01-01T00:00:00Z</time>
      </trkpt>
      <trkpt lat="48.0332" lon="6.75532">
        <ele>799.8</ele>
        <time>2010-01-01T00:00:00Z</time>
      </trkpt>
      <trkpt lat="48.03319" lon="6.7552">
        <ele>799.8</ele>
        <time>2010-01-01T00:00:00Z</time>
      </trkpt>
      <trkpt lat="48.0332" lon="6.7551">
        <ele>800.4</ele>
        <time>2010-01-01T00:00:00Z</time>
      </trkpt>
      <trkpt lat="48.03322" lon="6.755">
        <ele>798.2</ele>
        <time>2010-01-01T00:00:00Z</time>
      </trkpt>
      <trkpt lat="48.03325" lon="6.75491">
        <ele>797.8</ele>
        <time>2010-01-01T00:00:00Z</time>
      </trkpt>
      <trkpt lat="48.03329" lon="6.75478">
        <ele>794.9</ele>
        <time>2010-01-01T00:00:00Z</time>
      </trkpt>
      <trkpt lat="48.03331" lon="6.75468">
        <ele>793.1</ele>
        <time>2010-01-01T00:00:00Z</time>
      </trkpt>
      <trkpt lat="48.03332" lon="6.75459">
        <ele>792</ele>
        <time>2010-01-01T00:00:00Z</time>
      </trkpt>
      <trkpt lat="48.03332" lon="6.75448">
        <ele>791.1</ele>
        <time>2010-01-01T00:00:00Z</time>
      </trkpt>
      <trkpt lat="48.03332" lon="6.7544">
        <ele>790.8</ele>
        <time>2010-01-01T00:00:00Z</time>
      </trkpt>
      <trkpt lat="48.03332" lon="6.75433">
        <ele>790.8</ele>
        <time>2010-01-01T00:00:00Z</time>
      </trkpt>
      <trkpt lat="48.03325" lon="6.7544">
        <ele>790.5</ele>
        <time>2010-01-01T00:00:00Z</time>
      </trkpt>
      <trkpt lat="48.03318" lon="6.7545">
        <ele>790.4</ele>
        <time>2010-01-01T00:00:00Z</time>
      </trkpt>
      <trkpt lat="48.03311" lon="6.75457">
        <ele>790.3</ele>
        <time>2010-01-01T00:00:00Z</time>
      </trkpt>
      <trkpt lat="48.03304" lon="6.75463">
        <ele>790</ele>
        <time>2010-01-01T00:00:00Z</time>
      </trkpt>
      <trkpt lat="48.03296" lon="6.75472">
        <ele>789.6</ele>
        <time>2010-01-01T00:00:00Z</time>
      </trkpt>
      <trkpt lat="48.03289" lon="6.75483">
        <ele>789.1</ele>
        <time>2010-01-01T00:00:00Z</time>
      </trkpt>
      <trkpt lat="48.03284" lon="6.75492">
        <ele>788.5</ele>
        <time>2010-01-01T00:00:00Z</time>
      </trkpt>
      <trkpt lat="48.0328" lon="6.75501">
        <ele>792.8</ele>
        <time>2010-01-01T00:00:00Z</time>
      </trkpt>
      <trkpt lat="48.03271" lon="6.75523">
        <ele>792.5</ele>
        <time>2010-01-01T00:00:00Z</time>
      </trkpt>
      <trkpt lat="48.03263" lon="6.75541">
        <ele>793.1</ele>
        <time>2010-01-01T00:00:00Z</time>
      </trkpt>
      <trkpt lat="48.03255" lon="6.75563">
        <ele>792.3</ele>
        <time>2010-01-01T00:00:00Z</time>
      </trkpt>
      <trkpt lat="48.03249" lon="6.75578">
        <ele>784.8</ele>
        <time>2010-01-01T00:00:00Z</time>
      </trkpt>
      <trkpt lat="48.03245" lon="6.75591">
        <ele>783.6</ele>
        <time>2010-01-01T00:00:00Z</time>
      </trkpt>
      <trkpt lat="48.03241" lon="6.756">
        <ele>780.7</ele>
        <time>2010-01-01T00:00:00Z</time>
      </trkpt>
      <trkpt lat="48.03239" lon="6.75609">
        <ele>779.1</ele>
        <time>2010-01-01T00:00:00Z</time>
      </trkpt>
      <trkpt lat="48.03237" lon="6.75625">
        <ele>778.2</ele>
        <time>2010-01-01T00:00:00Z</time>
      </trkpt>
      <trkpt lat="48.03236" lon="6.75638">
        <ele>778.8</ele>
        <time>2010-01-01T00:00:00Z</time>
      </trkpt>
      <trkpt lat="48.03235" lon="6.75653">
        <ele>780.7</ele>
        <time>2010-01-01T00:00:00Z</time>
      </trkpt>
      <trkpt lat="48.03236" lon="6.75665">
        <ele>782.7</ele>
        <time>2010-01-01T00:00:00Z</time>
      </trkpt>
      <trkpt lat="48.03236" lon="6.75678">
        <ele>780.6</ele>
        <time>2010-01-01T00:00:00Z</time>
      </trkpt>
      <trkpt lat="48.03236" lon="6.7569">
        <ele>778.3</ele>
        <time>2010-01-01T00:00:00Z</time>
      </trkpt>
      <trkpt lat="48.03235" lon="6.75702">
        <ele>776.8</ele>
        <time>2010-01-01T00:00:00Z</time>
      </trkpt>
      <trkpt lat="48.03232" lon="6.75714">
        <ele>775.9</ele>
        <time>2010-01-01T00:00:00Z</time>
      </trkpt>
      <trkpt lat="48.0323" lon="6.75727">
        <ele>776</ele>
        <time>2010-01-01T00:00:00Z</time>
      </trkpt>
      <trkpt lat="48.03228" lon="6.7574">
        <ele>776.5</ele>
        <time>2010-01-01T00:00:00Z</time>
      </trkpt>
      <trkpt lat="48.03222" lon="6.75772">
        <ele>773.8</ele>
        <time>2010-01-01T00:00:00Z</time>
      </trkpt>
      <trkpt lat="48.03216" lon="6.758">
        <ele>772.7</ele>
        <time>2010-01-01T00:00:00Z</time>
      </trkpt>
      <trkpt lat="48.0321" lon="6.75822">
        <ele>771.9</ele>
        <time>2010-01-01T00:00:00Z</time>
      </trkpt>
      <trkpt lat="48.03202" lon="6.75852">
        <ele>771.5</ele>
        <time>2010-01-01T00:00:00Z</time>
      </trkpt>
      <trkpt lat="48.03197" lon="6.75874">
        <ele>771.1</ele>
        <time>2010-01-01T00:00:00Z</time>
      </trkpt>
      <trkpt lat="48.03193" lon="6.75885">
        <ele>770.4</ele>
        <time>2010-01-01T00:00:00Z</time>
      </trkpt>
      <trkpt lat="48.03188" lon="6.75896">
        <ele>769</ele>
        <time>2010-01-01T00:00:00Z</time>
      </trkpt>
      <trkpt lat="48.03181" lon="6.75917">
        <ele>766.5</ele>
        <time>2010-01-01T00:00:00Z</time>
      </trkpt>
      <trkpt lat="48.03171" lon="6.75946">
        <ele>769.4</ele>
        <time>2010-01-01T00:00:00Z</time>
      </trkpt>
      <trkpt lat="48.03164" lon="6.75968">
        <ele>756.8</ele>
        <time>2010-01-01T00:00:00Z</time>
      </trkpt>
      <trkpt lat="48.03159" lon="6.7598">
        <ele>757.8</ele>
        <time>2010-01-01T00:00:00Z</time>
      </trkpt>
      <trkpt lat="48.03153" lon="6.75996">
        <ele>758.9</ele>
        <time>2010-01-01T00:00:00Z</time>
      </trkpt>
      <trkpt lat="48.03146" lon="6.76016">
        <ele>758</ele>
        <time>2010-01-01T00:00:00Z</time>
      </trkpt>
      <trkpt lat="48.03139" lon="6.76036">
        <ele>756.8</ele>
        <time>2010-01-01T00:00:00Z</time>
      </trkpt>
      <trkpt lat="48.03135" lon="6.76054">
        <ele>756.4</ele>
        <time>2010-01-01T00:00:00Z</time>
      </trkpt>
      <trkpt lat="48.03131" lon="6.7607">
        <ele>756.1</ele>
        <time>2010-01-01T00:00:00Z</time>
      </trkpt>
      <trkpt lat="48.03131" lon="6.76074">
        <ele>756.1</ele>
        <time>2010-01-01T00:00:00Z</time>
      </trkpt>
      <trkpt lat="48.03129" lon="6.76083">
        <ele>755.9</ele>
        <time>2010-01-01T00:00:00Z</time>
      </trkpt>
      <trkpt lat="48.03128" lon="6.76091">
        <ele>754.8</ele>
        <time>2010-01-01T00:00:00Z</time>
      </trkpt>
      <trkpt lat="48.03125" lon="6.76105">
        <ele>754.2</ele>
        <time>2010-01-01T00:00:00Z</time>
      </trkpt>
      <trkpt lat="48.03122" lon="6.76113">
        <ele>753.8</ele>
        <time>2010-01-01T00:00:00Z</time>
      </trkpt>
      <trkpt lat="48.03122" lon="6.76113">
        <ele>753.8</ele>
        <time>2010-01-01T00:00:00Z</time>
      </trkpt>
      <trkpt lat="48.0312" lon="6.76119">
        <ele>753.6</ele>
        <time>2010-01-01T00:00:00Z</time>
      </trkpt>
      <trkpt lat="48.03116" lon="6.76128">
        <ele>753</ele>
        <time>2010-01-01T00:00:00Z</time>
      </trkpt>
      <trkpt lat="48.03119" lon="6.76131">
        <ele>753.3</ele>
        <time>2010-01-01T00:00:00Z</time>
      </trkpt>
      <trkpt lat="48.03123" lon="6.76139">
        <ele>753.6</ele>
        <time>2010-01-01T00:00:00Z</time>
      </trkpt>
      <trkpt lat="48.03126" lon="6.76145">
        <ele>753.9</ele>
        <time>2010-01-01T00:00:00Z</time>
      </trkpt>
      <trkpt lat="48.03123" lon="6.76148">
        <ele>753.5</ele>
        <time>2010-01-01T00:00:00Z</time>
      </trkpt>
      <trkpt lat="48.03121" lon="6.76149">
        <ele>753.2</ele>
        <time>2010-01-01T00:00:00Z</time>
      </trkpt>
      <trkpt lat="48.03118" lon="6.76154">
        <ele>752.7</ele>
        <time>2010-01-01T00:00:00Z</time>
      </trkpt>
      <trkpt lat="48.03118" lon="6.76161">
        <ele>752.5</ele>
        <time>2010-01-01T00:00:00Z</time>
      </trkpt>
      <trkpt lat="48.03118" lon="6.7617">
        <ele>749.2</ele>
        <time>2010-01-01T00:00:00Z</time>
      </trkpt>
      <trkpt lat="48.03123" lon="6.76194">
        <ele>749.2</ele>
        <time>2010-01-01T00:00:00Z</time>
      </trkpt>
      <trkpt lat="48.03129" lon="6.76215">
        <ele>748.9</ele>
        <time>2010-01-01T00:00:00Z</time>
      </trkpt>
      <trkpt lat="48.03133" lon="6.76229">
        <ele>748.9</ele>
        <time>2010-01-01T00:00:00Z</time>
      </trkpt>
      <trkpt lat="48.0314" lon="6.76244">
        <ele>749.8</ele>
        <time>2010-01-01T00:00:00Z</time>
      </trkpt>
      <trkpt lat="48.03149" lon="6.76268">
        <ele>744.2</ele>
        <time>2010-01-01T00:00:00Z</time>
      </trkpt>
      <trkpt lat="48.03158" lon="6.76296">
        <ele>741.3</ele>
        <time>2010-01-01T00:00:00Z</time>
      </trkpt>
      <trkpt lat="48.03167" lon="6.76324">
        <ele>749.9</ele>
        <time>2010-01-01T00:00:00Z</time>
      </trkpt>
      <trkpt lat="48.03173" lon="6.76343">
        <ele>748.1</ele>
        <time>2010-01-01T00:00:00Z</time>
      </trkpt>
      <trkpt lat="48.0318" lon="6.76362">
        <ele>752.1</ele>
        <time>2010-01-01T00:00:00Z</time>
      </trkpt>
      <trkpt lat="48.03185" lon="6.76375">
        <ele>752.9</ele>
        <time>2010-01-01T00:00:00Z</time>
      </trkpt>
      <trkpt lat="48.03189" lon="6.76386">
        <ele>752.9</ele>
        <time>2010-01-01T00:00:00Z</time>
      </trkpt>
      <trkpt lat="48.0319" lon="6.76394">
        <ele>752.3</ele>
        <time>2010-01-01T00:00:00Z</time>
      </trkpt>
      <trkpt lat="48.0319" lon="6.76399">
        <ele>751.8</ele>
        <time>2010-01-01T00:00:00Z</time>
      </trkpt>
      <trkpt lat="48.03189" lon="6.76405">
        <ele>750.8</ele>
        <time>2010-01-01T00:00:00Z</time>
      </trkpt>
      <trkpt lat="48.03187" lon="6.7641">
        <ele>749.5</ele>
        <time>2010-01-01T00:00:00Z</time>
      </trkpt>
      <trkpt lat="48.03182" lon="6.76419">
        <ele>747.2</ele>
        <time>2010-01-01T00:00:00Z</time>
      </trkpt>
      <trkpt lat="48.03174" lon="6.76425">
        <ele>744.9</ele>
        <time>2010-01-01T00:00:00Z</time>
      </trkpt>
      <trkpt lat="48.03165" lon="6.76431">
        <ele>733.7</ele>
        <time>2010-01-01T00:00:00Z</time>
      </trkpt>
      <trkpt lat="48.03159" lon="6.76437">
        <ele>732.3</ele>
        <time>2010-01-01T00:00:00Z</time>
      </trkpt>
      <trkpt lat="48.03155" lon="6.76444">
        <ele>731.3</ele>
        <time>2010-01-01T00:00:00Z</time>
      </trkpt>
      <trkpt lat="48.03151" lon="6.76456">
        <ele>730.8</ele>
        <time>2010-01-01T00:00:00Z</time>
      </trkpt>
      <trkpt lat="48.03148" lon="6.76487">
        <ele>733</ele>
        <time>2010-01-01T00:00:00Z</time>
      </trkpt>
      <trkpt lat="48.03145" lon="6.76514">
        <ele>735.4</ele>
        <time>2010-01-01T00:00:00Z</time>
      </trkpt>
      <trkpt lat="48.03143" lon="6.76535">
        <ele>734.8</ele>
        <time>2010-01-01T00:00:00Z</time>
      </trkpt>
      <trkpt lat="48.03139" lon="6.76556">
        <ele>735.4</ele>
        <time>2010-01-01T00:00:00Z</time>
      </trkpt>
      <trkpt lat="48.03137" lon="6.7657">
        <ele>736.1</ele>
        <time>2010-01-01T00:00:00Z</time>
      </trkpt>
      <trkpt lat="48.03133" lon="6.76582">
        <ele>735.5</ele>
        <time>2010-01-01T00:00:00Z</time>
      </trkpt>
      <trkpt lat="48.03127" lon="6.76595">
        <ele>735.5</ele>
        <time>2010-01-01T00:00:00Z</time>
      </trkpt>
      <trkpt lat="48.03119" lon="6.76608">
        <ele>733.7</ele>
        <time>2010-01-01T00:00:00Z</time>
      </trkpt>
      <trkpt lat="48.03112" lon="6.76619">
        <ele>732.5</ele>
        <time>2010-01-01T00:00:00Z</time>
      </trkpt>
      <trkpt lat="48.03105" lon="6.76629">
        <ele>731.2</ele>
        <time>2010-01-01T00:00:00Z</time>
      </trkpt>
      <trkpt lat="48.03101" lon="6.76639">
        <ele>729.8</ele>
        <time>2010-01-01T00:00:00Z</time>
      </trkpt>
      <trkpt lat="48.03099" lon="6.76647">
        <ele>728.4</ele>
        <time>2010-01-01T00:00:00Z</time>
      </trkpt>
      <trkpt lat="48.03091" lon="6.76688">
        <ele>726.4</ele>
        <time>2010-01-01T00:00:00Z</time>
      </trkpt>
      <trkpt lat="48.03085" lon="6.76715">
        <ele>726.8</ele>
        <time>2010-01-01T00:00:00Z</time>
      </trkpt>
      <trkpt lat="48.03082" lon="6.76735">
        <ele>706.9</ele>
        <time>2010-01-01T00:00:00Z</time>
      </trkpt>
      <trkpt lat="48.03082" lon="6.76748">
        <ele>712.4</ele>
        <time>2010-01-01T00:00:00Z</time>
      </trkpt>
      <trkpt lat="48.03082" lon="6.76758">
        <ele>708.4</ele>
        <time>2010-01-01T00:00:00Z</time>
      </trkpt>
      <trkpt lat="48.03082" lon="6.76768">
        <ele>704</ele>
        <time>2010-01-01T00:00:00Z</time>
      </trkpt>
      <trkpt lat="48.03083" lon="6.76782">
        <ele>700.7</ele>
        <time>2010-01-01T00:00:00Z</time>
      </trkpt>
      <trkpt lat="48.03087" lon="6.76809">
        <ele>719.5</ele>
        <time>2010-01-01T00:00:00Z</time>
      </trkpt>
      <trkpt lat="48.03095" lon="6.76863">
        <ele>715.7</ele>
        <time>2010-01-01T00:00:00Z</time>
      </trkpt>
      <trkpt lat="48.03105" lon="6.76925">
        <ele>706.1</ele>
        <time>2010-01-01T00:00:00Z</time>
      </trkpt>
      <trkpt lat="48.03105" lon="6.76928">
        <ele>706.2</ele>
        <time>2010-01-01T00:00:00Z</time>
      </trkpt>
      <trkpt lat="48.0311" lon="6.76965">
        <ele>705.4</ele>
        <time>2010-01-01T00:00:00Z</time>
      </trkpt>
      <trkpt lat="48.03115" lon="6.76992">
        <ele>703.2</ele>
        <time>2010-01-01T00:00:00Z</time>
      </trkpt>
      <trkpt lat="48.0312" lon="6.77015">
        <ele>693.9</ele>
        <time>2010-01-01T00:00:00Z</time>
      </trkpt>
      <trkpt lat="48.03129" lon="6.77039">
        <ele>694.1</ele>
        <time>2010-01-01T00:00:00Z</time>
      </trkpt>
      <trkpt lat="48.03138" lon="6.77062">
        <ele>694</ele>
        <time>2010-01-01T00:00:00Z</time>
      </trkpt>
      <trkpt lat="48.03152" lon="6.77092">
        <ele>689</ele>
        <time>2010-01-01T00:00:00Z</time>
      </trkpt>
      <trkpt lat="48.03162" lon="6.77125">
        <ele>682.4</ele>
        <time>2010-01-01T00:00:00Z</time>
      </trkpt>
      <trkpt lat="48.03168" lon="6.77155">
        <ele>693.8</ele>
        <time>2010-01-01T00:00:00Z</time>
      </trkpt>
      <trkpt lat="48.03173" lon="6.77188">
        <ele>690.8</ele>
        <time>2010-01-01T00:00:00Z</time>
      </trkpt>
      <trkpt lat="48.03174" lon="6.77209">
        <ele>691</ele>
        <time>2010-01-01T00:00:00Z</time>
      </trkpt>
      <trkpt lat="48.03176" lon="6.77238">
        <ele>683.5</ele>
        <time>2010-01-01T00:00:00Z</time>
      </trkpt>
      <trkpt lat="48.03179" lon="6.77255">
        <ele>679.1</ele>
        <time>2010-01-01T00:00:00Z</time>
      </trkpt>
      <trkpt lat="48.0318" lon="6.77268">
        <ele>681.8</ele>
        <time>2010-01-01T00:00:00Z</time>
      </trkpt>
      <trkpt lat="48.03183" lon="6.77277">
        <ele>683.6</ele>
        <time>2010-01-01T00:00:00Z</time>
      </trkpt>
      <trkpt lat="48.03188" lon="6.77301">
        <ele>683.9</ele>
        <time>2010-01-01T00:00:00Z</time>
      </trkpt>
      <trkpt lat="48.0319" lon="6.77317">
        <ele>682.1</ele>
        <time>2010-01-01T00:00:00Z</time>
      </trkpt>
      <trkpt lat="48.03192" lon="6.77344">
        <ele>677.1</ele>
        <time>2010-01-01T00:00:00Z</time>
      </trkpt>
      <trkpt lat="48.03194" lon="6.7737">
        <ele>678.3</ele>
        <time>2010-01-01T00:00:00Z</time>
      </trkpt>
      <trkpt lat="48.03197" lon="6.77411">
        <ele>675.5</ele>
        <time>2010-01-01T00:00:00Z</time>
      </trkpt>
      <trkpt lat="48.032" lon="6.77449">
        <ele>671.5</ele>
        <time>2010-01-01T00:00:00Z</time>
      </trkpt>
      <trkpt lat="48.03202" lon="6.77471">
        <ele>670.9</ele>
        <time>2010-01-01T00:00:00Z</time>
      </trkpt>
      <trkpt lat="48.03202" lon="6.77479">
        <ele>670.3</ele>
        <time>2010-01-01T00:00:00Z</time>
      </trkpt>
      <trkpt lat="48.03202" lon="6.77487">
        <ele>669.7</ele>
        <time>2010-01-01T00:00:00Z</time>
      </trkpt>
      <trkpt lat="48.03201" lon="6.77492">
        <ele>669</ele>
        <time>2010-01-01T00:00:00Z</time>
      </trkpt>
      <trkpt lat="48.03199" lon="6.77495">
        <ele>667.9</ele>
        <time>2010-01-01T00:00:00Z</time>
      </trkpt>
      <trkpt lat="48.03197" lon="6.77499">
        <ele>666.8</ele>
        <time>2010-01-01T00:00:00Z</time>
      </trkpt>
      <trkpt lat="48.03194" lon="6.775">
        <ele>660.1</ele>
        <time>2010-01-01T00:00:00Z</time>
      </trkpt>
      <trkpt lat="48.0319" lon="6.775">
        <ele>658.3</ele>
        <time>2010-01-01T00:00:00Z</time>
      </trkpt>
      <trkpt lat="48.03188" lon="6.77498">
        <ele>662.1</ele>
        <time>2010-01-01T00:00:00Z</time>
      </trkpt>
      <trkpt lat="48.03186" lon="6.77495">
        <ele>661.2</ele>
        <time>2010-01-01T00:00:00Z</time>
      </trkpt>
      <trkpt lat="48.03183" lon="6.77488">
        <ele>661.1</ele>
        <time>2010-01-01T00:00:00Z</time>
      </trkpt>
      <trkpt lat="48.03181" lon="6.77475">
        <ele>663.9</ele>
        <time>2010-01-01T00:00:00Z</time>
      </trkpt>
      <trkpt lat="48.0318" lon="6.77449">
        <ele>666.5</ele>
        <time>2010-01-01T00:00:00Z</time>
      </trkpt>
      <trkpt lat="48.03177" lon="6.77428">
        <ele>662.8</ele>
        <time>2010-01-01T00:00:00Z</time>
      </trkpt>
      <trkpt lat="48.03176" lon="6.77422">
        <ele>660.9</ele>
        <time>2010-01-01T00:00:00Z</time>
      </trkpt>
      <trkpt lat="48.03174" lon="6.77418">
        <ele>659.1</ele>
        <time>2010-01-01T00:00:00Z</time>
      </trkpt>
      <trkpt lat="48.03167" lon="6.77407">
        <ele>662.6</ele>
        <time>2010-01-01T00:00:00Z</time>
      </trkpt>
      <trkpt lat="48.03158" lon="6.77389">
        <ele>645.4</ele>
        <time>2010-01-01T00:00:00Z</time>
      </trkpt>
      <trkpt lat="48.03148" lon="6.7737">
        <ele>644.4</ele>
        <time>2010-01-01T00:00:00Z</time>
      </trkpt>
      <trkpt lat="48.03139" lon="6.77352">
        <ele>644.4</ele>
        <time>2010-01-01T00:00:00Z</time>
      </trkpt>
      <trkpt lat="48.03132" lon="6.77339">
        <ele>643.1</ele>
        <time>2010-01-01T00:00:00Z</time>
      </trkpt>
      <trkpt lat="48.03124" lon="6.77327">
        <ele>646.7</ele>
        <time>2010-01-01T00:00:00Z</time>
      </trkpt>
      <trkpt lat="48.03112" lon="6.77307">
        <ele>644.7</ele>
        <time>2010-01-01T00:00:00Z</time>
      </trkpt>
      <trkpt lat="48.031" lon="6.77286">
        <ele>644.6</ele>
        <time>2010-01-01T00:00:00Z</time>
      </trkpt>
      <trkpt lat="48.03089" lon="6.77269">
        <ele>643</ele>
        <time>2010-01-01T00:00:00Z</time>
      </trkpt>
      <trkpt lat="48.03076" lon="6.77251">
        <ele>633.3</ele>
        <time>2010-01-01T00:00:00Z</time>
      </trkpt>
      <trkpt lat="48.03066" lon="6.77237">
        <ele>635.7</ele>
        <time>2010-01-01T00:00:00Z</time>
      </trkpt>
      <trkpt lat="48.03057" lon="6.77226">
        <ele>635</ele>
        <time>2010-01-01T00:00:00Z</time>
      </trkpt>
      <trkpt lat="48.03049" lon="6.77219">
        <ele>634.4</ele>
        <time>2010-01-01T00:00:00Z</time>
      </trkpt>
      <trkpt lat="48.0304" lon="6.77211">
        <ele>633.8</ele>
        <time>2010-01-01T00:00:00Z</time>
      </trkpt>
      <trkpt lat="48.03033" lon="6.77201">
        <ele>633.6</ele>
        <time>2010-01-01T00:00:00Z</time>
      </trkpt>
      <trkpt lat="48.03025" lon="6.77191">
        <ele>633</ele>
        <time>2010-01-01T00:00:00Z</time>
      </trkpt>
      <trkpt lat="48.03005" lon="6.77159">
        <ele>634.3</ele>
        <time>2010-01-01T00:00:00Z</time>
      </trkpt>
      <trkpt lat="48.0298" lon="6.7711">
        <ele>623</ele>
        <time>2010-01-01T00:00:00Z</time>
      </trkpt>
      <trkpt lat="48.02941" lon="6.77043">
        <ele>625.9</ele>
        <time>2010-01-01T00:00:00Z</time>
      </trkpt>
      <trkpt lat="48.02917" lon="6.77004">
        <ele>618.9</ele>
        <time>2010-01-01T00:00:00Z</time>
      </trkpt>
      <trkpt lat="48.02897" lon="6.76972">
        <ele>609.1</ele>
        <time>2010-01-01T00:00:00Z</time>
      </trkpt>
      <trkpt lat="48.02897" lon="6.76972">
        <ele>609.1</ele>
        <time>2010-01-01T00:00:00Z</time>
      </trkpt>
      <trkpt lat="48.02892" lon="6.76964">
        <ele>608.5</ele>
        <time>2010-01-01T00:00:00Z</time>
      </trkpt>
      <trkpt lat="48.0288" lon="6.76941">
        <ele>607.9</ele>
        <time>2010-01-01T00:00:00Z</time>
      </trkpt>
      <trkpt lat="48.02864" lon="6.76906">
        <ele>609.3</ele>
        <time>2010-01-01T00:00:00Z</time>
      </trkpt>
      <trkpt lat="48.02855" lon="6.76886">
        <ele>608.6</ele>
        <time>2010-01-01T00:00:00Z</time>
      </trkpt>
      <trkpt lat="48.02852" lon="6.76876">
        <ele>608.7</ele>
        <time>2010-01-01T00:00:00Z</time>
      </trkpt>
      <trkpt lat="48.02848" lon="6.76863">
        <ele>607.9</ele>
        <time>2010-01-01T00:00:00Z</time>
      </trkpt>
      <trkpt lat="48.02845" lon="6.76845">
        <ele>604.7</ele>
        <time>2010-01-01T00:00:00Z</time>
      </trkpt>
      <trkpt lat="48.02841" lon="6.76819">
        <ele>605.7</ele>
        <time>2010-01-01T00:00:00Z</time>
      </trkpt>
      <trkpt lat="48.02834" lon="6.76775">
        <ele>607.3</ele>
        <time>2010-01-01T00:00:00Z</time>
      </trkpt>
      <trkpt lat="48.02826" lon="6.76734">
        <ele>588</ele>
        <time>2010-01-01T00:00:00Z</time>
      </trkpt>
      <trkpt lat="48.02819" lon="6.76686">
        <ele>587.2</ele>
        <time>2010-01-01T00:00:00Z</time>
      </trkpt>
      <trkpt lat="48.02815" lon="6.76667">
        <ele>588.4</ele>
        <time>2010-01-01T00:00:00Z</time>
      </trkpt>
      <trkpt lat="48.02806" lon="6.76635">
        <ele>586</ele>
        <time>2010-01-01T00:00:00Z</time>
      </trkpt>
      <trkpt lat="48.02804" lon="6.76618">
        <ele>585.9</ele>
        <time>2010-01-01T00:00:00Z</time>
      </trkpt>
      <trkpt lat="48.02804" lon="6.76608">
        <ele>586.5</ele>
        <time>2010-01-01T00:00:00Z</time>
      </trkpt>
      <trkpt lat="48.02805" lon="6.76603">
        <ele>587.1</ele>
        <time>2010-01-01T00:00:00Z</time>
      </trkpt>
      <trkpt lat="48.02807" lon="6.76596">
        <ele>588.2</ele>
        <time>2010-01-01T00:00:00Z</time>
      </trkpt>
      <trkpt lat="48.02812" lon="6.76581">
        <ele>594.4</ele>
        <time>2010-01-01T00:00:00Z</time>
      </trkpt>
      <trkpt lat="48.02815" lon="6.76571">
        <ele>594.9</ele>
        <time>2010-01-01T00:00:00Z</time>
      </trkpt>
      <trkpt lat="48.02816" lon="6.76556">
        <ele>594.4</ele>
        <time>2010-01-01T00:00:00Z</time>
      </trkpt>
      <trkpt lat="48.02815" lon="6.76549">
        <ele>594.3</ele>
        <time>2010-01-01T00:00:00Z</time>
      </trkpt>
      <trkpt lat="48.02812" lon="6.76543">
        <ele>594.2</ele>
        <time>2010-01-01T00:00:00Z</time>
      </trkpt>
      <trkpt lat="48.02808" lon="6.76537">
        <ele>594</ele>
        <time>2010-01-01T00:00:00Z</time>
      </trkpt>
      <trkpt lat="48.02802" lon="6.76534">
        <ele>593.2</ele>
        <time>2010-01-01T00:00:00Z</time>
      </trkpt>
      <trkpt lat="48.02794" lon="6.7653">
        <ele>592</ele>
        <time>2010-01-01T00:00:00Z</time>
      </trkpt>
      <trkpt lat="48.02784" lon="6.76527">
        <ele>590.3</ele>
        <time>2010-01-01T00:00:00Z</time>
      </trkpt>
      <trkpt lat="48.02761" lon="6.76521">
        <ele>586.9</ele>
        <time>2010-01-01T00:00:00Z</time>
      </trkpt>
      <trkpt lat="48.02745" lon="6.76517">
        <ele>573.5</ele>
        <time>2010-01-01T00:00:00Z</time>
      </trkpt>
      <trkpt lat="48.02729" lon="6.76514">
        <ele>570.7</ele>
        <time>2010-01-01T00:00:00Z</time>
      </trkpt>
      <trkpt lat="48.02723" lon="6.7651">
        <ele>569.6</ele>
        <time>2010-01-01T00:00:00Z</time>
      </trkpt>
      <trkpt lat="48.02718" lon="6.76505">
        <ele>568.6</ele>
        <time>2010-01-01T00:00:00Z</time>
      </trkpt>
      <trkpt lat="48.02715" lon="6.76498">
        <ele>574.7</ele>
        <time>2010-01-01T00:00:00Z</time>
      </trkpt>
      <trkpt lat="48.02711" lon="6.76489">
        <ele>574</ele>
        <time>2010-01-01T00:00:00Z</time>
      </trkpt>
      <trkpt lat="48.02704" lon="6.76472">
        <ele>573.3</ele>
        <time>2010-01-01T00:00:00Z</time>
      </trkpt>
      <trkpt lat="48.02699" lon="6.76457">
        <ele>573.2</ele>
        <time>2010-01-01T00:00:00Z</time>
      </trkpt>
      <trkpt lat="48.02675" lon="6.764">
        <ele>574.1</ele>
        <time>2010-01-01T00:00:00Z</time>
      </trkpt>
      <trkpt lat="48.02661" lon="6.76367">
        <ele>560.4</ele>
        <time>2010-01-01T00:00:00Z</time>
      </trkpt>
      <trkpt lat="48.02655" lon="6.76353">
        <ele>562.3</ele>
        <time>2010-01-01T00:00:00Z</time>
      </trkpt>
      <trkpt lat="48.02649" lon="6.76345">
        <ele>562.5</ele>
        <time>2010-01-01T00:00:00Z</time>
      </trkpt>
      <trkpt lat="48.02643" lon="6.76341">
        <ele>561.2</ele>
        <time>2010-01-01T00:00:00Z</time>
      </trkpt>
      <trkpt lat="48.02637" lon="6.76336">
        <ele>559.8</ele>
        <time>2010-01-01T00:00:00Z</time>
      </trkpt>
      <trkpt lat="48.0263" lon="6.76332">
        <ele>565.5</ele>
        <time>2010-01-01T00:00:00Z</time>
      </trkpt>
      <trkpt lat="48.0262" lon="6.76324">
        <ele>563.5</ele>
        <time>2010-01-01T00:00:00Z</time>
      </trkpt>
      <trkpt lat="48.02614" lon="6.76314">
        <ele>562.9</ele>
        <time>2010-01-01T00:00:00Z</time>
      </trkpt>
      <trkpt lat="48.02607" lon="6.76303">
        <ele>562.8</ele>
        <time>2010-01-01T00:00:00Z</time>
      </trkpt>
      <trkpt lat="48.026" lon="6.76288">
        <ele>563.3</ele>
        <time>2010-01-01T00:00:00Z</time>
      </trkpt>
      <trkpt lat="48.02591" lon="6.76266">
        <ele>562.3</ele>
        <time>2010-01-01T00:00:00Z</time>
      </trkpt>
      <trkpt lat="48.02583" lon="6.76245">
        <ele>556</ele>
        <time>2010-01-01T00:00:00Z</time>
      </trkpt>
      <trkpt lat="48.02574" lon="6.76223">
        <ele>551.6</ele>
        <time>2010-01-01T00:00:00Z</time>
      </trkpt>
      <trkpt lat="48.02565" lon="6.76199">
        <ele>551.7</ele>
        <time>2010-01-01T00:00:00Z</time>
      </trkpt>
      <trkpt lat="48.02555" lon="6.76172">
        <ele>552.3</ele>
        <time>2010-01-01T00:00:00Z</time>
      </trkpt>
      <trkpt lat="48.02543" lon="6.76147">
        <ele>553.5</ele>
        <time>2010-01-01T00:00:00Z</time>
      </trkpt>
      <trkpt lat="48.02535" lon="6.76128">
        <ele>552.5</ele>
        <time>2010-01-01T00:00:00Z</time>
      </trkpt>
      <trkpt lat="48.02528" lon="6.76109">
        <ele>551.5</ele>
        <time>2010-01-01T00:00:00Z</time>
      </trkpt>
      <trkpt lat="48.02518" lon="6.76079">
        <ele>551.6</ele>
        <time>2010-01-01T00:00:00Z</time>
      </trkpt>
      <trkpt lat="48.02515" lon="6.76065">
        <ele>553.1</ele>
        <time>2010-01-01T00:00:00Z</time>
      </trkpt>
      <trkpt lat="48.02508" lon="6.76038">
        <ele>555.5</ele>
        <time>2010-01-01T00:00:00Z</time>
      </trkpt>
      <trkpt lat="48.02502" lon="6.76014">
        <ele>552.3</ele>
        <time>2010-01-01T00:00:00Z</time>
      </trkpt>
      <trkpt lat="48.02492" lon="6.75981">
        <ele>539.6</ele>
        <time>2010-01-01T00:00:00Z</time>
      </trkpt>
      <trkpt lat="48.0249" lon="6.75973">
        <ele>538.7</ele>
        <time>2010-01-01T00:00:00Z</time>
      </trkpt>
      <trkpt lat="48.02486" lon="6.75962">
        <ele>538.3</ele>
        <time>2010-01-01T00:00:00Z</time>
      </trkpt>
      <trkpt lat="48.02486" lon="6.75971">
        <ele>538.1</ele>
        <time>2010-01-01T00:00:00Z</time>
      </trkpt>
      <trkpt lat="48.02487" lon="6.75982">
        <ele>538.9</ele>
        <time>2010-01-01T00:00:00Z</time>
      </trkpt>
      <trkpt lat="48.02488" lon="6.75992">
        <ele>540.4</ele>
        <time>2010-01-01T00:00:00Z</time>
      </trkpt>
      <trkpt lat="48.02488" lon="6.76">
        <ele>540.9</ele>
        <time>2010-01-01T00:00:00Z</time>
      </trkpt>
      <trkpt lat="48.02488" lon="6.76012">
        <ele>536.9</ele>
        <time>2010-01-01T00:00:00Z</time>
      </trkpt>
      <trkpt lat="48.0249" lon="6.76024">
        <ele>534.7</ele>
        <time>2010-01-01T00:00:00Z</time>
      </trkpt>
      <trkpt lat="48.02491" lon="6.76033">
        <ele>533.5</ele>
        <time>2010-01-01T00:00:00Z</time>
      </trkpt>
      <trkpt lat="48.02492" lon="6.76044">
        <ele>532.8</ele>
        <time>2010-01-01T00:00:00Z</time>
      </trkpt>
      <trkpt lat="48.02494" lon="6.76059">
        <ele>533.4</ele>
        <time>2010-01-01T00:00:00Z</time>
      </trkpt>
      <trkpt lat="48.02495" lon="6.76072">
        <ele>535.5</ele>
        <time>2010-01-01T00:00:00Z</time>
      </trkpt>
      <trkpt lat="48.02496" lon="6.76082">
        <ele>538.1</ele>
        <time>2010-01-01T00:00:00Z</time>
      </trkpt>
      <trkpt lat="48.02497" lon="6.76091">
        <ele>535.3</ele>
        <time>2010-01-01T00:00:00Z</time>
      </trkpt>
      <trkpt lat="48.02501" lon="6.76103">
        <ele>546.5</ele>
        <time>2010-01-01T00:00:00Z</time>
      </trkpt>
      <trkpt lat="48.02506" lon="6.7612">
        <ele>548</ele>
        <time>2010-01-01T00:00:00Z</time>
      </trkpt>
      <trkpt lat="48.02512" lon="6.76135">
        <ele>547.6</ele>
        <time>2010-01-01T00:00:00Z</time>
      </trkpt>
      <trkpt lat="48.02518" lon="6.76152">
        <ele>545.9</ele>
        <time>2010-01-01T00:00:00Z</time>
      </trkpt>
      <trkpt lat="48.02522" lon="6.76166">
        <ele>545.8</ele>
        <time>2010-01-01T00:00:00Z</time>
      </trkpt>
      <trkpt lat="48.02525" lon="6.76181">
        <ele>543.2</ele>
        <time>2010-01-01T00:00:00Z</time>
      </trkpt>
      <trkpt lat="48.02527" lon="6.76199">
        <ele>544</ele>
        <time>2010-01-01T00:00:00Z</time>
      </trkpt>
      <trkpt lat="48.0253" lon="6.76233">
        <ele>542.5</ele>
        <time>2010-01-01T00:00:00Z</time>
      </trkpt>
      <trkpt lat="48.02531" lon="6.76256">
        <ele>536.6</ele>
        <time>2010-01-01T00:00:00Z</time>
      </trkpt>
      <trkpt lat="48.02531" lon="6.76256">
        <ele>536.6</ele>
        <time>2010-01-01T00:00:00Z</time>
      </trkpt>
      <trkpt lat="48.02531" lon="6.76256">
        <ele>536.6</ele>
        <time>2010-01-01T00:00:00Z</time>
      </trkpt>
      <trkpt lat="48.02532" lon="6.76273">
        <ele>536.7</ele>
        <time>2010-01-01T00:00:00Z</time>
      </trkpt>
      <trkpt lat="48.02535" lon="6.76311">
        <ele>535.3</ele>
        <time>2010-01-01T00:00:00Z</time>
      </trkpt>
      <trkpt lat="48.02536" lon="6.76333">
        <ele>534.5</ele>
        <time>2010-01-01T00:00:00Z</time>
      </trkpt>
      <trkpt lat="48.02541" lon="6.76365">
        <ele>529.6</ele>
        <time>2010-01-01T00:00:00Z</time>
      </trkpt>
      <trkpt lat="48.02544" lon="6.76386">
        <ele>529.1</ele>
        <time>2010-01-01T00:00:00Z</time>
      </trkpt>
      <trkpt lat="48.02546" lon="6.76403">
        <ele>528.9</ele>
        <time>2010-01-01T00:00:00Z</time>
      </trkpt>
      <trkpt lat="48.02549" lon="6.76421">
        <ele>525</ele>
        <time>2010-01-01T00:00:00Z</time>
      </trkpt>
      <trkpt lat="48.02553" lon="6.76434">
        <ele>525.2</ele>
        <time>2010-01-01T00:00:00Z</time>
      </trkpt>
      <trkpt lat="48.02559" lon="6.76448">
        <ele>525</ele>
        <time>2010-01-01T00:00:00Z</time>
      </trkpt>
      <trkpt lat="48.02562" lon="6.76461">
        <ele>524.6</ele>
        <time>2010-01-01T00:00:00Z</time>
      </trkpt>
      <trkpt lat="48.02564" lon="6.76468">
        <ele>524.5</ele>
        <time>2010-01-01T00:00:00Z</time>
      </trkpt>
      <trkpt lat="48.02565" lon="6.76476">
        <ele>524.5</ele>
        <time>2010-01-01T00:00:00Z</time>
      </trkpt>
      <trkpt lat="48.02564" lon="6.76481">
        <ele>524.4</ele>
        <time>2010-01-01T00:00:00Z</time>
      </trkpt>
      <trkpt lat="48.02563" lon="6.76485">
        <ele>524.4</ele>
        <time>2010-01-01T00:00:00Z</time>
      </trkpt>
      <trkpt lat="48.02562" lon="6.76487">
        <ele>524.3</ele>
        <time>2010-01-01T00:00:00Z</time>
      </trkpt>
      <trkpt lat="48.02559" lon="6.7649">
        <ele>523.9</ele>
        <time>2010-01-01T00:00:00Z</time>
      </trkpt>
      <trkpt lat="48.02556" lon="6.7649">
        <ele>523.5</ele>
        <time>2010-01-01T00:00:00Z</time>
      </trkpt>
      <trkpt lat="48.02553" lon="6.76489">
        <ele>523.1</ele>
        <time>2010-01-01T00:00:00Z</time>
      </trkpt>
      <trkpt lat="48.0255" lon="6.76487">
        <ele>522.7</ele>
        <time>2010-01-01T00:00:00Z</time>
      </trkpt>
      <trkpt lat="48.02546" lon="6.76476">
        <ele>522.4</ele>
        <time>2010-01-01T00:00:00Z</time>
      </trkpt>
      <trkpt lat="48.02541" lon="6.76462">
        <ele>522.3</ele>
        <time>2010-01-01T00:00:00Z</time>
      </trkpt>
      <trkpt lat="48.0254" lon="6.7646">
        <ele>522.3</ele>
        <time>2010-01-01T00:00:00Z</time>
      </trkpt>
      <trkpt lat="48.02538" lon="6.7646">
        <ele>522</ele>
        <time>2010-01-01T00:00:00Z</time>
      </trkpt>
      <trkpt lat="48.02534" lon="6.76463">
        <ele>521.5</ele>
        <time>2010-01-01T00:00:00Z</time>
      </trkpt>
      <trkpt lat="48.02532" lon="6.76456">
        <ele>521.5</ele>
        <time>2010-01-01T00:00:00Z</time>
      </trkpt>
      <trkpt lat="48.02527" lon="6.76447">
        <ele>521.1</ele>
        <time>2010-01-01T00:00:00Z</time>
      </trkpt>
      <trkpt lat="48.02521" lon="6.76437">
        <ele>520.4</ele>
        <time>2010-01-01T00:00:00Z</time>
      </trkpt>
      <trkpt lat="48.02514" lon="6.76422">
        <ele>518.6</ele>
        <time>2010-01-01T00:00:00Z</time>
      </trkpt>
      <trkpt lat="48.02502" lon="6.76404">
        <ele>520.4</ele>
        <time>2010-01-01T00:00:00Z</time>
      </trkpt>
      <trkpt lat="48.02489" lon="6.76384">
        <ele>509.2</ele>
        <time>2010-01-01T00:00:00Z</time>
      </trkpt>
      <trkpt lat="48.02475" lon="6.76362">
        <ele>508.5</ele>
        <time>2010-01-01T00:00:00Z</time>
      </trkpt>
      <trkpt lat="48.02451" lon="6.76327">
        <ele>508.5</ele>
        <time>2010-01-01T00:00:00Z</time>
      </trkpt>
      <trkpt lat="48.02438" lon="6.76303">
        <ele>507.6</ele>
        <time>2010-01-01T00:00:00Z</time>
      </trkpt>
      <trkpt lat="48.02427" lon="6.76281">
        <ele>507.2</ele>
        <time>2010-01-01T00:00:00Z</time>
      </trkpt>
      <trkpt lat="48.02408" lon="6.7625">
        <ele>497.5</ele>
        <time>2010-01-01T00:00:00Z</time>
      </trkpt>
      <trkpt lat="48.02381" lon="6.76209">
        <ele>492.4</ele>
        <time>2010-01-01T00:00:00Z</time>
      </trkpt>
      <trkpt lat="48.02362" lon="6.76222">
        <ele>489.2</ele>
        <time>2010-01-01T00:00:00Z</time>
      </trkpt>
      <trkpt lat="48.02355" lon="6.76253">
        <ele>485.5</ele>
        <time>2010-01-01T00:00:00Z</time>
      </trkpt>
      <trkpt lat="48.02352" lon="6.76291">
        <ele>486.8</ele>
        <time>2010-01-01T00:00:00Z</time>
      </trkpt>
      <trkpt lat="48.0234" lon="6.76363">
        <ele>484.5</ele>
        <time>2010-01-01T00:00:00Z</time>
      </trkpt>
      <trkpt lat="48.02302" lon="6.76406">
        <ele>472.3</ele>
        <time>2010-01-01T00:00:00Z</time>
      </trkpt>
      <trkpt lat="48.02307" lon="6.76425">
        <ele>473.8</ele>
        <time>2010-01-01T00:00:00Z</time>
      </trkpt>
      <trkpt lat="48.02309" lon="6.76437">
        <ele>473.7</ele>
        <time>2010-01-01T00:00:00Z</time>
      </trkpt>
      <trkpt lat="48.02309" lon="6.76446">
        <ele>473.4</ele>
        <time>2010-01-01T00:00:00Z</time>
      </trkpt>
      <trkpt lat="48.02308" lon="6.76457">
        <ele>473.1</ele>
        <time>2010-01-01T00:00:00Z</time>
      </trkpt>
      <trkpt lat="48.02307" lon="6.76463">
        <ele>473</ele>
        <time>2010-01-01T00:00:00Z</time>
      </trkpt>
      <trkpt lat="48.02305" lon="6.76467">
        <ele>472.9</ele>
        <time>2010-01-01T00:00:00Z</time>
      </trkpt>
      <trkpt lat="48.02302" lon="6.76471">
        <ele>472.7</ele>
        <time>2010-01-01T00:00:00Z</time>
      </trkpt>
      <trkpt lat="48.02299" lon="6.7647">
        <ele>472.5</ele>
        <time>2010-01-01T00:00:00Z</time>
      </trkpt>
      <trkpt lat="48.02294" lon="6.76469">
        <ele>472</ele>
        <time>2010-01-01T00:00:00Z</time>
      </trkpt>
      <trkpt lat="48.02289" lon="6.76467">
        <ele>471.6</ele>
        <time>2010-01-01T00:00:00Z</time>
      </trkpt>
      <trkpt lat="48.02285" lon="6.76465">
        <ele>471.3</ele>
        <time>2010-01-01T00:00:00Z</time>
      </trkpt>
      <trkpt lat="48.02275" lon="6.76468">
        <ele>470.5</ele>
        <time>2010-01-01T00:00:00Z</time>
      </trkpt>
      <trkpt lat="48.02273" lon="6.76469">
        <ele>470.4</ele>
        <time>2010-01-01T00:00:00Z</time>
      </trkpt>
      <trkpt lat="48.02268" lon="6.76472">
        <ele>470</ele>
        <time>2010-01-01T00:00:00Z</time>
      </trkpt>
      <trkpt lat="48.02262" lon="6.76473">
        <ele>469.7</ele>
        <time>2010-01-01T00:00:00Z</time>
      </trkpt>
      <trkpt lat="48.02256" lon="6.76474">
        <ele>469.4</ele>
        <time>2010-01-01T00:00:00Z</time>
      </trkpt>
      <trkpt lat="48.0225" lon="6.76473">
        <ele>469.2</ele>
        <time>2010-01-01T00:00:00Z</time>
      </trkpt>
      <trkpt lat="48.02243" lon="6.76472">
        <ele>467.5</ele>
        <time>2010-01-01T00:00:00Z</time>
      </trkpt>
      <trkpt lat="48.02237" lon="6.76468">
        <ele>467.5</ele>
        <time>2010-01-01T00:00:00Z</time>
      </trkpt>
      <trkpt lat="48.02229" lon="6.76464">
        <ele>467.7</ele>
        <time>2010-01-01T00:00:00Z</time>
      </trkpt>
      <trkpt lat="48.02218" lon="6.76459">
        <ele>467.9</ele>
        <time>2010-01-01T00:00:00Z</time>
      </trkpt>
      <trkpt lat="48.02211" lon="6.76451">
        <ele>467.7</ele>
        <time>2010-01-01T00:00:00Z</time>
      </trkpt>
      <trkpt lat="48.02198" lon="6.76438">
        <ele>467.3</ele>
        <time>2010-01-01T00:00:00Z</time>
      </trkpt>
      <trkpt lat="48.02186" lon="6.76426">
        <ele>466.4</ele>
        <time>2010-01-01T00:00:00Z</time>
      </trkpt>
      <trkpt lat="48.02176" lon="6.76418">
        <ele>465.4</ele>
        <time>2010-01-01T00:00:00Z</time>
      </trkpt>
      <trkpt lat="48.02167" lon="6.76412">
        <ele>463.5</ele>
        <time>2010-01-01T00:00:00Z</time>
      </trkpt>
      <trkpt lat="48.0216" lon="6.76404">
        <ele>466.7</ele>
        <time>2010-01-01T00:00:00Z</time>
      </trkpt>
      <trkpt lat="48.02154" lon="6.76395">
        <ele>467.9</ele>
        <time>2010-01-01T00:00:00Z</time>
      </trkpt>
      <trkpt lat="48.02148" lon="6.76385">
        <ele>468.5</ele>
        <time>2010-01-01T00:00:00Z</time>
      </trkpt>
      <trkpt lat="48.02146" lon="6.76376">
        <ele>468.5</ele>
        <time>2010-01-01T00:00:00Z</time>
      </trkpt>
      <trkpt lat="48.02144" lon="6.76366">
        <ele>468.2</ele>
        <time>2010-01-01T00:00:00Z</time>
      </trkpt>
      <trkpt lat="48.02144" lon="6.76357">
        <ele>467.5</ele>
        <time>2010-01-01T00:00:00Z</time>
      </trkpt>
      <trkpt lat="48.02143" lon="6.76345">
        <ele>466.7</ele>
        <time>2010-01-01T00:00:00Z</time>
      </trkpt>
      <trkpt lat="48.02143" lon="6.76331">
        <ele>463.7</ele>
        <time>2010-01-01T00:00:00Z</time>
      </trkpt>
      <trkpt lat="48.02142" lon="6.76319">
        <ele>464.1</ele>
        <time>2010-01-01T00:00:00Z</time>
      </trkpt>
      <trkpt lat="48.02136" lon="6.76266">
        <ele>464</ele>
        <time>2010-01-01T00:00:00Z</time>
      </trkpt>
      <trkpt lat="48.02124" lon="6.76147">
        <ele>459.4</ele>
        <time>2010-01-01T00:00:00Z</time>
      </trkpt>
      <trkpt lat="48.02116" lon="6.76088">
        <ele>458.6</ele>
        <time>2010-01-01T00:00:00Z</time>
      </trkpt>
      <trkpt lat="48.02111" lon="6.76056">
        <ele>456</ele>
        <time>2010-01-01T00:00:00Z</time>
      </trkpt>
      <trkpt lat="48.0211" lon="6.76046">
        <ele>455.7</ele>
        <time>2010-01-01T00:00:00Z</time>
      </trkpt>
      <trkpt lat="48.02104" lon="6.76025">
        <ele>455.5</ele>
        <time>2010-01-01T00:00:00Z</time>
      </trkpt>
      <trkpt lat="48.0209" lon="6.75975">
        <ele>455.3</ele>
        <time>2010-01-01T00:00:00Z</time>
      </trkpt>
      <trkpt lat="48.02082" lon="6.75948">
        <ele>460</ele>
        <time>2010-01-01T00:00:00Z</time>
      </trkpt>
      <trkpt lat="48.02076" lon="6.7593">
        <ele>459.2</ele>
        <time>2010-01-01T00:00:00Z</time>
      </trkpt>
      <trkpt lat="48.02068" lon="6.75904">
        <ele>458.5</ele>
        <time>2010-01-01T00:00:00Z</time>
      </trkpt>
      <trkpt lat="48.0206" lon="6.75887">
        <ele>459</ele>
        <time>2010-01-01T00:00:00Z</time>
      </trkpt>
      <trkpt lat="48.02054" lon="6.75872">
        <ele>459.1</ele>
        <time>2010-01-01T00:00:00Z</time>
      </trkpt>
      <trkpt lat="48.02045" lon="6.75856">
        <ele>459</ele>
        <time>2010-01-01T00:00:00Z</time>
      </trkpt>
      <trkpt lat="48.02041" lon="6.75848">
        <ele>458.9</ele>
        <time>2010-01-01T00:00:00Z</time>
      </trkpt>
      <trkpt lat="48.02031" lon="6.75857">
        <ele>459</ele>
        <time>2010-01-01T00:00:00Z</time>
      </trkpt>
      <trkpt lat="48.02025" lon="6.7586">
        <ele>459</ele>
        <time>2010-01-01T00:00:00Z</time>
      </trkpt>
      <trkpt lat="48.02021" lon="6.75861">
        <ele>459</ele>
        <time>2010-01-01T00:00:00Z</time>
      </trkpt>
      <trkpt lat="48.02011" lon="6.75864">
        <ele>459.1</ele>
        <time>2010-01-01T00:00:00Z</time>
      </trkpt>
      <trkpt lat="48.01999" lon="6.75868">
        <ele>464.9</ele>
        <time>2010-01-01T00:00:00Z</time>
      </trkpt>
      <trkpt lat="48.0199" lon="6.75872">
        <ele>465.7</ele>
        <time>2010-01-01T00:00:00Z</time>
      </trkpt>
      <trkpt lat="48.01982" lon="6.75876">
        <ele>466.5</ele>
        <time>2010-01-01T00:00:00Z</time>
      </trkpt>
      <trkpt lat="48.01976" lon="6.75876">
        <ele>466.9</ele>
        <time>2010-01-01T00:00:00Z</time>
      </trkpt>
      <trkpt lat="48.01969" lon="6.75873">
        <ele>467.4</ele>
        <time>2010-01-01T00:00:00Z</time>
      </trkpt>
      <trkpt lat="48.0195" lon="6.75861">
        <ele>468.5</ele>
        <time>2010-01-01T00:00:00Z</time>
      </trkpt>
      <trkpt lat="48.01915" lon="6.75844">
        <ele>475.6</ele>
        <time>2010-01-01T00:00:00Z</time>
      </trkpt>
      <trkpt lat="48.01892" lon="6.75832">
        <ele>473.1</ele>
        <time>2010-01-01T00:00:00Z</time>
      </trkpt>
      <trkpt lat="48.01868" lon="6.75822">
        <ele>476.4</ele>
        <time>2010-01-01T00:00:00Z</time>
      </trkpt>
      <trkpt lat="48.0185" lon="6.75815">
        <ele>479</ele>
        <time>2010-01-01T00:00:00Z</time>
      </trkpt>
      <trkpt lat="48.0184" lon="6.7581">
        <ele>479.3</ele>
        <time>2010-01-01T00:00:00Z</time>
      </trkpt>
      <trkpt lat="48.01835" lon="6.75806">
        <ele>478.8</ele>
        <time>2010-01-01T00:00:00Z</time>
      </trkpt>
      <trkpt lat="48.01829" lon="6.75798">
        <ele>488.9</ele>
        <time>2010-01-01T00:00:00Z</time>
      </trkpt>
      <trkpt lat="48.01821" lon="6.75789">
        <ele>488.4</ele>
        <time>2010-01-01T00:00:00Z</time>
      </trkpt>
      <trkpt lat="48.01817" lon="6.75782">
        <ele>487.9</ele>
        <time>2010-01-01T00:00:00Z</time>
      </trkpt>
      <trkpt lat="48.01812" lon="6.75777">
        <ele>487.8</ele>
        <time>2010-01-01T00:00:00Z</time>
      </trkpt>
      <trkpt lat="48.01804" lon="6.75771">
        <ele>488.3</ele>
        <time>2010-01-01T00:00:00Z</time>
      </trkpt>
      <trkpt lat="48.01796" lon="6.75765">
        <ele>489.2</ele>
        <time>2010-01-01T00:00:00Z</time>
      </trkpt>
      <trkpt lat="48.01791" lon="6.7576">
        <ele>489.8</ele>
        <time>2010-01-01T00:00:00Z</time>
      </trkpt>
      <trkpt lat="48.01787" lon="6.75755">
        <ele>490.3</ele>
        <time>2010-01-01T00:00:00Z</time>
      </trkpt>
      <trkpt lat="48.01784" lon="6.75746">
        <ele>484.2</ele>
        <time>2010-01-01T00:00:00Z</time>
      </trkpt>
      <trkpt lat="48.01779" lon="6.75733">
        <ele>484.4</ele>
        <time>2010-01-01T00:00:00Z</time>
      </trkpt>
      <trkpt lat="48.01776" lon="6.7573">
        <ele>484.7</ele>
        <time>2010-01-01T00:00:00Z</time>
      </trkpt>
      <trkpt lat="48.01773" lon="6.75724">
        <ele>484.6</ele>
        <time>2010-01-01T00:00:00Z</time>
      </trkpt>
      <trkpt lat="48.01766" lon="6.75705">
        <ele>483.7</ele>
        <time>2010-01-01T00:00:00Z</time>
      </trkpt>
      <trkpt lat="48.0176" lon="6.75692">
        <ele>483.8</ele>
        <time>2010-01-01T00:00:00Z</time>
      </trkpt>
      <trkpt lat="48.01752" lon="6.7568">
        <ele>484.8</ele>
        <time>2010-01-01T00:00:00Z</time>
      </trkpt>
      <trkpt lat="48.01743" lon="6.7567">
        <ele>491.5</ele>
        <time>2010-01-01T00:00:00Z</time>
      </trkpt>
      <trkpt lat="48.01733" lon="6.75663">
        <ele>492</ele>
        <time>2010-01-01T00:00:00Z</time>
      </trkpt>
      <trkpt lat="48.01723" lon="6.7566">
        <ele>494.3</ele>
        <time>2010-01-01T00:00:00Z</time>
      </trkpt>
      <trkpt lat="48.01718" lon="6.75659">
        <ele>495.5</ele>
        <time>2010-01-01T00:00:00Z</time>
      </trkpt>
      <trkpt lat="48.01714" lon="6.75657">
        <ele>496.3</ele>
        <time>2010-01-01T00:00:00Z</time>
      </trkpt>
      <trkpt lat="48.01707" lon="6.75651">
        <ele>497.7</ele>
        <time>2010-01-01T00:00:00Z</time>
      </trkpt>
      <trkpt lat="48.01702" lon="6.75645">
        <ele>498.5</ele>
        <time>2010-01-01T00:00:00Z</time>
      </trkpt>
      <trkpt lat="48.01696" lon="6.75636">
        <ele>499.1</ele>
        <time>2010-01-01T00:00:00Z</time>
      </trkpt>
      <trkpt lat="48.01687" lon="6.75618">
        <ele>499.5</ele>
        <time>2010-01-01T00:00:00Z</time>
      </trkpt>
      <trkpt lat="48.01676" lon="6.75594">
        <ele>502.9</ele>
        <time>2010-01-01T00:00:00Z</time>
      </trkpt>
      <trkpt lat="48.01668" lon="6.75568">
        <ele>499.1</ele>
        <time>2010-01-01T00:00:00Z</time>
      </trkpt>
      <trkpt lat="48.01662" lon="6.75548">
        <ele>510.8</ele>
        <time>2010-01-01T00:00:00Z</time>
      </trkpt>
      <trkpt lat="48.01654" lon="6.75511">
        <ele>506.4</ele>
        <time>2010-01-01T00:00:00Z</time>
      </trkpt>
      <trkpt lat="48.01648" lon="6.75477">
        <ele>502.6</ele>
        <time>2010-01-01T00:00:00Z</time>
      </trkpt>
      <trkpt lat="48.01643" lon="6.75444">
        <ele>501.1</ele>
        <time>2010-01-01T00:00:00Z</time>
      </trkpt>
      <trkpt lat="48.01637" lon="6.75408">
        <ele>494.5</ele>
        <time>2010-01-01T00:00:00Z</time>
      </trkpt>
      <trkpt lat="48.01633" lon="6.75396">
        <ele>494.9</ele>
        <time>2010-01-01T00:00:00Z</time>
      </trkpt>
      <trkpt lat="48.0163" lon="6.75391">
        <ele>495.2</ele>
        <time>2010-01-01T00:00:00Z</time>
      </trkpt>
      <trkpt lat="48.01627" lon="6.75388">
        <ele>495.4</ele>
        <time>2010-01-01T00:00:00Z</time>
      </trkpt>
      <trkpt lat="48.01607" lon="6.75381">
        <ele>497.4</ele>
        <time>2010-01-01T00:00:00Z</time>
      </trkpt>
      <trkpt lat="48.01572" lon="6.75366">
        <ele>504.6</ele>
        <time>2010-01-01T00:00:00Z</time>
      </trkpt>
      <trkpt lat="48.01562" lon="6.75362">
        <ele>504.5</ele>
        <time>2010-01-01T00:00:00Z</time>
      </trkpt>
      <trkpt lat="48.0152" lon="6.7535">
        <ele>504.2</ele>
        <time>2010-01-01T00:00:00Z</time>
      </trkpt>
      <trkpt lat="48.01492" lon="6.75341">
        <ele>504.1</ele>
        <time>2010-01-01T00:00:00Z</time>
      </trkpt>
      <trkpt lat="48.01474" lon="6.75336">
        <ele>506</ele>
        <time>2010-01-01T00:00:00Z</time>
      </trkpt>
      <trkpt lat="48.01461" lon="6.75334">
        <ele>506.6</ele>
        <time>2010-01-01T00:00:00Z</time>
      </trkpt>
      <trkpt lat="48.01452" lon="6.75332">
        <ele>495.9</ele>
        <time>2010-01-01T00:00:00Z</time>
      </trkpt>
      <trkpt lat="48.01446" lon="6.75332">
        <ele>496.2</ele>
        <time>2010-01-01T00:00:00Z</time>
      </trkpt>
      <trkpt lat="48.0144" lon="6.75332">
        <ele>496.6</ele>
        <time>2010-01-01T00:00:00Z</time>
      </trkpt>
      <trkpt lat="48.01434" lon="6.75333">
        <ele>497.2</ele>
        <time>2010-01-01T00:00:00Z</time>
      </trkpt>
      <trkpt lat="48.01427" lon="6.75335">
        <ele>504.1</ele>
        <time>2010-01-01T00:00:00Z</time>
      </trkpt>
      <trkpt lat="48.01422" lon="6.75338">
        <ele>503.3</ele>
        <time>2010-01-01T00:00:00Z</time>
      </trkpt>
      <trkpt lat="48.01414" lon="6.75346">
        <ele>505.5</ele>
        <time>2010-01-01T00:00:00Z</time>
      </trkpt>
      <trkpt lat="48.01409" lon="6.75351">
        <ele>507.1</ele>
        <time>2010-01-01T00:00:00Z</time>
      </trkpt>
      <trkpt lat="48.01394" lon="6.75363">
        <ele>510</ele>
        <time>2010-01-01T00:00:00Z</time>
      </trkpt>
      <trkpt lat="48.01362" lon="6.75382">
        <ele>512.7</ele>
        <time>2010-01-01T00:00:00Z</time>
      </trkpt>
      <trkpt lat="48.01355" lon="6.75385">
        <ele>513.2</ele>
        <time>2010-01-01T00:00:00Z</time>
      </trkpt>
      <trkpt lat="48.01348" lon="6.75386">
        <ele>513.5</ele>
        <time>2010-01-01T00:00:00Z</time>
      </trkpt>
      <trkpt lat="48.01342" lon="6.75387">
        <ele>513.8</ele>
        <time>2010-01-01T00:00:00Z</time>
      </trkpt>
      <trkpt lat="48.01336" lon="6.75385">
        <ele>513.5</ele>
        <time>2010-01-01T00:00:00Z</time>
      </trkpt>
      <trkpt lat="48.01326" lon="6.75382">
        <ele>510.4</ele>
        <time>2010-01-01T00:00:00Z</time>
      </trkpt>
      <trkpt lat="48.01316" lon="6.75377">
        <ele>509.1</ele>
        <time>2010-01-01T00:00:00Z</time>
      </trkpt>
      <trkpt lat="48.01304" lon="6.75369">
        <ele>507.7</ele>
        <time>2010-01-01T00:00:00Z</time>
      </trkpt>
      <trkpt lat="48.01297" lon="6.75367">
        <ele>507.3</ele>
        <time>2010-01-01T00:00:00Z</time>
      </trkpt>
      <trkpt lat="48.01292" lon="6.75365">
        <ele>506.9</ele>
        <time>2010-01-01T00:00:00Z</time>
      </trkpt>
      <trkpt lat="48.01289" lon="6.75366">
        <ele>506.9</ele>
        <time>2010-01-01T00:00:00Z</time>
      </trkpt>
      <trkpt lat="48.0128" lon="6.75369">
        <ele>506.9</ele>
        <time>2010-01-01T00:00:00Z</time>
      </trkpt>
      <trkpt lat="48.0127" lon="6.75375">
        <ele>507.3</ele>
        <time>2010-01-01T00:00:00Z</time>
      </trkpt>
      <trkpt lat="48.01253" lon="6.75383">
        <ele>508</ele>
        <time>2010-01-01T00:00:00Z</time>
      </trkpt>
      <trkpt lat="48.01241" lon="6.75391">
        <ele>503.8</ele>
        <time>2010-01-01T00:00:00Z</time>
      </trkpt>
      <trkpt lat="48.01232" lon="6.75397">
        <ele>503.8</ele>
        <time>2010-01-01T00:00:00Z</time>
      </trkpt>
      <trkpt lat="48.01222" lon="6.75407">
        <ele>503.3</ele>
        <time>2010-01-01T00:00:00Z</time>
      </trkpt>
      <trkpt lat="48.01215" lon="6.75417">
        <ele>507.1</ele>
        <time>2010-01-01T00:00:00Z</time>
      </trkpt>
      <trkpt lat="48.01206" lon="6.75432">
        <ele>505.9</ele>
        <time>2010-01-01T00:00:00Z</time>
      </trkpt>
      <trkpt lat="48.012" lon="6.75446">
        <ele>505.5</ele>
        <time>2010-01-01T00:00:00Z</time>
      </trkpt>
      <trkpt lat="48.01195" lon="6.75459">
        <ele>505.3</ele>
        <time>2010-01-01T00:00:00Z</time>
      </trkpt>
      <trkpt lat="48.01193" lon="6.75467">
        <ele>505.2</ele>
        <time>2010-01-01T00:00:00Z</time>
      </trkpt>
      <trkpt lat="48.0119" lon="6.75473">
        <ele>504.8</ele>
        <time>2010-01-01T00:00:00Z</time>
      </trkpt>
      <trkpt lat="48.01187" lon="6.75477">
        <ele>504.3</ele>
        <time>2010-01-01T00:00:00Z</time>
      </trkpt>
      <trkpt lat="48.01185" lon="6.7548">
        <ele>503.9</ele>
        <time>2010-01-01T00:00:00Z</time>
      </trkpt>
      <trkpt lat="48.01183" lon="6.75481">
        <ele>503.6</ele>
        <time>2010-01-01T00:00:00Z</time>
      </trkpt>
      <trkpt lat="48.01186" lon="6.75493">
        <ele>503.3</ele>
        <time>2010-01-01T00:00:00Z</time>
      </trkpt>
      <trkpt lat="48.01182" lon="6.75493">
        <ele>502.6</ele>
        <time>2010-01-01T00:00:00Z</time>
      </trkpt>
      <trkpt lat="48.01178" lon="6.75494">
        <ele>501.7</ele>
        <time>2010-01-01T00:00:00Z</time>
      </trkpt>
      <trkpt lat="48.01172" lon="6.75499">
        <ele>499.8</ele>
        <time>2010-01-01T00:00:00Z</time>
      </trkpt>
      <trkpt lat="48.01167" lon="6.75502">
        <ele>498.8</ele>
        <time>2010-01-01T00:00:00Z</time>
      </trkpt>
      <trkpt lat="48.01163" lon="6.75506">
        <ele>496.2</ele>
        <time>2010-01-01T00:00:00Z</time>
      </trkpt>
      <trkpt lat="48.01144" lon="6.75523">
        <ele>492.5</ele>
        <time>2010-01-01T00:00:00Z</time>
      </trkpt>
      <trkpt lat="48.01121" lon="6.75547">
        <ele>490.1</ele>
        <time>2010-01-01T00:00:00Z</time>
      </trkpt>
      <trkpt lat="48.01078" lon="6.75589">
        <ele>483.4</ele>
        <time>2010-01-01T00:00:00Z</time>
      </trkpt>
      <trkpt lat="48.01076" lon="6.75591">
        <ele>483.5</ele>
        <time>2010-01-01T00:00:00Z</time>
      </trkpt>
      <trkpt lat="48.01075" lon="6.75592">
        <ele>483.5</ele>
        <time>2010-01-01T00:00:00Z</time>
      </trkpt>
      <trkpt lat="48.01062" lon="6.75603">
        <ele>483.9</ele>
        <time>2010-01-01T00:00:00Z</time>
      </trkpt>
      <trkpt lat="48.01059" lon="6.75606">
        <ele>484</ele>
        <time>2010-01-01T00:00:00Z</time>
      </trkpt>
      <trkpt lat="48.01054" lon="6.75612">
        <ele>484.2</ele>
        <time>2010-01-01T00:00:00Z</time>
      </trkpt>
      <trkpt lat="48.01048" lon="6.75617">
        <ele>484.3</ele>
        <time>2010-01-01T00:00:00Z</time>
      </trkpt>
      <trkpt lat="48.01043" lon="6.75619">
        <ele>484.4</ele>
        <time>2010-01-01T00:00:00Z</time>
      </trkpt>
      <trkpt lat="48.0104" lon="6.7562">
        <ele>484.5</ele>
        <time>2010-01-01T00:00:00Z</time>
      </trkpt>
      <trkpt lat="48.01036" lon="6.75621">
        <ele>484.6</ele>
        <time>2010-01-01T00:00:00Z</time>
      </trkpt>
      <trkpt lat="48.01033" lon="6.75621">
        <ele>484.7</ele>
        <time>2010-01-01T00:00:00Z</time>
      </trkpt>
      <trkpt lat="48.01028" lon="6.7562">
        <ele>484.8</ele>
        <time>2010-01-01T00:00:00Z</time>
      </trkpt>
      <trkpt lat="48.01023" lon="6.75619">
        <ele>484.8</ele>
        <time>2010-01-01T00:00:00Z</time>
      </trkpt>
      <trkpt lat="48.01021" lon="6.75628">
        <ele>485</ele>
        <time>2010-01-01T00:00:00Z</time>
      </trkpt>
      <trkpt lat="48.01019" lon="6.75637">
        <ele>485.3</ele>
        <time>2010-01-01T00:00:00Z</time>
      </trkpt>
      <trkpt lat="48.01014" lon="6.75648">
        <ele>485.8</ele>
        <time>2010-01-01T00:00:00Z</time>
      </trkpt>
      <trkpt lat="48.01009" lon="6.75664">
        <ele>486.8</ele>
        <time>2010-01-01T00:00:00Z</time>
      </trkpt>
      <trkpt lat="48.01007" lon="6.75673">
        <ele>489.7</ele>
        <time>2010-01-01T00:00:00Z</time>
      </trkpt>
      <trkpt lat="48.01007" lon="6.75682">
        <ele>490.9</ele>
        <time>2010-01-01T00:00:00Z</time>
      </trkpt>
      <trkpt lat="48.01009" lon="6.7569">
        <ele>492</ele>
        <time>2010-01-01T00:00:00Z</time>
      </trkpt>
      <trkpt lat="48.01015" lon="6.75702">
        <ele>493.5</ele>
        <time>2010-01-01T00:00:00Z</time>
      </trkpt>
      <trkpt lat="48.01029" lon="6.75724">
        <ele>495.7</ele>
        <time>2010-01-01T00:00:00Z</time>
      </trkpt>
      <trkpt lat="48.01036" lon="6.75732">
        <ele>496</ele>
        <time>2010-01-01T00:00:00Z</time>
      </trkpt>
      <trkpt lat="48.01042" lon="6.75738">
        <ele>496.1</ele>
        <time>2010-01-01T00:00:00Z</time>
      </trkpt>
      <trkpt lat="48.01048" lon="6.75747">
        <ele>496.4</ele>
        <time>2010-01-01T00:00:00Z</time>
      </trkpt>
      <trkpt lat="48.01052" lon="6.75756">
        <ele>506.9</ele>
        <time>2010-01-01T00:00:00Z</time>
      </trkpt>
      <trkpt lat="48.01056" lon="6.75769">
        <ele>507.6</ele>
        <time>2010-01-01T00:00:00Z</time>
      </trkpt>
      <trkpt lat="48.0106" lon="6.75778">
        <ele>508.5</ele>
        <time>2010-01-01T00:00:00Z</time>
      </trkpt>
      <trkpt lat="48.01065" lon="6.75788">
        <ele>509.6</ele>
        <time>2010-01-01T00:00:00Z</time>
      </trkpt>
      <trkpt lat="48.01075" lon="6.75804">
        <ele>511.9</ele>
        <time>2010-01-01T00:00:00Z</time>
      </trkpt>
      <trkpt lat="48.01088" lon="6.75823">
        <ele>511</ele>
        <time>2010-01-01T00:00:00Z</time>
      </trkpt>
      <trkpt lat="48.0111" lon="6.75846">
        <ele>515.1</ele>
        <time>2010-01-01T00:00:00Z</time>
      </trkpt>
      <trkpt lat="48.01125" lon="6.75863">
        <ele>514.3</ele>
        <time>2010-01-01T00:00:00Z</time>
      </trkpt>
      <trkpt lat="48.01144" lon="6.75889">
        <ele>515</ele>
        <time>2010-01-01T00:00:00Z</time>
      </trkpt>
      <trkpt lat="48.01157" lon="6.75904">
        <ele>515.5</ele>
        <time>2010-01-01T00:00:00Z</time>
      </trkpt>
      <trkpt lat="48.01162" lon="6.75916">
        <ele>515.9</ele>
        <time>2010-01-01T00:00:00Z</time>
      </trkpt>
      <trkpt lat="48.01165" lon="6.7593">
        <ele>520.9</ele>
        <time>2010-01-01T00:00:00Z</time>
      </trkpt>
      <trkpt lat="48.01166" lon="6.75947">
        <ele>524.1</ele>
        <time>2010-01-01T00:00:00Z</time>
      </trkpt>
      <trkpt lat="48.01172" lon="6.75977">
        <ele>516.6</ele>
        <time>2010-01-01T00:00:00Z</time>
      </trkpt>
      <trkpt lat="48.01174" lon="6.75992">
        <ele>520.8</ele>
        <time>2010-01-01T00:00:00Z</time>
      </trkpt>
      <trkpt lat="48.01174" lon="6.76003">
        <ele>525.2</ele>
        <time>2010-01-01T00:00:00Z</time>
      </trkpt>
      <trkpt lat="48.01173" lon="6.76015">
        <ele>524.3</ele>
        <time>2010-01-01T00:00:00Z</time>
      </trkpt>
      <trkpt lat="48.01171" lon="6.76026">
        <ele>524</ele>
        <time>2010-01-01T00:00:00Z</time>
      </trkpt>
      <trkpt lat="48.01167" lon="6.7604">
        <ele>524.7</ele>
        <time>2010-01-01T00:00:00Z</time>
      </trkpt>
      <trkpt lat="48.01167" lon="6.7605">
        <ele>525.6</ele>
        <time>2010-01-01T00:00:00Z</time>
      </trkpt>
      <trkpt lat="48.01168" lon="6.76062">
        <ele>527.5</ele>
        <time>2010-01-01T00:00:00Z</time>
      </trkpt>
      <trkpt lat="48.01168" lon="6.76071">
        <ele>529.8</ele>
        <time>2010-01-01T00:00:00Z</time>
      </trkpt>
      <trkpt lat="48.01167" lon="6.7608">
        <ele>533.3</ele>
        <time>2010-01-01T00:00:00Z</time>
      </trkpt>
      <trkpt lat="48.01159" lon="6.761">
        <ele>537.8</ele>
        <time>2010-01-01T00:00:00Z</time>
      </trkpt>
      <trkpt lat="48.0115" lon="6.76121">
        <ele>539.6</ele>
        <time>2010-01-01T00:00:00Z</time>
      </trkpt>
      <trkpt lat="48.01144" lon="6.76136">
        <ele>540.4</ele>
        <time>2010-01-01T00:00:00Z</time>
      </trkpt>
      <trkpt lat="48.01137" lon="6.76148">
        <ele>541</ele>
        <time>2010-01-01T00:00:00Z</time>
      </trkpt>
      <trkpt lat="48.0113" lon="6.76145">
        <ele>541.2</ele>
        <time>2010-01-01T00:00:00Z</time>
      </trkpt>
      <trkpt lat="48.01125" lon="6.76143">
        <ele>541.3</ele>
        <time>2010-01-01T00:00:00Z</time>
      </trkpt>
      <trkpt lat="48.0112" lon="6.76142">
        <ele>541.5</ele>
        <time>2010-01-01T00:00:00Z</time>
      </trkpt>
      <trkpt lat="48.01112" lon="6.76141">
        <ele>541.8</ele>
        <time>2010-01-01T00:00:00Z</time>
      </trkpt>
      <trkpt lat="48.01107" lon="6.7614">
        <ele>542</ele>
        <time>2010-01-01T00:00:00Z</time>
      </trkpt>
      <trkpt lat="48.01103" lon="6.76142">
        <ele>542.4</ele>
        <time>2010-01-01T00:00:00Z</time>
      </trkpt>
      <trkpt lat="48.01096" lon="6.76144">
        <ele>543</ele>
        <time>2010-01-01T00:00:00Z</time>
      </trkpt>
      <trkpt lat="48.01086" lon="6.76145">
        <ele>543.5</ele>
        <time>2010-01-01T00:00:00Z</time>
      </trkpt>
      <trkpt lat="48.01077" lon="6.76149">
        <ele>546.3</ele>
        <time>2010-01-01T00:00:00Z</time>
      </trkpt>
      <trkpt lat="48.01066" lon="6.76156">
        <ele>546.6</ele>
        <time>2010-01-01T00:00:00Z</time>
      </trkpt>
      <trkpt lat="48.0105" lon="6.76169">
        <ele>552.6</ele>
        <time>2010-01-01T00:00:00Z</time>
      </trkpt>
      <trkpt lat="48.01035" lon="6.76181">
        <ele>553.5</ele>
        <time>2010-01-01T00:00:00Z</time>
      </trkpt>
      <trkpt lat="48.01023" lon="6.7619">
        <ele>554</ele>
        <time>2010-01-01T00:00:00Z</time>
      </trkpt>
      <trkpt lat="48.01008" lon="6.76204">
        <ele>554.9</ele>
        <time>2010-01-01T00:00:00Z</time>
      </trkpt>
      <trkpt lat="48.00999" lon="6.7621">
        <ele>557.1</ele>
        <time>2010-01-01T00:00:00Z</time>
      </trkpt>
      <trkpt lat="48.00998" lon="6.76213">
        <ele>557.3</ele>
        <time>2010-01-01T00:00:00Z</time>
      </trkpt>
      <trkpt lat="48.00997" lon="6.76216">
        <ele>557.5</ele>
        <time>2010-01-01T00:00:00Z</time>
      </trkpt>
      <trkpt lat="48.00997" lon="6.7622">
        <ele>557.8</ele>
        <time>2010-01-01T00:00:00Z</time>
      </trkpt>
      <trkpt lat="48.01001" lon="6.7622">
        <ele>556.1</ele>
        <time>2010-01-01T00:00:00Z</time>
      </trkpt>
      <trkpt lat="48.0101" lon="6.76221">
        <ele>556.1</ele>
        <time>2010-01-01T00:00:00Z</time>
      </trkpt>
      <trkpt lat="48.01015" lon="6.76225">
        <ele>556.3</ele>
        <time>2010-01-01T00:00:00Z</time>
      </trkpt>
      <trkpt lat="48.01022" lon="6.76232">
        <ele>556.5</ele>
        <time>2010-01-01T00:00:00Z</time>
      </trkpt>
      <trkpt lat="48.01027" lon="6.76241">
        <ele>556.7</ele>
        <time>2010-01-01T00:00:00Z</time>
      </trkpt>
      <trkpt lat="48.0103" lon="6.76251">
        <ele>563.1</ele>
        <time>2010-01-01T00:00:00Z</time>
      </trkpt>
      <trkpt lat="48.01032" lon="6.76263">
        <ele>563.6</ele>
        <time>2010-01-01T00:00:00Z</time>
      </trkpt>
      <trkpt lat="48.01032" lon="6.76276">
        <ele>564.4</ele>
        <time>2010-01-01T00:00:00Z</time>
      </trkpt>
      <trkpt lat="48.01031" lon="6.7629">
        <ele>565.4</ele>
        <time>2010-01-01T00:00:00Z</time>
      </trkpt>
      <trkpt lat="48.01029" lon="6.76297">
        <ele>566</ele>
        <time>2010-01-01T00:00:00Z</time>
      </trkpt>
      <trkpt lat="48.01029" lon="6.76303">
        <ele>566.5</ele>
        <time>2010-01-01T00:00:00Z</time>
      </trkpt>
      <trkpt lat="48.0103" lon="6.7631">
        <ele>566.9</ele>
        <time>2010-01-01T00:00:00Z</time>
      </trkpt>
      <trkpt lat="48.01031" lon="6.76314">
        <ele>567.2</ele>
        <time>2010-01-01T00:00:00Z</time>
      </trkpt>
      <trkpt lat="48.01037" lon="6.76322">
        <ele>567.5</ele>
        <time>2010-01-01T00:00:00Z</time>
      </trkpt>
      <trkpt lat="48.01044" lon="6.7633">
        <ele>567.7</ele>
        <time>2010-01-01T00:00:00Z</time>
      </trkpt>
      <trkpt lat="48.01054" lon="6.76339">
        <ele>576.1</ele>
        <time>2010-01-01T00:00:00Z</time>
      </trkpt>
      <trkpt lat="48.01064" lon="6.76346">
        <ele>575.8</ele>
        <time>2010-01-01T00:00:00Z</time>
      </trkpt>
      <trkpt lat="48.01074" lon="6.76352">
        <ele>575.7</ele>
        <time>2010-01-01T00:00:00Z</time>
      </trkpt>
      <trkpt lat="48.0108" lon="6.76355">
        <ele>576</ele>
        <time>2010-01-01T00:00:00Z</time>
      </trkpt>
      <trkpt lat="48.0108" lon="6.76355">
        <ele>576</ele>
        <time>2010-01-01T00:00:00Z</time>
      </trkpt>
      <trkpt lat="48.01083" lon="6.7636">
        <ele>576.7</ele>
        <time>2010-01-01T00:00:00Z</time>
      </trkpt>
      <trkpt lat="48.01084" lon="6.76364">
        <ele>574.4</ele>
        <time>2010-01-01T00:00:00Z</time>
      </trkpt>
      <trkpt lat="48.01084" lon="6.76368">
        <ele>574.9</ele>
        <time>2010-01-01T00:00:00Z</time>
      </trkpt>
      <trkpt lat="48.01082" lon="6.76372">
        <ele>578.4</ele>
        <time>2010-01-01T00:00:00Z</time>
      </trkpt>
      <trkpt lat="48.01079" lon="6.76377">
        <ele>579.1</ele>
        <time>2010-01-01T00:00:00Z</time>
      </trkpt>
    </trkseg>
  </trk>
</gpx>